[[{"header":{"parameterUnit":"m.s-1","parameterCategory":1,"la1":30.6,"la2":28.766,"lo1":-90.7593,"lo2":-88.6598,"dy":0.0162,"dx":0.0183,"nx":116,"ny":114,"refTime":"2024-06-20T06:00:00:Z","depth":0,"parameterNumber":2,"parameterNumberName":"U-component_of_WINDS"},"data":[0.0,0.0,0.0,0.0,0.0,0.0,0.0,0.0,0.0,0.0,0.0,0.0,0.0,0.0,0.0,0.0,0.0,0.0,0.0,0.0,0.0,0.0,0.0,0.0,0.0,0.0,0.0,0.0,0.0,0.0,0.0,0.0,0.0,0.0,0.0,0.0,0.0,0.0,0.0,0.0,0.0,0.0,0.0,0.0,0.0,0.0,0.0,0.0,0.0,0.0,0.0,0.0,0.0,0.0,0.0,0.0,0.0,0.0,0.0,0.0,0.0,0.0,0.0,0.0,0.0,0.0,0.0,0.0,0.0,0.0,0.0,0.0,0.0,0.0,0.0,0.0,0.0,0.0,0.0,0.0,0.0,0.0,0.0,0.0,0.0,0.0,0.0,0.0,0.0,0.0,0.0,0.0,0.0,0.0,0.0,0.0,0.0,0.0,0.0,0.0,0.0,0.0,0.0,0.0,0.0,0.0,0.0,0.0,0.0,0.0,0.0,0.0,0.0,0.0,0.0,0.0,0.0,0.0,0.0,0.0,0.0,0.0,0.0,0.0,0.0,0.0,0.0,0.0,0.0,0.0,0.0,0.0,0.0,0.0,0.0,0.0,0.0,0.0,0.0,0.0,0.0,0.0,0.0,0.0,0.0,0.0,0.0,0.0,0.0,0.0,0.0,0.0,0.0,0.0,0.0,0.0,0.0,0.0,0.0,0.0,0.0,0.0,0.0,0.0,0.0,0.0,0.0,0.0,0.0,0.0,0.0,0.0,0.0,0.0,0.0,0.0,0.0,0.0,0.0,0.0,0.0,0.0,0.0,0.0,0.0,0.0,0.0,0.0,0.0,0.0,0.0,0.0,0.0,0.0,0.0,0.0,0.0,0.0,0.0,0.0,0.0,0.0,0.0,0.0,0.0,0.0,0.0,0.0,0.0,0.0,0.0,0.0,0.0,0.0,0.0,0.0,0.0,0.0,0.0,0.0,0.0,0.0,0.0,0.0,0.0,0.0,0.0,0.0,0.0,0.0,0.0,0.0,0.0,0.0,0.0,0.0,0.0,0.0,0.0,0.0,0.0,0.0,0.0,0.0,0.0,0.0,0.0,0.0,0.0,0.0,0.0,0.0,0.0,0.0,0.0,0.0,0.0,0.0,0.0,0.0,0.0,0.0,0.0,0.0,0.0,0.0,0.0,0.0,0.0,0.0,0.0,0.0,0.0,0.0,0.0,0.0,0.0,0.0,0.0,0.0,0.0,0.0,0.0,0.0,0.0,0.0,0.0,0.0,0.0,0.0,0.0,0.0,0.0,0.0,0.0,0.0,0.0,0.0,0.0,0.0,0.0,0.0,0.0,0.0,0.0,0.0,0.0,0.0,0.0,0.0,0.0,0.0,0.0,0.0,0.0,0.0,0.0,0.0,0.0,0.0,0.0,0.0,0.0,0.0,0.0,0.0,0.0,0.0,0.0,0.0,0.0,0.0,0.0,0.0,0.0,0.0,0.0,0.0,0.0,0.0,0.0,0.0,0.0,0.0,0.0,0.0,0.0,0.0,0.0,0.0,0.0,0.0,0.0,0.0,0.0,0.0,0.0,0.0,0.0,0.0,0.0,0.0,0.0,0.0,0.0,0.0,0.0,0.0,0.0,0.0,0.0,0.0,0.0,0.0,0.0,0.0,0.0,0.0,0.0,0.0,0.0,0.0,0.0,0.0,0.0,0.0,0.0,0.0,0.0,0.0,0.0,0.0,0.0,0.0,0.0,0.0,0.0,0.0,0.0,0.0,0.0,0.0,0.0,0.0,0.0,0.0,0.0,0.0,0.0,0.0,0.0,0.0,0.0,0.0,0.0,0.0,0.0,0.0,0.0,0.0,0.0,0.0,0.0,0.0,0.0,0.0,0.0,0.0,0.0,0.0,0.0,0.0,0.0,0.0,0.0,0.0,0.0,0.0,0.0,0.0,0.0,0.0,0.0,0.0,0.0,0.0,0.0,0.0,0.0,0.0,0.0,0.0,0.0,0.0,0.0,0.0,0.0,0.0,0.0,0.0,0.0,0.0,0.0,0.0,0.0,0.0,0.0,0.0,0.0,0.0,0.0,0.0,0.0,0.0,0.0,0.0,0.0,0.0,0.0,0.0,0.0,0.0,0.0,0.0,0.0,0.0,0.0,0.0,0.0,0.0,0.0,0.0,0.0,0.0,0.0,0.0,0.0,0.0,0.0,0.0,0.0,0.0,0.0,0.0,0.0,0.0,0.0,0.0,0.0,0.0,0.0,0.0,0.0,0.0,0.0,0.0,0.0,0.0,0.0,0.0,0.0,0.0,0.0,0.0,0.0,0.0,0.0,0.0,0.0,0.0,0.0,0.0,0.0,0.0,0.0,0.0,0.0,0.0,0.0,0.0,0.0,0.0,0.0,0.0,0.0,0.0,0.0,0.0,0.0,0.0,0.0,0.0,0.0,0.0,0.0,0.0,0.0,0.0,0.0,0.0,0.0,0.0,0.0,0.0,0.0,0.0,0.0,0.0,0.0,0.0,0.0,0.0,0.0,0.0,0.0,0.0,0.0,0.0,0.0,0.0,0.0,0.0,0.0,0.0,0.0,0.0,0.0,0.0,0.0,0.0,0.0,0.0,0.0,0.0,0.0,0.0,0.0,0.0,0.0,0.0,0.0,0.0,0.0,0.0,0.0,0.0,0.0,0.0,0.0,0.0,0.0,0.0,0.0,0.0,0.0,0.0,0.0,0.0,0.0,0.0,0.0,0.0,0.0,0.0,0.0,0.0,0.0,0.0,0.0,0.0,0.0,0.0,0.0,0.0,0.0,0.0,0.0,0.0,0.0,0.0,0.0,0.0,0.0,0.0,0.0,0.0,0.0,0.0,0.0,0.0,0.0,0.0,0.0,0.0,0.0,0.0,0.0,0.0,0.0,0.0,0.0,0.0,0.0,0.0,0.0,0.0,0.0,0.0,0.0,0.0,0.0,0.0,0.0,0.0,0.0,0.0,0.0,0.0,0.0,0.0,0.0,0.0,0.0,0.0,0.0,0.0,0.0,0.0,0.0,0.0,0.0,0.0,0.0,0.0,0.0,0.0,0.0,0.0,0.0,0.0,0.0,0.0,0.0,0.0,0.0,0.0,0.0,0.0,0.0,0.0,0.0,0.0,0.0,0.0,0.0,0.0,0.0,0.0,0.0,0.0,0.0,0.0,0.0,0.0,0.0,0.0,0.0,0.0,0.0,0.0,0.0,0.0,0.0,0.0,0.0,0.0,0.0,0.0,0.0,0.0,0.0,0.0,0.0,0.0,0.0,0.0,0.0,0.0,0.0,0.0,0.0,0.0,0.0,0.0,0.0,0.0,0.0,0.0,0.0,0.0,0.0,0.0,0.0,0.0,0.0,0.0,0.0,0.0,0.0,0.0,0.0,0.0,0.0,0.0,0.0,0.0,0.0,0.0,0.0,0.0,0.0,0.0,0.0,0.0,0.0,0.0,0.0,0.0,0.0,0.0,0.0,0.0,0.0,0.0,0.0,0.0,0.0,0.0,0.0,0.0,0.0,0.0,0.0,0.0,0.0,0.0,0.0,0.0,0.0,0.0,0.0,0.0,0.0,0.0,0.0,0.0,0.0,0.0,0.0,0.0,0.0,0.0,0.0,0.0,0.0,0.0,0.0,0.0,0.0,0.0,0.0,0.0,0.0,0.0,0.0,0.0,0.0,0.0,0.0,0.0,0.0,0.0,0.0,0.0,0.0,0.0,0.0,0.0,0.0,0.0,0.0,0.0,0.0,0.0,0.0,0.0,0.0,0.0,0.0,0.0,0.0,0.0,0.0,0.0,0.0,0.0,0.0,0.0,0.0,0.0,0.0,0.0,0.0,0.0,0.0,0.0,0.0,0.0,0.0,0.0,0.0,0.0,0.0,0.0,0.0,0.0,0.0,0.0,0.0,0.0,0.0,0.0,0.0,0.0,0.0,0.0,0.0,0.0,0.0,0.0,0.0,0.0,0.0,0.0,0.0,0.0,0.0,0.0,0.0,0.0,0.0,0.0,0.0,0.0,0.0,0.0,0.0,0.0,0.0,0.0,0.0,0.0,0.0,0.0,0.0,0.0,0.0,0.0,0.0,0.0,0.0,0.0,0.0,0.0,0.0,0.0,0.0,0.0,0.0,0.0,0.0,0.0,0.0,0.0,0.0,0.0,0.0,0.0,0.0,0.0,0.0,0.0,0.0,0.0,0.0,0.0,0.0,0.0,0.0,0.0,0.0,0.0,0.0,0.0,0.0,0.0,0.0,0.0,0.0,0.0,0.0,0.0,0.0,0.0,0.0,0.0,0.0,0.0,0.0,0.0,0.0,0.0,0.0,0.0,0.0,0.0,0.0,0.0,0.0,0.0,0.0,0.0,0.0,0.0,0.0,0.0,0.0,0.0,0.0,0.0,0.0,0.0,0.0,0.0,0.0,0.0,0.0,0.0,0.0,0.0,0.0,0.0,0.0,0.0,0.0,0.0,0.0,0.0,0.0,0.0,0.0,0.0,0.0,0.0,0.0,0.0,0.0,0.0,0.0,0.0,0.0,0.0,0.0,0.0,0.0,0.0,0.0,0.0,0.0,0.0,0.0,0.0,0.0,0.0,0.0,0.0,0.0,0.0,0.0,0.0,0.0,0.0,0.0,0.0,0.0,0.0,0.0,0.0,0.0,0.0,0.0,0.0,0.0,0.0,0.0,0.0,0.0,0.0,0.0,0.0,0.0,0.0,0.0,0.0,0.0,0.0,0.0,0.0,0.0,0.0,0.0,0.0,0.0,0.0,0.0,0.0,0.0,0.0,0.0,0.0,0.0,0.0,0.0,0.0,0.0,0.0,0.0,0.0,0.0,0.0,0.0,0.0,0.0,0.0,0.0,0.0,0.0,0.0,0.0,0.0,0.0,0.0,0.0,0.0,0.0,0.0,0.0,0.0,0.0,0.0,0.0,0.0,0.0,0.0,0.0,0.0,0.0,0.0,0.0,0.0,0.0,0.0,0.0,0.0,0.0,0.0,0.0,0.0,0.0,0.0,0.0,0.0,0.0,0.0,0.0,0.0,0.0,0.0,0.0,0.0,0.0,0.0,0.0,0.0,0.0,0.0,0.0,0.0,0.0,0.0,0.0,0.0,0.0,0.0,0.0,0.0,0.0,0.0,0.0,0.0,0.0,0.0,0.0,0.0,0.0,0.0,0.0,0.0,0.0,0.0,0.0,0.0,0.0,0.0,0.0,0.0,0.0,0.0,0.0,0.0,0.0,0.0,0.0,0.0,0.0,0.0,0.0,0.0,0.0,0.0,0.0,0.0,0.0,0.0,0.0,0.0,0.0,0.0,0.0,0.0,0.0,0.0,0.0,0.0,0.0,0.0,0.0,0.0,0.0,0.0,0.0,0.0,0.0,0.0,0.0,0.0,0.0,0.0,0.0,0.0,0.0,0.0,0.0,0.0,0.0,0.0,0.0,0.0,0.0,0.0,0.0,0.0,0.0,0.0,0.0,0.0,0.0,0.0,0.0,0.0,0.0,0.0,0.0,0.0,0.0,0.0,0.0,0.0,0.0,0.0,0.0,0.0,0.0,0.0,0.0,0.0,0.0,0.0,0.0,0.0,0.0,0.0,0.0,0.0,0.0,0.0,0.0,0.0,0.0,0.0,0.0,0.0,0.0,0.0,0.0,0.0,0.0,0.0,0.0,0.0,0.0,0.0,0.0,0.0,0.0,0.0,0.0,0.0,0.0,0.0,0.0,0.0,0.0,0.0,0.0,0.0,0.0,0.0,0.0,0.0,0.0,0.0,0.0,0.0,0.0,0.0,0.0,0.0,0.0,0.0,0.0,0.0,0.0,0.0,0.0,0.0,0.0,0.0,0.0,0.0,0.0,0.0,0.0,0.0,0.0,0.0,0.0,0.0,0.0,0.0,0.0,0.0,0.0,0.0,0.0,0.0,0.0,0.0,0.0,0.0,0.0,0.0,0.0,0.0,0.0,0.0,0.0,0.0,0.0,0.0,0.0,0.0,0.0,0.0,0.0,0.0,0.0,0.0,0.0,0.0,0.0,0.0,0.0,0.0,0.0,0.0,0.0,0.0,0.0,0.0,0.7296,0.7114,0.0,0.0,0.0,0.0,0.0,0.0,0.0,0.0,0.0,0.0,0.0,0.0,0.0,0.0,0.0,0.0,0.0,0.0,0.0,0.0,0.0,0.0,0.0,0.5518,0.5644,0.5786,0.5867,0.589,0.589,0.589,0.589,0.589,0.5772,0.5691,0.5691,0.5518,0.5437,0.5437,0.5437,0.5437,0.5437,0.5362,0.5264,0.5144,0.0,0.0,0.0,0.0,0.0,0.0,0.0,0.0,0.0,0.0,0.0,0.0,0.0,0.0,0.0,0.0,0.0,0.0,0.0,0.0,0.0,0.0,0.0,0.0,0.0,0.0,0.0,0.0,0.0,0.0,0.0,0.0,0.0,0.0,0.0,0.0,0.0,0.0,0.0,0.0,0.0,0.0,0.0,0.0,0.0,0.0,0.0,0.0,0.0,0.0,0.0,0.0,0.0,0.0,0.0,0.0,0.0,0.0,0.0,0.0,0.0,0.0,0.0,0.0,0.0,0.0,0.0,0.0,0.0,0.0,0.7844,0.7634,0.0,0.0,0.0,0.0,0.0,0.0,0.0,0.0,0.0,0.0,0.0,0.0,0.0,0.0,0.0,0.0,0.0,0.0,0.0,0.0,0.0,0.5067,0.5399,0.5552,0.5698,0.5867,0.5996,0.6059,0.6086,0.6086,0.6086,0.6086,0.601,0.5935,0.5881,0.5881,0.5881,0.5881,0.5881,0.5881,0.5881,0.5881,0.577,0.5549,0.5494,0.0,0.0,0.0,0.0,0.0,0.0,0.0,0.0,0.0,0.0,0.0,0.0,0.0,0.0,0.0,0.0,0.0,0.0,0.0,0.0,0.0,0.0,0.0,0.0,0.0,0.0,0.0,0.0,0.0,0.0,0.0,0.0,0.0,0.0,0.0,0.0,0.0,0.0,0.0,0.0,0.0,0.0,0.0,0.0,0.0,0.0,0.0,0.0,0.0,0.0,0.0,0.0,0.0,0.0,0.0,0.0,0.0,0.0,0.0,0.0,0.0,0.0,0.0,0.8893,0.8946,0.9061,0.9061,0.9061,0.9034,0.8541,0.8338,0.8389,0.8052,0.0,0.0,0.0,0.0,0.0,0.0,0.0,0.0,0.0,0.0,0.0,0.0,0.0,0.0,0.0,0.0,0.0,0.0,0.0,0.52,0.5545,0.5684,0.5906,0.6211,0.6259,0.6301,0.6423,0.6437,0.6437,0.6437,0.6525,0.6464,0.6245,0.6238,0.6238,0.6238,0.6238,0.6238,0.6238,0.6238,0.6218,0.617,0.5879,0.5899,0.6122,0.0,0.0,0.0,0.0,0.0,0.0,0.0,0.0,0.0,0.0,0.0,0.0,0.0,0.0,0.0,0.0,0.0,0.0,0.0,0.0,0.0,0.0,0.0,0.0,0.0,0.0,0.0,0.0,0.0,0.0,0.0,0.0,0.0,0.0,0.0,0.0,0.0,0.0,0.0,0.0,0.0,0.755,0.7733,0.0,0.0,0.0,0.0,0.0,0.0,0.0,0.0,0.0,0.0,0.0,0.0,0.0,0.926,0.926,0.9388,0.9469,0.9496,0.9589,0.9656,0.9677,0.9677,0.9677,0.967,0.9589,0.0,0.8798,0.852,0.0,0.0,0.0,0.0,0.0,0.0,0.0,0.0,0.0,0.0,0.0,0.0,0.0,0.0,0.0,0.0,0.0,0.0,0.0,0.0,0.0,0.5933,0.6165,0.6402,0.6477,0.6552,0.662,0.662,0.662,0.662,0.6668,0.6641,0.6532,0.6532,0.6573,0.6634,0.6715,0.6756,0.6756,0.6756,0.6803,0.6899,0.6654,0.6444,0.6286,0.6088,0.0,0.0,0.0,0.0,0.0,0.0,0.0,0.0,0.0,0.0,0.0,0.0,0.0,0.0,0.0,0.0,0.0,0.0,0.0,0.0,0.0,0.0,0.0,0.0,0.0,0.0,0.0,0.0,0.0,0.0,0.0,0.0,0.0,0.0,0.0,0.0,0.0,0.0,0.0,0.7692,0.8022,0.8065,0.8214,0.8255,0.0,0.0,0.0,0.0,0.0,0.0,0.0,0.0,0.0,0.943,0.9551,0.9673,0.9724,0.991,0.9985,0.9985,1.0046,1.008,1.008,1.008,1.008,1.008,1.008,0.993,0.9659,0.9273,0.9062,0.8988,0.0,0.0,0.0,0.0,0.8419,0.8439,0.0,0.0,0.0,0.0,0.0,0.0,0.0,0.0,0.0,0.0,0.0,0.0,0.5906,0.6144,0.6375,0.6532,0.6634,0.6715,0.6756,0.6756,0.6756,0.6756,0.6797,0.6776,0.6702,0.6776,0.687,0.7019,0.7161,0.7235,0.7235,0.7235,0.7319,0.7444,0.7283,0.6993,0.6579,0.6463,0.6239,0.5949,0.0,0.0,0.0,0.0,0.0,0.0,0.0,0.0,0.0,0.0,0.0,0.0,0.0,0.0,0.0,0.0,0.0,0.0,0.0,0.0,0.0,0.0,0.0,0.0,0.0,0.0,0.0,0.0,0.0,0.0,0.0,0.0,0.0,0.0,0.0,0.0,0.0,0.816,0.8438,0.8438,0.8737,0.8825,0.0,0.0,0.0,0.0,0.0,0.0,0.9635,0.968,0.9795,0.992,1.0086,1.0222,1.0299,1.0453,1.054,1.054,1.0466,1.0453,1.0446,1.0412,1.0392,1.0392,1.0392,1.0392,1.0358,0.991,0.9652,0.9537,0.9376,0.9205,0.9082,0.9082,0.9082,0.9102,0.0,0.0,0.0,0.0,0.0,0.0,0.0,0.0,0.0,0.0,0.0,0.5913,0.6245,0.6293,0.6396,0.6661,0.6695,0.6763,0.6884,0.6897,0.6897,0.6897,0.7004,0.6965,0.6709,0.6951,0.7175,0.7369,0.7502,0.7577,0.7577,0.7577,0.7584,0.759,0.7584,0.7482,0.7308,0.6858,0.6607,0.643,0.6093,0.0,0.0,0.0,0.0,0.0,0.0,0.0,0.0,0.0,0.0,0.0,0.0,0.0,0.0,0.0,0.0,0.0,0.0,0.0,0.0,0.0,0.0,0.0,0.0,0.0,0.0,0.0,0.0,0.0,0.0,0.0,0.0,0.0,0.0,0.0,0.0,0.0,0.0,0.8879,0.9264,0.0,0.0,0.0,0.0,0.9564,0.9707,0.9917,1.0254,1.05,1.0691,1.084,1.1023,1.1132,1.1138,1.1152,1.1152,1.1152,1.0948,1.088,1.0874,1.0732,1.0664,1.0664,1.0664,1.0664,1.063,1.0177,0.9963,0.9954,0.967,0.9585,0.9578,0.9578,0.9578,0.9598,0.0,0.0,0.0,0.4695,0.4769,0.4875,0.5002,0.5246,0.5433,0.5511,0.5872,0.6158,0.6286,0.6539,0.6736,0.6816,0.6911,0.6985,0.7018,0.7018,0.7087,0.721,0.7265,0.7285,0.7278,0.7445,0.7574,0.7651,0.7783,0.7858,0.7858,0.7858,0.7858,0.7858,0.7858,0.777,0.7631,0.7301,0.7041,0.6857,0.6559,0.6315,0.0,0.0,0.0,0.0,0.0,0.0,0.0,0.0,0.0,0.0,0.0,0.0,0.0,0.0,0.0,0.0,0.0,0.0,0.0,0.0,0.0,0.0,0.0,0.0,0.0,0.0,0.0,0.0,0.0,0.0,0.0,0.0,0.0,0.0,0.0,0.0,0.0,0.9345,0.965,0.0,0.9605,0.9808,1.0059,1.0304,1.0427,1.0636,1.0873,1.0982,1.1029,1.1084,1.1172,1.12,1.12,1.12,1.12,1.12,1.1145,1.1084,1.1084,1.1029,1.1002,1.1002,1.1002,1.0955,1.0819,1.0664,1.0481,1.0324,1.0215,1.012,1.0039,1.0039,1.0039,1.0053,0.4674,0.4708,0.0,0.4823,0.4909,0.5038,0.5241,0.5413,0.56,0.5811,0.6137,0.6409,0.6498,0.6728,0.6945,0.7068,0.7093,0.7141,0.7195,0.7195,0.7265,0.7389,0.7444,0.7516,0.7672,0.7767,0.781,0.7864,0.7966,0.7988,0.7988,0.7988,0.7988,0.7988,0.7988,0.7959,0.7851,0.7678,0.7448,0.7181,0.7007,0.6797,0.6552,0.0,0.0,0.0,0.0,0.0,0.0,0.0,0.0,0.0,0.0,0.0,0.0,0.0,0.0,0.0,0.0,0.0,0.0,0.0,0.0,0.0,0.0,0.0,0.0,0.0,0.0,0.0,0.0,0.0,0.0,0.0,0.0,0.0,0.0,0.949,0.9836,0.9836,1.0181,1.0312,1.0109,1.0446,1.0738,1.0934,1.1097,1.1252,1.1382,1.1472,1.1499,1.1499,1.1499,1.1499,1.1499,1.1499,1.1472,1.1389,1.1376,1.1322,1.1274,1.122,1.12,1.12,1.12,1.1111,1.0988,1.0988,1.09,1.0711,1.0609,1.0514,1.0426,1.0426,1.0426,1.0426,0.4674,0.4715,0.4796,0.5049,0.511,0.5227,0.5542,0.5718,0.5915,0.6259,0.6429,0.6614,0.6884,0.6918,0.7039,0.7376,0.7222,0.7195,0.7389,0.7403,0.7403,0.741,0.7529,0.7678,0.7814,0.7821,0.7864,0.7988,0.7988,0.7988,0.7988,0.7988,0.7988,0.7988,0.7988,0.7988,0.7988,0.7988,0.7763,0.7416,0.741,0.7292,0.7092,0.0,0.0,0.0,0.0,0.0,0.0,0.0,0.0,0.0,0.0,0.0,0.0,0.0,0.0,0.0,0.0,0.0,0.0,0.0,0.0,0.0,0.0,0.0,0.0,0.0,0.0,0.0,0.0,0.0,0.0,0.0,0.0,0.0,0.9632,1.0012,1.0329,1.0349,1.0853,1.1091,1.0785,1.1151,1.1409,1.1409,1.1674,1.18,1.18,1.1979,1.2098,1.2098,1.2098,1.2098,1.2098,1.2098,1.1986,1.18,1.1665,1.1558,1.1409,1.1295,1.122,1.122,1.122,1.1213,1.1206,1.1206,1.12,1.1166,1.0839,1.0691,1.0691,1.0691,1.0684,1.0684,0.4695,0.4863,0.5018,0.5083,0.5302,0.5494,0.5576,0.5806,0.6037,0.6272,0.6498,0.6749,0.7004,0.7183,0.7348,0.7522,0.7495,0.7489,0.7536,0.7536,0.7584,0.7685,0.781,0.7912,0.7952,0.7952,0.7973,0.7988,0.7988,0.7988,0.7988,0.7988,0.7988,0.7988,0.7988,0.7988,0.7988,0.7988,0.7946,0.7824,0.7733,0.7604,0.7455,0.0,0.0,0.0,0.0,0.0,0.0,0.0,0.0,0.0,0.0,0.0,0.0,0.0,0.0,0.0,0.0,0.0,0.0,0.0,0.0,0.0,0.0,0.0,0.0,0.0,0.0,0.0,0.0,0.0,0.0,0.0,0.9842,1.01,1.01,1.0385,1.0717,1.105,1.1226,1.1382,1.1475,1.1604,1.1755,1.1907,1.1989,1.2036,1.2036,1.2077,1.2098,1.2098,1.2098,1.2098,1.2098,1.2098,1.2077,1.2036,1.1996,1.1955,1.1914,1.1873,1.1755,1.1647,1.1647,1.1525,1.1363,1.1363,1.1295,1.1179,1.0928,1.0853,1.084,1.0725,1.0684,1.0684,0.485,0.4997,0.5137,0.5281,0.5474,0.563,0.5752,0.5976,0.6207,0.6437,0.6702,0.6951,0.7188,0.7342,0.7457,0.7584,0.7543,0.7529,0.7597,0.7658,0.778,0.7997,0.8085,0.8167,0.8196,0.8202,0.8202,0.8202,0.8202,0.8202,0.8202,0.8202,0.8202,0.8202,0.8202,0.8202,0.8196,0.816,0.8133,0.8126,0.7946,0.7831,0.7743,0.7611,0.7502,0.7384,0.7263,0.7238,0.7202,0.7119,0.0,0.0,0.0,0.0,0.0,0.0,0.0,0.0,0.0,0.0,0.0,0.0,0.0,0.0,0.0,0.0,0.0,0.0,0.0,0.0,0.0,0.0,0.0,0.0,1.0317,1.0622,1.0812,1.0989,1.1192,1.1457,1.1592,1.1742,1.1911,1.204,1.2149,1.2275,1.2404,1.2479,1.2479,1.2479,1.2479,1.2479,1.2411,1.2338,1.2338,1.2315,1.2254,1.2193,1.2193,1.2159,1.2098,1.2098,1.205,1.1925,1.1925,1.1796,1.1579,1.1579,1.1491,1.1335,0.0,0.0,0.0,0.0,1.0779,1.0772,0.5085,0.5137,0.5254,0.5562,0.563,0.5732,0.5991,0.6205,0.6416,0.6709,0.6958,0.7188,0.7423,0.7444,0.7505,0.7638,0.7546,0.7532,0.7665,0.7794,0.7991,0.8308,0.8321,0.8376,0.8505,0.8505,0.8505,0.8505,0.8505,0.8505,0.8505,0.8505,0.8505,0.8505,0.8505,0.8505,0.8498,0.8376,0.8321,0.8308,0.8121,0.8047,0.7975,0.7864,0.781,0.7801,0.7566,0.7471,0.745,0.7269,0.0,0.0,0.0,0.0,0.0,0.0,0.0,0.0,0.0,0.0,0.0,0.0,0.0,0.0,0.0,0.0,0.0,0.0,0.0,0.0,0.0,0.0,0.0,0.0,1.0751,1.1137,1.157,1.1687,1.1694,1.1694,1.1938,1.2159,1.2173,1.2386,1.2556,1.2556,1.2846,1.3003,1.3003,1.3003,0.0,0.0,0.0,1.272,1.272,1.2623,1.2488,1.2366,1.2345,1.2271,1.2173,1.2159,1.2139,1.2125,1.2125,1.1999,1.182,1.182,1.1739,1.1613,1.1342,1.1213,1.1179,1.0988,1.0941,1.0914,0.5337,0.543,0.5555,0.5732,0.5842,0.5984,0.6205,0.6355,0.66,0.6979,0.7058,0.7269,0.7685,0.7726,0.7787,0.7918,0.7905,0.7952,0.8158,0.8192,0.8287,0.8457,0.8464,0.8478,0.8505,0.8505,0.8505,0.8505,0.8505,0.8505,0.8505,0.8505,0.8505,0.8505,0.8505,0.8505,0.8505,0.8478,0.8464,0.8464,0.8404,0.8255,0.7988,0.7979,0.7973,0.7966,0.7905,0.7885,0.7878,0.7851,0.7763,0.7661,0.7661,0.758,0.0,0.0,0.0,0.0,0.0,0.0,0.0,0.0,0.0,0.0,0.0,0.0,0.0,0.0,0.0,0.0,0.0,0.0,0.0,1.107,1.1355,1.1606,1.1968,1.2081,1.2162,1.2162,1.2311,1.2467,1.2589,1.2766,1.2914,1.2914,1.2969,1.3003,1.3003,1.3003,1.3003,1.3003,1.2975,1.2955,1.2955,1.2928,1.2901,1.2873,1.2705,0.0,1.2596,1.2474,1.2352,1.2244,1.2244,1.2193,1.2057,1.2057,1.1925,1.1726,1.1463,1.1308,1.1193,1.1166,1.1159,1.1132,0.5671,0.5698,0.5739,0.587,0.6044,0.6212,0.6381,0.658,0.6783,0.6985,0.7208,0.7432,0.7678,0.7706,0.7733,0.779,0.7797,0.795,0.8274,0.8294,0.8396,0.8587,0.8594,0.8689,0.8839,0.8845,0.8886,0.8961,0.8961,0.8961,0.8961,0.8961,0.8961,0.8954,0.8879,0.8845,0.8839,0.8662,0.8594,0.8587,0.8539,0.8391,0.8255,0.818,0.8081,0.7988,0.7988,0.7988,0.7988,0.7988,0.7966,0.7898,0.7898,0.7851,0.7797,0.0,0.0,0.0,0.0,0.0,0.0,0.0,0.0,0.0,0.0,0.0,0.0,0.0,0.0,0.9971,1.0387,0.0,1.1009,1.1525,1.1742,1.1918,1.2179,1.2305,1.2393,1.2393,1.2528,1.2678,1.2834,1.2983,1.3105,1.3105,1.318,1.318,1.318,1.318,1.318,1.318,1.3146,1.3105,1.3105,1.3037,1.3003,1.3003,1.2881,1.2847,1.284,1.2684,1.2576,1.2508,1.2427,1.2311,1.2207,1.2132,1.1972,1.178,1.1631,1.1525,1.1382,1.1307,1.1308,1.1288,0.5998,0.5976,0.5942,0.6072,0.6239,0.6402,0.6552,0.677,0.6931,0.6985,0.7353,0.7611,0.7638,0.7665,0.7685,0.7685,0.7712,0.7896,0.8315,0.8396,0.852,0.8784,0.8825,0.8954,0.922,0.9226,0.9288,0.941,0.941,0.941,0.941,0.941,0.941,0.9403,0.9281,0.9226,0.9206,0.894,0.8825,0.8784,0.8689,0.86,0.8539,0.8423,0.8262,0.8101,0.8101,0.8081,0.8067,0.8088,0.8081,0.8067,0.8094,0.8101,0.8101,0.8101,0.8214,0.0,0.0,0.0,0.0,0.0,0.0,0.0,0.0,0.9673,0.9883,1.0086,1.0344,1.0656,1.1016,1.1314,1.1586,1.1874,1.2067,1.2247,1.2393,1.2522,1.2603,1.263,1.2739,1.2868,1.303,1.3173,1.3268,1.3302,1.3376,1.3458,1.3485,1.3458,1.3444,1.3444,1.3295,1.3254,1.3254,1.3146,1.3091,1.3084,1.3057,1.3043,1.3037,1.284,1.2773,1.2766,1.261,1.2467,1.2318,1.2207,1.2033,1.1881,1.1884,1.1789,1.1604,1.1491,1.1436,1.1416,0.6192,0.6259,0.6293,0.6416,0.6457,0.6566,0.6809,0.6884,0.6999,0.7308,0.7482,0.7645,0.7773,0.7885,0.7966,0.7966,0.8119,0.8294,0.8471,0.8716,0.8933,0.9124,0.926,0.9349,0.9383,0.9383,0.939,0.941,0.941,0.941,0.941,0.941,0.941,0.941,0.939,0.9383,0.9383,0.9349,0.9254,0.9131,0.9139,0.8947,0.8682,0.8669,0.8567,0.8431,0.8431,0.8376,0.8287,0.8417,0.8376,0.8294,0.8417,0.8431,0.8431,0.8431,0.8471,0.8512,0.8621,0.8907,0.9233,0.9618,0.9652,0.9788,0.0,1.0637,1.0711,1.1131,1.1355,1.1489,1.1665,1.1719,1.1888,1.2359,1.244,1.2556,1.2887,1.2941,1.2996,1.3125,1.3112,1.3132,1.3186,1.3288,1.3431,1.3566,1.3551,1.3619,1.3741,1.3632,1.3558,1.3558,1.3458,1.3376,1.3376,1.3363,1.3349,1.3349,1.3214,1.3193,1.3186,1.3037,1.2975,1.2969,1.2773,1.2617,1.2467,1.2325,1.2257,1.2223,1.2125,1.1945,1.1753,1.1647,1.1592,1.1572,0.6238,0.63,0.6375,0.6586,0.6627,0.6675,0.6877,0.6957,0.7073,0.7195,0.7373,0.7546,0.7672,0.7797,0.7885,0.7885,0.802,0.8275,0.8594,0.8791,0.9014,0.9301,0.9376,0.9422,0.951,0.9517,0.9557,0.9639,0.9639,0.9639,0.9639,0.9639,0.9639,0.9632,0.9551,0.9517,0.951,0.9422,0.9376,0.9315,0.9315,0.9186,0.8995,0.8995,0.8845,0.8594,0.8444,0.8349,0.0,0.8362,0.8349,0.8321,0.8464,0.8451,0.8403,0.8485,0.8608,0.8831,0.9325,0.9548,0.9761,1.012,1.0272,1.0475,1.0968,1.1158,1.1286,1.1592,1.1769,1.1925,1.2074,1.2169,1.2311,1.2589,1.2712,1.2853,1.2982,1.3071,1.3118,1.3091,1.32,1.3342,1.3431,1.3498,1.3551,1.37,1.3707,1.3734,1.3795,1.3741,1.3707,1.3707,1.3646,1.3612,1.3612,1.3612,1.3572,1.3532,1.3471,1.339,1.3302,1.3193,1.299,1.282,1.2759,1.2605,1.2494,1.244,1.2366,1.2284,1.2261,1.2139,1.1945,1.1796,1.1651,1.1577,0.0,0.63,0.6381,0.6614,0.6675,0.6763,0.6938,0.7031,0.7098,0.7098,0.7312,0.7532,0.7699,0.779,0.7851,0.7851,0.7993,0.8236,0.8621,0.8866,0.911,0.9396,0.9456,0.9551,0.9666,0.9666,0.971,0.9852,0.9852,0.9873,0.9951,0.9951,0.9951,0.9944,0.9765,0.9704,0.969,0.9564,0.9483,0.9442,0.9442,0.9356,0.9207,0.9207,0.8995,0.8682,0.8472,0.8362,0.8301,0.8342,0.8328,0.8321,0.8464,0.8464,0.8451,0.8641,0.8913,0.9271,0.9812,1.0042,1.0204,1.0493,1.0785,1.1056,1.1246,1.1491,1.1692,1.1881,1.2081,1.2254,1.2325,1.2467,1.2617,1.2773,1.2922,1.3071,1.3118,1.3173,1.3193,1.3132,1.3234,1.3417,1.3565,1.3585,1.366,1.3892,1.3862,1.3876,1.3923,1.3883,1.3862,1.3862,1.3822,1.3795,1.3795,1.3795,1.3747,1.3646,1.3605,1.3531,1.3458,1.3308,1.3098,1.2854,1.2854,1.2745,1.2562,1.2562,1.2481,1.2345,1.2345,1.2257,1.2145,1.1999,1.1837,1.1681,0.0,0.63,0.6347,0.6471,0.662,0.6797,0.7045,0.7092,0.7098,0.7098,0.7377,0.7706,0.7966,0.7982,0.7982,0.7982,0.8174,0.8355,0.8505,0.8927,0.9247,0.9403,0.9652,0.9778,0.9785,0.9785,0.9859,0.9977,0.9977,1.0089,1.0263,1.0263,1.0263,1.0288,1.0076,0.997,0.9963,0.9839,0.9727,0.9605,0.9605,0.9422,0.9207,0.9207,0.8995,0.871,0.8703,0.8513,0.8315,0.8457,0.841,0.8321,0.8464,0.8581,0.8757,0.9077,0.9478,0.9771,0.9792,1.0148,1.0514,1.0677,1.0934,1.1268,1.1538,1.1685,1.1874,1.2216,1.2386,1.2488,1.2494,1.2617,1.2773,1.2969,1.3111,1.3261,1.337,1.3261,1.3268,1.337,1.3261,1.3295,1.3558,1.3585,1.3749,1.4084,1.4105,1.4129,1.4278,1.4143,1.4105,1.4105,1.3919,1.3795,1.3795,1.3795,1.3795,1.3788,1.3653,1.3585,1.3572,1.3464,1.3308,1.32,1.32,1.2996,1.2686,1.2686,1.2591,1.2494,1.2494,1.2406,1.2284,1.2277,1.2088,1.1786,0.0,0.0,0.6498,0.6729,0.6796,0.6897,0.7065,0.7098,0.7154,0.7278,0.7556,0.0,0.0,0.0,0.0,0.0,0.818,0.8403,0.8615,0.8872,0.9164,0.9517,0.9625,0.9727,0.9792,0.9893,0.9967,0.9984,1.0123,1.0229,1.0315,1.0315,1.0315,1.0308,1.0222,1.0116,0.9984,0.9961,0.9913,0.9859,0.9758,0.9632,0.9456,0.9456,0.9083,0.8574,0.0,0.852,0.8301,0.8349,0.8335,0.8342,0.856,0.8601,0.8676,0.9279,0.9632,0.99,1.04,1.0569,1.0724,1.1077,1.1314,1.1545,1.1843,1.2026,1.2162,1.2271,1.2332,1.2332,1.2268,1.2413,1.263,1.2786,1.3017,1.3268,1.3376,1.3444,1.3417,1.3268,1.3383,1.3478,1.3478,1.3566,1.3756,1.4048,1.4119,1.4136,1.4292,1.4251,1.4224,1.4224,1.417,1.4143,1.4143,1.4143,1.4095,1.3994,1.3743,1.3585,1.3585,1.3471,1.3315,1.3214,1.3214,1.3105,1.2874,1.2773,1.2659,1.2605,1.2542,1.2474,1.2433,1.2433,1.2305,1.2121,0.0,0.0,0.0,0.687,0.6951,0.0,0.0,0.0,0.0,0.0,0.0,0.0,0.0,0.0,0.0,0.0,0.0,0.8289,0.854,0.8696,0.8926,0.9325,0.9422,0.9517,0.9659,0.9731,0.9832,0.994,1.0066,1.0175,1.0315,1.0315,1.0315,1.0308,1.0222,1.0109,0.9984,0.9961,0.994,0.9927,0.9771,0.9659,0.9523,0.9469,0.9083,0.0,0.8676,0.8554,0.8355,0.8221,0.8247,0.8342,0.8554,0.8784,0.9055,0.9544,0.9873,1.0218,1.0704,1.084,1.0975,1.1375,1.1586,1.1775,1.2111,1.2213,1.2223,1.2277,1.2203,1.2115,1.2104,1.2254,1.2427,1.2645,1.2976,1.3247,1.3451,1.3519,1.3512,1.3424,1.3492,1.3553,1.3559,1.3605,1.3804,1.4098,1.4122,1.4197,1.4292,1.4299,1.4299,1.4299,1.4299,1.4299,1.4299,1.4299,1.4224,1.4112,1.3824,1.3639,1.3585,1.3471,1.3349,1.3254,1.3254,1.3214,1.3071,1.2929,1.2827,1.2679,1.2623,1.2549,1.2501,1.2501,1.244,1.2345,0.0,0.0,0.0,0.0,0.0,0.0,0.0,0.0,0.0,0.0,0.0,0.0,0.0,0.0,0.0,0.0,0.0,0.0,0.8287,0.8423,0.8608,0.8885,0.9062,0.924,0.9396,0.9417,0.953,0.9778,0.9785,0.9971,1.0256,1.0256,1.0256,1.0281,1.0069,0.997,0.9988,0.9839,0.9778,0.9765,0.9652,0.951,0.9396,0.9247,0.9002,0.871,0.8716,0.8621,0.8438,0.8142,0.8187,0.8376,0.8512,0.913,0.9805,0.9819,1.0263,1.0691,1.0725,1.0968,1.1295,1.1565,1.1712,1.1925,1.2216,1.2207,1.2139,1.223,1.202,1.185,1.203,1.207,1.2234,1.2598,1.2969,1.3281,1.3545,1.3519,1.3539,1.3768,1.3558,1.3539,1.3774,1.3802,1.3869,1.4105,1.4204,1.4292,1.4299,1.4299,1.4299,1.4299,1.4299,1.4299,1.4299,1.4299,1.4224,1.4125,1.3926,1.3734,1.3592,1.3485,1.341,1.3403,1.3403,1.3315,1.3227,1.3214,1.3003,1.2713,1.2706,1.2651,1.2515,1.2515,1.2508,1.2481,0.0,0.0,0.0,0.0,0.0,0.0,0.0,0.0,0.0,0.0,0.0,0.0,0.0,0.0,0.0,0.0,0.0,0.0,0.8287,0.8328,0.8485,0.873,0.8885,0.9062,0.9233,0.9435,0.9591,0.9666,0.9737,0.9832,0.9937,0.9937,0.9937,0.9937,0.9866,0.9792,0.969,0.968,0.9666,0.9652,0.9503,0.9444,0.9403,0.9369,0.9069,0.8723,0.8811,0.871,0.8512,0.8526,0.8791,0.9131,0.9165,0.9537,1.0001,1.0256,1.0514,1.0786,1.1232,1.1443,1.1572,1.1877,1.206,1.2162,1.2166,1.2125,1.205,1.183,1.164,1.1484,1.1444,1.1667,1.1999,1.2345,1.2834,1.3281,1.3545,1.3783,1.3885,1.3802,1.3878,1.3885,1.3802,1.3946,1.4027,1.4112,1.4109,1.4177,1.4292,1.4299,1.4299,1.4299,1.4299,1.4299,1.4299,1.4299,1.4278,1.4238,1.4089,1.3933,1.3741,1.3592,1.3505,1.3403,1.3403,1.3376,1.3336,1.322,1.3166,1.3051,1.2942,1.2807,1.2632,1.2632,1.2603,1.2494,0.0,0.0,0.0,0.0,0.0,0.0,0.0,0.0,0.0,0.0,0.0,0.0,0.0,0.0,0.0,0.0,0.0,0.0,0.0,0.8167,0.8275,0.8506,0.8601,0.871,0.8879,0.9157,0.9251,0.9211,0.949,0.9591,0.953,0.9598,0.9625,0.9625,0.9625,0.9585,0.951,0.951,0.951,0.0,0.0,0.9308,0.9301,0.9211,0.9,0.8791,0.8879,0.8926,0.9001,0.915,0.9367,0.9598,0.9764,1.0039,1.0373,1.0697,1.0941,1.1164,1.157,1.1762,1.187,1.2139,1.2213,1.2207,1.2118,1.1996,1.1803,1.1565,1.1348,1.1192,1.12,1.1423,1.1782,1.2216,1.2826,1.3302,1.3626,1.3926,1.4061,1.4041,1.4061,1.4061,1.3998,1.4122,1.417,1.417,1.417,1.4211,1.4292,1.4299,1.4299,1.4299,1.4299,1.4299,1.4299,1.4299,1.4299,1.4299,1.4143,1.4027,1.3933,1.368,1.3538,1.3498,1.3431,1.3403,1.3397,1.3308,1.3234,1.3207,1.3125,1.2963,1.282,1.2713,1.2638,1.2589,0.0,0.0,0.0,0.0,0.0,0.0,0.0,0.0,0.0,0.7794,0.7918,0.7988,0.7988,0.7988,0.0,0.0,0.0,0.0,0.0,0.0,0.8074,0.826,0.8301,0.8376,0.8478,0.8723,0.8804,0.8682,0.9069,0.922,0.9125,0.9226,0.9288,0.9288,0.9288,0.9288,0.9288,0.9288,0.9301,0.9308,0.9179,0.9138,0.9138,0.0,0.8926,0.894,0.896,0.9244,0.9659,0.9771,0.9859,0.9954,1.0256,1.0541,1.0839,1.1172,1.1409,1.1624,1.1807,1.1993,1.2159,1.2257,1.2213,1.2091,1.205,1.1769,1.1518,1.1362,1.1076,1.0921,1.1118,1.1281,1.1558,1.2162,1.2778,1.3281,1.3727,1.3973,1.4173,1.4285,1.4183,1.4156,1.4285,1.4299,1.4299,1.4299,1.4299,1.4299,1.4299,1.4299,1.4299,1.4299,1.4299,1.4299,1.4299,1.4299,1.4299,1.4299,1.4163,1.4082,1.4034,1.3777,1.3592,1.3551,1.3458,1.3403,1.3403,1.3403,1.3322,1.3241,1.3241,1.3159,1.3016,1.284,1.2726,1.2672,0.0,0.0,0.0,0.0,0.0,0.0,0.0,0.0,0.0,0.0,0.7918,0.7988,0.7988,0.7988,0.0,0.0,0.0,0.0,0.0,0.0,0.0,0.8054,0.8316,0.843,0.8335,0.8601,0.8676,0.852,0.8628,0.8648,0.8628,0.8655,0.8662,0.8662,0.8662,0.8662,0.8662,0.8662,0.871,0.8825,0.8798,0.8866,0.8946,0.8919,0.0,0.0,0.9259,0.951,0.9778,0.9927,1.0224,1.0542,1.0596,1.0846,1.1179,1.145,1.1579,1.1708,1.2101,1.223,1.2257,1.2284,1.2213,1.2036,1.1755,1.1457,1.1234,1.1022,1.0853,1.0732,1.0792,1.1016,1.1431,1.2043,1.2501,1.301,1.37,1.3973,1.4173,1.4285,1.4278,1.4272,1.4299,1.4299,1.4299,1.4299,1.4299,1.4299,1.4299,1.4299,1.4299,1.4299,1.4299,1.4299,1.4299,1.4299,1.4299,1.4299,1.4272,1.4129,1.3835,1.3781,1.3632,1.3437,1.341,1.3403,1.3403,1.3403,1.3383,1.3363,1.3363,1.3268,1.3173,1.3146,1.2942,1.2686,0.0,0.0,0.0,0.0,0.0,0.0,0.0,0.7611,0.7753,0.7885,0.7966,0.7988,0.7988,0.7988,0.7988,0.0,0.0,0.0,0.0,0.0,0.0,0.816,0.8321,0.8362,0.8301,0.8635,0.8716,0.8505,0.0,0.8736,0.8512,0.856,0.856,0.8505,0.8505,0.8505,0.8505,0.8505,0.8567,0.8716,0.877,0.892,0.9055,0.9137,0.0,0.0,0.9442,0.9639,0.9812,0.9967,1.0312,1.0698,1.0779,1.0989,1.1274,1.1619,1.1789,1.1932,1.2298,1.24,1.2379,1.2311,1.2115,1.1864,1.1565,1.1267,1.1009,1.0826,1.0738,1.0684,1.0684,1.0962,1.1342,1.1762,1.2142,1.2671,1.3498,1.3675,1.3865,1.4251,1.4299,1.4299,1.4299,1.4299,1.4299,1.4299,1.4299,1.4299,1.4299,1.4299,1.4299,1.4299,1.4299,1.4299,1.4299,1.4299,1.4299,1.4299,1.4299,1.4224,1.4031,1.3869,1.372,1.362,1.3464,1.3403,1.3403,1.3403,1.3403,1.3403,1.3403,1.3356,1.3281,1.3241,1.3085,1.2942,0.0,0.0,0.0,0.0,0.0,0.0,0.7556,0.7624,0.774,0.7979,0.7988,0.7988,0.7988,0.8047,0.8067,0.0,0.0,0.0,0.0,0.0,0.0,0.0,0.8355,0.8376,0.8342,0.0,0.0,0.8533,0.8879,0.0,0.0,0.0,0.0,0.0,0.8478,0.8464,0.8464,0.8464,0.8526,0.0,0.0,0.9022,0.9228,0.0,0.0,0.0,0.0,0.9727,0.9812,0.9967,1.0251,1.0569,1.0725,1.0995,1.1322,1.1674,1.1918,1.2159,1.2386,1.2481,1.2461,1.2284,1.2013,1.1708,1.1409,1.1111,1.0833,1.0711,1.0684,1.0684,1.0684,1.0914,1.1179,1.1518,1.1816,1.2363,1.3227,1.341,1.3661,1.4231,1.4299,1.4299,1.4299,1.4299,1.4299,1.4299,1.4299,1.4299,1.4299,1.4299,1.4299,1.4299,1.4299,1.4299,1.4299,1.4299,1.4299,1.4299,1.4299,1.4285,1.4245,1.3923,1.3781,1.3741,1.3512,1.3403,1.3403,1.3403,1.3403,1.3403,1.3403,1.3403,1.339,1.3268,1.32,1.3173,0.0,0.0,0.0,0.0,0.0,0.0,0.757,0.7706,0.7824,0.7993,0.7988,0.7988,0.7988,0.8167,0.8274,0.0,0.0,0.0,0.0,0.0,0.0,0.0,0.0,0.0,0.0,0.0,0.0,0.8689,0.8594,0.0,0.0,0.0,0.0,0.0,0.0,0.8315,0.8315,0.8315,0.0,0.0,0.0,0.0,0.0,0.0,0.0,0.0,0.0,0.9778,0.9812,0.9967,1.0017,1.0109,1.029,1.0812,1.1402,1.1586,1.1837,1.2139,1.2264,1.2406,1.2433,1.2193,1.1857,1.1558,1.1288,1.0955,1.0704,1.0691,1.0684,1.0684,1.0684,1.0744,1.09,1.1341,1.166,1.2169,1.3105,1.3431,1.3783,1.4245,1.4299,1.4299,1.4299,1.4299,1.4299,1.4299,1.4299,1.4299,1.4299,1.4299,1.4299,1.4299,1.4299,1.4299,1.4299,1.4299,1.4299,1.4299,1.4299,1.4231,1.4132,1.3919,1.3727,1.3599,1.3471,1.3403,1.3403,1.3403,1.3403,1.3403,1.3403,1.3403,1.3397,1.3383,1.3295,1.3193,0.0,0.0,0.0,0.0,0.0,0.0,0.7577,0.7719,0.7844,0.7968,0.7988,0.8047,0.8167,0.826,0.826,0.814,0.0,0.0,0.0,0.0,0.0,0.0,0.0,0.0,0.0,0.0,0.9002,0.9002,0.9036,0.0,0.0,0.0,0.0,0.0,0.0,0.8342,0.8417,0.8335,0.0,0.0,0.0,0.0,0.0,0.0,0.0,0.0,0.0,0.0,0.9798,0.9859,0.994,0.9997,1.0089,1.0466,1.0914,1.1246,1.1619,1.1979,1.2223,1.2393,1.2433,1.2173,1.1837,1.1538,1.1268,1.0934,1.0684,1.0684,1.0684,1.0684,1.0684,1.0684,1.0772,1.1049,1.111,1.1477,1.2417,1.2649,1.299,1.3804,1.3973,1.4095,1.4285,1.4299,1.4299,1.4299,1.4299,1.4299,1.4299,1.4299,1.4299,1.4299,1.4299,1.4299,1.4299,1.4299,1.4299,1.4299,1.4299,1.4272,1.4204,1.391,1.3768,1.37,1.3505,1.3403,1.3403,1.3403,1.3403,1.3403,1.3403,1.3403,1.3403,1.3403,1.3363,1.3275,0.0,0.0,0.0,0.0,0.0,0.7444,0.7577,0.7719,0.7844,0.7968,0.7988,0.8054,0.8187,0.8267,0.8253,0.8094,0.8208,0.0,0.0,0.0,0.0,0.0,0.0,0.0,0.0,0.0,0.9158,0.9247,0.9315,0.9252,0.0,0.0,0.8886,0.8702,0.0,0.0,0.0,0.0,0.0,0.0,0.0,0.0,0.0,0.0,0.0,0.0,0.0,0.0,0.0,0.0,0.0,0.9954,0.9954,1.0123,1.0446,1.09,1.1348,1.1755,1.202,1.223,1.2311,1.2054,1.1769,1.1484,1.1254,1.0934,1.0684,1.0684,1.0684,1.0684,1.0684,1.0684,1.0725,1.0833,1.0867,1.1185,1.1989,1.2213,1.2583,1.3458,1.3605,1.3831,1.4136,1.4245,1.4299,1.4299,1.4299,1.4299,1.4299,1.4299,1.4299,1.4299,1.4299,1.4299,1.4299,1.4299,1.4299,1.4299,1.4299,1.4299,1.4292,1.3937,1.3795,1.3781,1.3532,1.3403,1.3403,1.3403,1.3403,1.3403,1.3403,1.3403,1.3403,1.3403,1.3403,1.3363,0.0,0.0,0.0,0.0,0.0,0.0,0.7577,0.7719,0.7844,0.7968,0.7988,0.7988,0.7988,0.818,0.8294,0.8294,0.8294,0.0,0.0,0.0,0.0,0.0,0.0,0.0,0.0,0.0,0.9054,0.941,0.9254,0.9335,0.9598,0.9322,0.9207,0.9187,0.0,0.0,0.0,0.0,0.0,0.0,0.0,0.0,0.9792,0.0,0.0,0.0,0.0,0.0,0.0,0.0,0.0,0.0,0.0,0.99,1.0109,1.0562,1.1043,1.143,1.1586,1.1843,1.2064,1.1834,1.1613,1.1355,1.1234,1.0934,1.0684,1.0684,1.0684,1.0684,1.0684,1.0684,1.0684,1.0691,1.1097,1.1545,1.2036,1.244,1.2855,1.3349,1.3403,1.3519,1.3774,1.4122,1.4299,1.4299,1.4299,1.4299,1.4299,1.4299,1.4299,1.4299,1.4299,1.4299,1.4299,1.4299,1.4299,1.4299,1.4299,1.4299,1.4292,1.3937,1.3795,1.3781,1.3532,1.3403,1.3403,1.3403,1.3403,1.3403,1.3403,1.3403,1.3403,1.3403,1.3403,1.3376,0.0,0.0,0.0,0.0,0.0,0.0,0.0,0.7783,0.7959,0.7982,0.7988,0.7988,0.7988,0.818,0.8294,0.8294,0.8383,0.0,0.0,0.0,0.0,0.0,0.0,0.0,0.0,0.9035,0.9158,0.9254,0.9417,0.9462,0.9449,0.9383,0.9335,0.9322,0.8886,0.8825,0.0,0.0,0.0,0.0,0.951,0.9693,0.9792,0.0,0.0,0.0,0.0,0.0,0.0,0.0,0.0,0.0,0.0,0.0,0.0,1.0157,1.0623,1.1083,1.1267,1.1531,1.1701,1.1436,1.1336,1.1234,1.105,1.0826,1.0684,1.0684,1.0684,1.0684,1.0684,1.0684,1.0785,1.0989,1.1179,1.1424,1.1843,1.2291,1.2739,1.3193,1.3702,1.4055,1.4143,1.4245,1.4299,1.4299,1.4299,1.4299,1.4299,1.4299,1.4299,1.4299,1.4299,1.4299,1.4299,1.4299,1.4299,1.4299,1.4299,1.4299,1.4292,1.3937,1.3795,1.3781,1.3532,1.3403,1.3403,1.3403,1.3403,1.3403,1.3403,1.3403,1.3403,1.3403,1.3403,1.3376,0.0,0.0,0.0,0.0,0.0,0.0,0.0,0.7858,0.7988,0.7988,0.7988,0.7988,0.7988,0.818,0.8315,0.8369,0.8512,0.0,0.0,0.0,0.0,0.0,0.0,0.0,0.8906,0.9028,0.9158,0.9267,0.9429,0.953,0.9544,0.949,0.9469,0.9456,0.9117,0.9063,0.0,0.0,0.0,0.0,0.9605,0.9707,0.971,0.0,0.0,0.0,0.0,0.0,0.0,0.0,0.0,0.0,0.0,0.0,0.0,0.0,1.0285,1.063,1.0928,1.1179,1.13,1.1234,1.1159,1.1056,1.0934,1.0799,1.0684,1.0684,1.0684,1.0684,1.0684,1.0684,1.0778,1.0968,1.1125,1.1356,1.1732,1.2216,1.2691,1.32,1.377,1.4129,1.4129,1.4231,1.4299,1.4299,1.4299,1.4299,1.4299,1.4299,1.4299,1.4299,1.4299,1.4299,1.4299,1.4299,1.4299,1.4299,1.4299,1.4299,1.4292,1.3937,1.3795,1.3781,1.3532,1.3403,0.0,1.3403,1.3403,1.3403,1.3403,1.3403,1.3403,1.3403,1.3403,1.339,0.0,0.0,0.0,0.0,0.0,0.0,0.0,0.7905,0.7975,0.7988,0.7988,0.7988,0.7988,0.8187,0.8362,0.8498,0.8628,0.0,0.0,0.0,0.0,0.0,0.0,0.0,0.8906,0.8919,0.9061,0.9396,0.9417,0.9537,0.9771,0.9659,0.9605,0.9618,0.9442,0.9322,0.0,0.0,0.0,0.0,0.9707,0.9704,0.0,0.0,0.0,0.0,0.0,0.0,0.0,0.0,0.0,0.0,0.0,0.0,0.0,0.0,0.0,0.0,0.0,1.0752,1.0894,1.1084,1.1002,1.088,1.088,1.0779,0.0,1.0684,1.0684,1.0691,1.0698,1.0691,1.0698,1.0732,1.1009,1.1383,1.1782,1.2264,1.2786,1.3397,1.3666,1.3829,1.3829,1.4129,1.4299,1.4299,1.4299,1.4299,1.4299,1.4299,1.4299,1.4299,1.4299,1.4299,1.4299,1.4299,1.4299,1.4299,1.4299,1.4299,1.4292,1.3937,1.3795,1.3781,1.3532,1.3403,1.3403,1.3403,1.3403,1.3403,1.3403,1.3403,1.3403,1.3403,1.3403,1.3403,0.0,0.0,0.0,0.0,0.0,0.0,0.0,0.0,0.0,0.0,0.7988,0.7988,0.7988,0.8275,0.8471,0.0,0.0,0.0,0.0,0.0,0.0,0.0,0.0,0.0,0.8906,0.9049,0.9165,0.9233,0.9442,0.9591,0.9652,0.9503,0.9557,0.9724,0.9403,0.9281,0.0,0.0,0.0,0.0,0.9717,0.9704,0.0,0.0,0.0,0.0,0.9424,0.941,0.0,0.0,0.0,0.0,0.0,0.0,0.0,0.0,0.9758,0.9893,1.0116,0.0,1.0419,1.0299,1.0453,1.0602,0.0,1.0663,1.0684,1.0684,1.0684,1.0725,1.084,1.0765,1.0833,1.1179,1.1389,1.1626,1.1996,1.2691,1.341,1.4014,1.415,1.419,1.419,1.4258,1.4299,1.4299,1.4299,1.4299,1.4299,1.4299,1.4299,1.4299,1.4299,1.4299,1.4299,1.4299,1.4299,1.4299,1.4299,1.4299,1.4292,1.3937,1.3795,1.3781,1.3532,1.3403,1.3403,1.3403,1.3403,1.3403,1.3403,1.3403,1.3403,1.3403,1.3403,1.3403,0.0,0.0,0.0,0.0,0.0,0.0,0.0,0.0,0.0,0.0,0.7988,0.7988,0.7988,0.8303,0.8505,0.0,0.0,0.0,0.0,0.0,0.0,0.0,0.0,0.8757,0.8906,0.9015,0.9152,0.9288,0.9422,0.9544,0.9605,0.9523,0.9571,0.9713,0.9469,0.9442,0.0,0.0,0.9612,0.9618,0.9737,0.0,0.0,0.0,0.0,0.0,0.9205,0.9178,0.0,0.9178,0.9178,0.9191,0.0,0.0,0.0,0.0,0.9666,0.9724,0.9873,1.0107,1.0276,1.0224,1.0371,1.0507,1.0582,1.0555,1.0534,1.0602,1.0616,1.0643,1.0691,1.0752,1.0874,1.1117,1.1394,1.1843,1.252,1.3166,1.3777,1.4245,1.4299,1.4299,1.4299,1.4299,1.4299,1.4299,1.4299,1.4299,1.4299,1.4299,1.4299,1.4299,1.4299,1.4299,1.4299,1.4299,1.4299,1.4299,1.4299,1.4299,1.4292,1.3937,1.3795,1.3781,1.3532,1.3403,1.3403,1.3403,1.3403,1.3403,1.3403,1.3403,1.3403,1.3403,1.3403,1.3403,0.0,0.0,0.0,0.0,0.0,0.0,0.0,0.0,0.0,0.0,0.0,0.0,0.0,0.0,0.0,0.0,0.0,0.0,0.0,0.0,0.0,0.0,0.8784,0.8777,0.8906,0.8933,0.9096,0.9376,0.9424,0.9483,0.9612,0.9612,0.9612,0.9612,0.9632,0.9707,0.9785,0.9693,0.9639,0.9652,0.9744,0.0,0.0,0.0,0.0,0.0,0.0,0.0,0.0,0.8912,0.8912,0.8933,0.9111,0.0,0.0,0.0,0.0,0.0,0.9744,1.0032,1.0276,1.0392,1.046,1.0527,1.0656,1.0514,1.0385,1.05,1.0527,1.0541,1.0588,1.0806,1.0961,1.1009,1.1394,1.2081,1.3098,1.3566,1.3889,1.4258,1.4299,1.4299,1.4299,1.4299,1.4299,1.4299,1.4299,1.4299,1.4299,1.4299,1.4299,1.4299,1.4299,1.4299,1.4299,1.4299,1.4299,1.4299,1.4299,1.4299,1.4292,1.3937,1.3795,1.3781,1.3532,1.3403,1.3403,1.3403,1.3403,1.3403,1.3403,1.3403,1.3403,1.3403,1.3403,1.3403,0.0,0.0,0.0,0.0,0.0,0.0,0.0,0.0,0.0,0.0,0.0,0.0,0.0,0.0,0.0,0.0,0.0,0.0,0.0,0.0,0.0,0.8912,0.8885,0.8885,0.8912,0.9055,0.9172,0.9248,0.9449,0.9585,0.9612,0.9612,0.9612,0.9612,0.9704,0.9771,0.9792,0.9765,0.9758,0.9758,0.9785,0.0,0.0,0.0,0.0,0.0,0.0,0.0,0.0,0.8912,0.8912,0.8912,0.894,0.0,0.0,0.0,0.0,0.0,0.9747,0.992,1.0062,1.0082,1.0304,1.05,1.0521,1.0595,1.0623,1.0677,1.0683,1.0758,1.105,1.1132,1.1212,1.1477,1.1891,1.2508,1.3431,1.3578,1.3817,1.4251,1.4299,1.4299,1.4299,1.4299,1.4299,1.4299,1.4299,1.4299,1.4299,1.4299,1.4299,1.4299,1.4299,1.4299,1.4299,1.4299,1.4299,1.4299,1.4299,1.4299,1.4292,1.3937,1.3795,1.3781,1.3532,1.3403,1.3403,1.3403,1.3403,1.3403,1.3403,1.3403,1.3403,1.3403,1.3403,1.3403,0.0,0.0,0.0,0.0,0.0,0.0,0.0,0.0,0.0,0.0,0.0,0.0,0.0,0.0,0.0,0.0,0.0,0.0,0.0,0.0,0.9022,0.8912,0.9015,0.9015,0.8912,0.9001,0.9104,0.9207,0.9403,0.949,0.949,0.9571,0.9612,0.9618,0.9724,0.9792,0.9792,0.9792,0.9792,0.9792,0.0,0.0,0.0,0.0,0.0,0.0,0.0,0.0,0.0,0.0,0.8912,0.8912,0.8912,0.0,0.0,0.0,0.0,0.0,0.9625,0.9785,0.9718,0.8891,0.9621,1.0514,1.0595,1.0548,1.0507,1.0582,1.0595,1.0663,1.088,1.1159,1.1463,1.2006,1.2406,1.2854,1.3424,1.3599,1.3808,1.4143,1.4251,1.4299,1.4299,1.4299,1.4299,1.4299,1.4299,1.4299,1.4299,1.4299,1.4299,1.4299,1.4299,1.4299,1.4299,1.4299,1.4299,1.4299,1.4299,1.4299,1.4292,1.3937,1.3795,1.3781,1.3532,1.3403,1.3403,1.3403,1.3403,1.3403,1.3403,1.3403,1.3403,1.3403,1.3403,1.3403,0.0,0.0,0.0,0.0,0.0,0.0,0.0,0.0,0.0,0.0,0.0,0.0,0.0,0.0,0.0,0.0,0.0,0.0,0.0,0.9083,0.9117,0.8919,0.9104,0.9111,0.8912,0.8946,0.9042,0.9207,0.9369,0.9449,0.949,0.9605,0.9659,0.9666,0.9744,0.9792,0.9792,0.9792,0.9792,0.9792,0.0,0.0,0.0,0.0,0.0,0.0,0.0,0.0,0.0,0.0,0.0,0.0,0.0,0.0,0.0,0.9097,0.9131,0.9206,0.9517,0.9686,0.9416,0.7986,0.8767,0.9785,0.9519,0.9288,0.9311,0.9902,1.002,1.0179,1.0799,1.1301,1.1823,1.2501,1.2873,1.3152,1.341,1.3605,1.3858,1.4048,1.4177,1.4265,1.4299,1.4299,1.4299,1.4299,1.4299,1.4299,1.4299,1.4299,1.4299,1.4299,1.4299,1.4299,1.4299,1.4299,1.4299,1.4299,1.4299,1.4278,1.4238,1.3923,1.3781,1.3734,1.3512,1.3403,1.3403,1.3403,1.3403,1.3403,1.3403,1.3403,1.3403,1.3403,1.3403,1.3403,0.0,0.0,0.0,0.0,0.0,0.0,0.0,0.0,0.0,0.0,0.0,0.0,0.0,0.0,0.0,0.0,0.0,0.0,0.0,0.9022,0.9117,0.8919,0.9104,0.9111,0.8912,0.9097,0.92,0.9207,0.9449,0.9659,0.9758,0.9771,0.9771,0.9778,0.9785,0.9792,0.9792,0.9792,0.9792,0.9792,0.9792,0.0,0.0,0.0,0.0,0.0,0.0,0.0,0.0,0.0,0.0,0.0,0.0,0.0,0.8912,0.8926,0.8926,0.9021,0.949,0.9618,0.9336,0.8096,0.7901,0.7594,0.6119,0.578,0.6302,0.8251,0.8561,0.9095,1.1168,1.1925,1.2417,1.2894,1.3098,1.3261,1.3566,1.3592,1.3749,1.4084,1.4125,1.4143,1.4285,1.4299,1.4299,1.4299,1.4299,1.4299,1.4299,1.4299,1.4299,1.4299,1.4299,1.4299,1.4299,1.4299,1.4299,1.4299,1.4299,1.4224,1.4125,1.3919,1.3727,1.3592,1.3471,1.3403,1.3403,1.3403,1.3403,1.3403,1.3403,1.3403,1.3403,1.3403,1.3403,1.3403,0.0,0.0,0.0,0.0,0.0,0.0,0.0,0.0,0.0,0.0,0.0,0.0,0.0,0.0,0.0,0.0,0.0,0.0,0.8696,0.8906,0.8967,0.8912,0.9104,0.9111,0.8912,0.9111,0.9226,0.9322,0.9503,0.9639,0.9693,0.9751,0.972,0.9557,0.9741,0.972,0.9557,0.9741,0.9737,0.97,0.9758,0.9646,0.0,0.0,0.0,0.0,0.0,0.0,0.0,0.0,0.8912,0.8912,0.8912,0.8912,0.8912,0.8912,0.8912,0.8987,0.9374,0.9537,0.9286,0.8001,0.7736,0.7381,0.576,0.5388,0.5625,0.6414,0.7549,0.9109,1.1316,1.2047,1.2406,1.2759,1.3017,1.3247,1.3458,1.3566,1.3632,1.3783,1.396,1.4139,1.415,1.4245,1.4299,1.4299,1.4299,1.4299,1.4299,1.4299,1.4299,1.4299,1.4299,1.4299,1.4299,1.4299,1.4299,1.4299,1.4204,1.4173,1.4105,1.3817,1.3639,1.3578,1.3464,1.3403,1.3403,1.3403,1.3403,1.3403,1.3403,1.3403,1.3403,1.3403,1.3403,1.3403,0.0,0.0,0.0,0.0,0.0,0.0,0.0,0.0,0.0,0.0,0.0,0.0,0.0,0.0,0.0,0.0,0.0,0.0,0.856,0.8777,0.8892,0.8838,0.9077,0.9138,0.9008,0.9131,0.9254,0.941,0.9578,0.9652,0.9612,0.9707,0.9618,0.9417,0.9591,0.9571,0.9424,0.9598,0.9625,0.9551,0.9693,0.9578,0.0,0.0,0.0,0.0,0.0,0.0,0.0,0.0,0.8912,0.8912,0.8912,0.8912,0.8912,0.8912,0.8973,0.9102,0.9381,0.9598,0.9403,0.8017,0.7755,0.7467,0.5899,0.5023,0.4578,0.4664,0.6774,0.9322,1.1538,1.2182,1.2454,1.2752,1.3051,1.3281,1.339,1.3492,1.3531,1.3578,1.381,1.3953,1.3994,1.4136,1.4231,1.4231,1.4272,1.4299,1.4299,1.4299,1.4299,1.4299,1.4299,1.4299,1.4299,1.4299,1.4278,1.4224,1.4075,1.4,1.3987,1.37,1.3558,1.3511,1.3444,1.3403,1.3403,1.3403,1.3403,1.3403,1.3403,1.3403,1.3403,1.3403,1.3403,1.3403,0.0,0.0,0.0,0.0,0.0,0.0,0.0,0.0,0.0,0.0,0.0,0.0,0.0,0.0,0.0,0.0,0.0,0.0,0.8294,0.8682,0.8838,0.8716,0.9022,0.9207,0.9207,0.9207,0.9254,0.941,0.9673,0.971,0.9605,0.9605,0.9523,0.9403,0.941,0.941,0.9403,0.941,0.941,0.9424,0.9544,0.9422,0.9228,0.0,0.0,0.0,0.0,0.0,0.0,0.0,0.8912,0.8912,0.8912,0.8912,0.8912,0.8912,0.915,0.9415,0.9564,0.9792,0.9643,0.8187,0.7938,0.7651,0.6172,0.4206,0.2826,0.3086,0.6239,0.9607,1.1878,1.2406,1.2603,1.2948,1.3207,1.3397,1.3403,1.3403,1.3458,1.3565,1.3585,1.3639,1.3781,1.398,1.4112,1.4119,1.4211,1.4299,1.4299,1.4299,1.4299,1.4299,1.4299,1.4299,1.4299,1.4299,1.4224,1.4112,1.3912,1.3795,1.3788,1.3646,1.3546,1.3403,1.3403,1.3403,1.3403,1.3403,1.3403,1.3403,1.3403,1.3403,1.3403,1.3403,1.3403,1.3403,0.0,0.0,0.0,0.0,0.0,0.0,0.0,0.0,0.0,0.0,0.0,0.0,0.0,0.0,0.0,0.0,0.0,0.0,0.8287,0.8423,0.854,0.8703,0.8798,0.8893,0.9001,0.9131,0.9254,0.941,0.9469,0.9435,0.9322,0.943,0.9313,0.9048,0.9286,0.9266,0.9054,0.9293,0.9349,0.926,0.9417,0.9362,0.9214,0.0,0.0,0.0,0.0,0.0,0.0,0.0,0.0,0.0,0.8912,0.9054,0.9211,0.8973,0.915,0.9424,0.9435,0.9666,0.9817,0.9723,0.9987,0.9831,0.82,0.6395,0.5514,0.7168,0.8387,0.978,1.1897,1.2406,1.2569,1.2766,1.3044,1.3275,1.3383,1.3403,1.3417,1.3464,1.3524,1.3605,1.3646,1.3781,1.3953,1.4105,1.4159,1.4183,1.4292,1.4299,1.4299,1.4299,1.4299,1.4299,1.4299,1.4299,1.4224,1.4112,1.3912,1.3747,1.3646,1.3539,1.3444,1.3403,1.3403,1.3403,1.3403,1.3403,1.3403,1.3403,1.3403,1.3403,1.3403,1.3403,1.3403,1.3403,0.0,0.0,0.0,0.0,0.0,0.0,0.0,0.0,0.0,0.0,0.4813,0.5895,0.0,0.0,0.0,0.818,0.8067,0.0,0.8174,0.826,0.8403,0.8608,0.8676,0.8757,0.8906,0.9022,0.911,0.9205,0.932,0.9328,0.9214,0.9274,0.9164,0.8919,0.9095,0.9069,0.8831,0.9035,0.9062,0.9015,0.9144,0.915,0.9104,0.0,0.0,0.0,0.0,0.0,0.0,0.0,0.0,0.0,0.8912,0.9034,0.9191,0.913,0.9327,0.9585,0.9737,0.9998,1.0299,1.0609,1.1009,1.1147,1.0316,0.8058,0.6732,0.8934,0.9285,0.9884,1.2055,1.2535,1.2664,1.2874,1.3105,1.3295,1.339,1.3403,1.3403,1.3403,1.3485,1.3539,1.3539,1.3632,1.3754,1.3892,1.4007,1.4159,1.4204,1.4265,1.4299,1.4299,1.4299,1.4299,1.4299,1.4299,1.419,1.398,1.3842,1.3693,1.3539,1.3444,1.3403,1.3403,1.3403,1.3403,1.3403,1.3403,1.3403,1.3403,1.3403,1.3403,1.3403,1.3403,1.3403,1.3403,0.0,0.0,0.0,0.0,0.0,0.0,0.0,0.0,0.0,0.3491,0.3917,0.4518,0.0,0.0,0.0,0.7988,0.7988,0.7988,0.7988,0.8187,0.8362,0.8498,0.8642,0.877,0.8906,0.8912,0.8912,0.8912,0.9211,0.9301,0.9158,0.9158,0.9062,0.8912,0.8899,0.8811,0.871,0.8696,0.8689,0.8703,0.8811,0.8872,0.8885,0.907,0.0,0.0,0.0,0.0,0.0,0.0,0.0,0.0,0.8912,0.8926,0.9,0.9273,0.9571,0.9876,1.0148,1.0555,1.088,1.0921,1.1293,1.1789,1.221,0.9496,0.7403,0.9273,0.9598,1.013,1.2298,1.2693,1.284,1.3152,1.3295,1.3403,1.3403,1.3403,1.3403,1.3403,1.3403,1.3403,1.3403,1.3526,1.3572,1.3585,1.3878,1.4078,1.4048,1.4183,1.4265,1.4278,1.4278,1.4278,1.4278,1.4278,1.4122,1.3781,1.3781,1.3632,1.3403,1.3403,1.3403,1.3403,1.3403,1.3403,1.3403,1.3403,1.3403,1.3403,1.3403,1.3403,1.3403,1.3403,1.3403,1.3403,0.0,0.0,0.0,0.0,0.0,0.0,0.0,0.0,0.058,0.2213,0.3341,0.4518,0.5852,0.721,0.0,0.7988,0.7988,0.7988,0.7988,0.8187,0.8362,0.8498,0.8716,0.8879,0.8912,0.8912,0.8912,0.8912,0.8973,0.8987,0.896,0.896,0.894,0.8906,0.8784,0.8716,0.8703,0.8581,0.8533,0.8533,0.8567,0.8581,0.8581,0.8641,0.8682,0.0,0.0,0.0,0.0,0.0,0.0,0.0,0.8912,0.9068,0.9252,0.9054,0.9379,0.9778,0.9768,1.0161,1.0677,1.1029,1.1633,1.2203,1.2406,1.1792,1.129,1.1753,1.1811,1.1927,1.2458,1.2745,1.2975,1.3037,1.3227,1.3403,1.3403,1.3403,1.3403,1.3403,1.3403,1.3403,1.3403,1.3431,1.3498,1.3578,1.3688,1.3727,1.3842,1.3876,1.3994,1.4159,1.4122,1.4122,1.4122,1.4122,1.3973,1.3632,1.3632,1.358,1.3403,1.3403,1.3403,1.3403,1.3403,1.3403,1.3403,1.3403,1.3403,1.3403,1.3403,1.3403,1.3403,1.3403,1.3403,1.3403,0.0,0.0,0.0,0.0,0.0,0.0,0.0,0.0,0.0713,0.2693,0.3566,0.4518,0.5852,0.721,0.0,0.0,0.7988,0.7988,0.7988,0.8187,0.8396,0.8581,0.8784,0.8912,0.8912,0.8838,0.8838,0.8912,0.8764,0.877,0.8912,0.9008,0.9042,0.9035,0.8858,0.875,0.8696,0.8498,0.841,0.841,0.841,0.8451,0.8505,0.8505,0.8533,0.8601,0.8601,0.0,0.0,0.0,0.0,0.0,0.0,0.0,0.9164,0.9157,0.9422,0.9747,0.989,1.031,1.0853,1.1479,1.1982,1.2325,1.2467,1.2501,1.2501,1.2501,1.2501,1.2522,1.2596,1.2807,1.3023,1.3091,1.3254,1.3403,1.3403,1.3403,1.3403,1.3403,1.3403,1.3403,1.3403,1.3403,1.3437,1.3512,1.3545,1.3619,1.3693,1.3761,1.3835,1.396,1.4034,1.4034,1.396,1.4034,1.3926,1.3585,1.3585,1.3546,1.3403,1.3403,1.3403,1.3403,1.3403,1.3403,1.3403,1.3403,1.3403,1.3403,1.3403,1.3403,1.3403,1.3403,1.3403,1.3403,0.0,0.0,0.0,0.0,0.0,0.0,0.0,0.0,0.0,0.3321,0.3864,0.4518,0.5852,0.721,0.7988,0.0,0.0,0.0,0.7988,0.8187,0.843,0.8696,0.8804,0.8872,0.8872,0.875,0.873,0.8831,0.8608,0.8648,0.8953,0.9104,0.9158,0.92,0.8974,0.8784,0.8655,0.8357,0.826,0.826,0.826,0.8328,0.8404,0.8404,0.8451,0.8471,0.8471,0.854,0.8669,0.8669,0.0,0.0,0.0,0.0,0.8926,0.9225,0.9429,0.9652,1.0025,1.0495,1.109,1.1843,1.2193,1.2325,1.2467,1.2501,1.2501,1.2501,1.2501,1.2542,1.2664,1.284,1.3043,1.3159,1.3288,1.3403,1.3403,1.3403,1.3403,1.3403,1.3403,1.3403,1.3403,1.3403,1.3403,1.3403,1.3519,1.3593,1.3593,1.366,1.3734,1.3761,1.3926,1.3933,1.3761,1.3933,1.3858,1.3593,1.3593,1.3526,1.3403,1.3431,1.3424,1.3403,1.3403,1.3403,1.3403,1.3403,1.3403,1.3403,1.3403,1.3403,1.3403,1.3403,1.3403,1.3403,0.0,0.0,0.0,0.0,0.0,0.0,0.0,0.0,0.0,0.0,0.3291,0.4518,0.5852,0.721,0.7988,0.7988,0.7988,0.7988,0.7988,0.0,0.0,0.8696,0.873,0.8743,0.8743,0.8723,0.8655,0.854,0.8526,0.873,0.9152,0.9015,0.9035,0.92,0.8866,0.8655,0.8492,0.8169,0.8047,0.8047,0.8047,0.8054,0.8074,0.8074,0.818,0.8321,0.8321,0.8417,0.8539,0.8539,0.8526,0.0,0.0,0.0,0.875,0.8919,0.9191,0.9451,0.9512,1.0209,1.1063,1.1671,1.2081,1.2325,1.2467,1.2501,1.2501,1.2501,1.2501,1.2508,1.2528,1.2805,1.3009,1.3023,1.322,1.3403,1.3403,1.3403,1.3403,1.3403,1.3403,1.3403,1.3403,1.3403,1.3403,1.3403,1.3417,1.3431,1.3431,1.3451,1.3519,1.3612,1.3632,1.3639,1.3612,1.3639,1.36,1.3431,1.3431,1.3417,1.3403,1.3539,1.3526,1.3403,1.3403,1.3403,1.3403,1.3403,1.3403,1.3403,1.3403,1.3403,1.3403,1.3403,1.3403,1.3403,0.0,0.0,0.0,0.0,0.0,0.0,0.0,0.0,0.0,0.0,0.0,0.4518,0.5852,0.721,0.7988,0.7988,0.7988,0.8054,0.8167,0.826,0.8389,0.8574,0.8662,0.8669,0.8581,0.8581,0.8547,0.8505,0.8316,0.8594,0.9308,0.9158,0.9301,0.9698,0.9288,0.9029,0.8852,0.8364,0.8094,0.7988,0.7988,0.8169,0.8358,0.8108,0.8209,0.8486,0.8228,0.8235,0.8389,0.8389,0.8444,0.8519,0.856,0.0,0.0,0.0,0.9022,0.9376,0.9798,1.0405,1.1036,1.155,1.1938,1.2241,1.2352,1.2447,1.2501,1.2501,1.2501,1.2501,1.2501,1.2684,1.2861,1.2989,1.318,1.3302,1.339,1.3403,1.3403,1.3403,1.3403,1.3403,1.3403,1.3403,1.3403,1.3403,1.3403,1.3403,1.3403,1.3403,1.3431,1.3498,1.3545,1.3545,1.3505,1.3545,1.3511,1.3403,1.3403,1.3403,1.3403,1.3471,1.3464,1.3403,1.3492,1.3532,1.3519,1.3437,1.3451,1.3519,1.3437,1.3403,1.3403,1.3403,1.3403,1.3403,0.0,0.0,0.0,0.0,0.0,0.0,0.0,0.0,0.0,0.0,0.0,0.4518,0.5852,0.0,0.0,0.0,0.7988,0.8067,0.8208,0.8214,0.8301,0.8451,0.854,0.8547,0.8457,0.8457,0.8437,0.837,0.8121,0.8473,0.941,0.9294,0.9601,1.0233,0.9703,0.9342,0.909,0.8573,0.8282,0.8182,0.8182,0.8385,0.8682,0.8439,0.8561,0.8825,0.8344,0.8282,0.8389,0.8274,0.8282,0.8377,0.8444,0.8506,0.0,0.0,0.0,0.9274,0.9924,1.0373,1.0813,1.1375,1.1728,1.2036,1.2227,1.2345,1.2447,1.2447,1.2474,1.2501,1.2501,1.2623,1.2779,1.2975,1.3118,1.3268,1.3376,1.3403,1.3403,1.3403,1.3403,1.3403,1.3403,1.3403,1.3403,1.3403,1.3403,1.3403,1.3403,1.3403,1.3403,1.3403,1.3512,1.3519,1.3403,1.3512,1.3512,1.3403,1.3403,1.3403,1.3403,1.3444,1.3437,1.341,1.3518,1.3585,1.3578,1.3546,1.3559,1.3578,1.3505,1.3437,1.3403,1.3403,1.3403,1.3403,0.0,0.0,0.0,0.0,0.0,0.0,0.0,0.0,0.0,0.0,0.0,0.4518,0.5852,0.721,0.7988,0.7988,0.7988,0.7995,0.8027,0.8027,0.0,0.0,0.8315,0.0,0.8308,0.8308,0.8208,0.804,0.7995,0.8473,0.941,0.9403,0.9842,1.0656,0.9924,0.9325,0.8899,0.8608,0.8554,0.8676,0.8676,0.8689,0.8757,0.9157,0.9356,0.9315,0.8838,0.8682,0.8621,0.8169,0.8033,0.806,0.826,0.8315,0.8376,0.0,0.0,0.0,0.9517,0.9832,1.0238,1.1002,1.1416,1.1721,1.2043,1.2189,1.2298,1.2298,1.2406,1.2501,1.2501,1.2623,1.2779,1.2975,1.3118,1.3268,1.3376,1.3403,1.3403,1.3403,1.3403,1.3403,1.3403,1.3403,1.3403,1.3403,1.3403,1.3403,1.3403,1.3403,1.3403,1.3403,1.341,1.341,1.3403,1.341,1.341,1.3403,1.3403,1.3403,1.3403,1.3511,1.3539,1.341,1.3518,1.3585,1.3599,1.372,1.37,1.3585,1.3578,1.3532,1.3403,1.3403,1.3403,1.3403,0.0,0.0,0.0,0.0,0.0,0.0,0.0,0.0,0.0,0.0,0.0,0.0,0.0,0.5397,0.6706,0.6706,0.7509,0.7988,0.7988,0.7988,0.0,0.0,0.8303,0.8316,0.8101,0.8309,0.8289,0.7988,0.7988,0.8378,0.9068,0.9068,0.9367,0.9856,0.9686,0.9541,0.9433,0.8771,0.8567,0.871,0.871,0.894,0.9273,0.9115,0.9395,0.9771,0.922,0.8933,0.8804,0.8642,0.8399,0.8201,0.8281,0.8294,0.8355,0.8621,0.8791,0.8987,0.9367,0.968,1.0008,1.0595,1.1063,1.1402,1.1708,1.1965,1.2207,1.2271,1.2332,1.2393,1.2481,1.2549,1.263,1.2786,1.2982,1.3125,1.3234,1.3342,1.3403,1.3403,1.3403,1.3403,1.3403,1.3403,1.3403,1.3403,1.3403,1.3403,1.3403,1.3403,1.3403,1.3403,1.3403,1.3403,1.3403,1.3403,1.3403,1.3403,1.3403,1.3403,1.3403,1.3458,1.3451,1.341,1.3518,1.3585,1.3585,1.358,1.3587,1.3578,1.3519,1.3451,1.3403,1.3403,1.3403,1.3403,0.0,0.0,0.0,0.0,0.0,0.0,0.0,0.0,0.0,0.0,0.0,0.0,0.0,0.0,0.5322,0.5322,0.6556,0.7335,0.7335,0.7764,0.0,0.0,0.8275,0.8316,0.8094,0.8309,0.8316,0.8094,0.804,0.8297,0.8831,0.8831,0.9049,0.941,0.9327,0.9442,0.9632,0.9035,0.8839,0.8872,0.9022,0.9266,0.9537,0.9508,0.9815,1.0165,0.9662,0.9395,0.9257,0.9109,0.8825,0.8486,0.8457,0.8376,0.8335,0.8506,0.8703,0.8885,0.9164,0.9483,0.9856,1.031,1.0717,1.109,1.1396,1.1701,1.1945,1.2047,1.2182,1.2318,1.2413,1.2467,1.2556,1.2665,1.2861,1.305,1.3193,1.3302,1.3403,1.3403,1.3403,1.3403,1.3403,1.3403,1.3403,1.3403,1.3403,1.3403,1.3403,1.3403,1.3403,1.3403,1.3403,1.3403,1.3403,1.3403,1.3403,1.3403,1.3403,1.3403,1.3403,1.3403,1.3403,1.3403,1.3505,1.3538,1.3585,1.3531,1.3607,1.3646,1.3539,1.3478,1.3471,1.3417,1.3403,1.3403,0.0,0.0,0.0,0.0,0.0,0.0,0.0,0.0,0.0,0.0,0.0,0.0,0.0,0.0,0.0,0.3996,0.5227,0.6007,0.6002,0.726,0.7988,0.7988,0.8194,0.8301,0.8294,0.8308,0.8308,0.8294,0.8094,0.8243,0.8696,0.8696,0.8933,0.9369,0.8906,0.8954,0.939,0.9383,0.9308,0.9233,0.9625,0.9639,0.9533,1.0365,1.0616,1.046,1.0136,0.9997,0.9961,0.9551,0.9205,0.8892,0.8737,0.8513,0.8301,0.8308,0.8486,0.8723,0.0,0.0,0.0,1.0186,1.0487,1.0785,1.1118,1.1382,1.157,1.1613,1.1965,1.2271,1.2284,1.24,1.2542,1.2652,1.2854,1.3043,1.3186,1.3295,1.3397,1.3403,1.3403,1.3403,1.3403,1.3403,1.3403,1.3403,1.3403,1.3403,1.3403,1.3403,1.3403,1.3403,1.3403,1.3403,1.3403,1.3403,1.3403,1.3403,1.3403,1.3403,1.3403,1.3403,1.3403,1.3403,1.3403,1.3485,1.3592,1.3727,1.3788,1.3774,1.3632,1.3578,1.3565,1.3458,1.3403,1.3403,0.0,0.0,0.0,0.0,0.0,0.0,0.0,0.0,0.0,0.0,0.0,0.0,0.0541,0.1747,0.2948,0.392,0.5226,0.5992,0.6012,0.726,0.7988,0.7988,0.8289,0.8403,0.8301,0.8479,0.8486,0.8294,0.8253,0.8294,0.8417,0.8417,0.8574,0.8893,0.8764,0.8777,0.8879,0.8696,0.8954,0.9462,0.9237,0.9523,1.0032,1.0059,1.0317,1.0629,1.0439,1.0304,1.0195,1.0104,0.9686,0.9191,0.8825,0.8581,0.8471,0.8554,0.8723,0.8858,0.8899,0.0,0.0,0.0,0.0,0.0,1.0778,1.0961,1.1191,1.1516,1.1685,1.187,1.2125,1.225,1.2366,1.2406,1.2623,1.2847,1.3037,1.3186,1.3275,1.339,1.3403,1.3403,1.3403,1.3403,1.3403,1.3403,1.3403,1.3403,1.3403,1.3403,1.3403,1.3403,1.3403,1.3403,1.3403,1.3403,1.3403,1.3403,1.3403,1.3403,1.3403,1.3403,1.3403,1.3403,1.3403,1.3424,1.3464,1.3505,1.3519,1.3519,1.3478,1.3464,1.3458,1.3417,1.3403,1.3403,0.0,0.0,0.0,0.0,0.0,0.0,0.0,0.0,0.0,0.0,0.0,0.0,0.0,0.0691,0.149,0.2253,0.3555,0.4321,0.4326,0.6102,0.6905,0.6351,0.715,0.7282,0.6609,0.7378,0.7677,0.7464,0.8039,0.826,0.8174,0.8174,0.8269,0.8405,0.8405,0.8465,0.8513,0.8275,0.8587,0.9245,0.9361,0.9646,1.0019,1.0148,1.0371,1.0622,1.0595,1.0534,1.0466,1.0466,1.0066,0.949,0.9035,0.8859,0.877,0.8642,0.8859,0.9068,0.8946,0.9278,0.97,0.97,0.0,0.0,1.0575,1.0711,1.0914,1.1239,1.1401,1.1599,1.1837,1.1999,1.2142,1.2271,1.2433,1.2623,1.2834,1.3044,1.3248,1.3295,1.3363,1.3403,1.3403,1.3403,1.3403,1.3403,1.3403,1.3403,1.3403,1.3403,1.3403,1.3403,1.3403,1.3403,1.3403,1.3403,1.3403,1.3403,1.3403,1.3403,1.3403,1.3403,1.3403,1.3403,1.3403,1.3403,1.3403,1.3403,1.3471,1.358,1.3519,1.3532,1.358,1.3519,1.3458,1.3403,0.0,0.0,0.0,0.0,0.0,0.0,0.0,0.0,0.0,0.0,0.0,0.0,0.0,0.0,0.0,0.0,0.1214,0.2004,0.2004,0.4358,0.524,0.4053,0.5335,0.5479,0.4232,0.5723,0.6459,0.6332,0.7671,0.8214,0.804,0.7995,0.7988,0.7988,0.7988,0.8088,0.8267,0.8128,0.8331,0.8804,0.9635,0.9873,0.9781,1.0426,1.0609,1.0534,1.067,1.0698,1.0711,1.0724,1.0319,0.9822,0.9417,0.9267,0.9179,0.8777,0.9022,0.9395,0.9088,0.9413,0.9832,0.9798,1.0066,0.0,1.0419,1.0588,1.0725,1.086,1.1145,1.1389,1.1538,1.1687,1.1834,1.2149,1.223,1.2372,1.2645,1.2956,1.3173,1.3207,1.3295,1.3383,1.3397,1.3403,1.3403,1.3403,1.3403,1.3403,1.3403,1.3403,1.3403,1.3403,1.3403,1.3403,1.3403,1.3403,1.3403,1.3403,1.3403,1.3403,1.3403,1.3403,1.3403,1.3403,1.3403,1.3403,1.3403,1.3403,1.3553,1.3734,1.3612,1.3646,1.3754,1.3612,1.3532,1.3424,0.0,0.0,0.0,0.0,0.0,0.0,0.0,0.0,0.0,0.0,0.0,0.0,0.0,0.0,0.0,0.0,0.122,0.1999,0.1999,0.3506,0.4259,0.4003,0.4404,0.4477,0.4205,0.5809,0.6594,0.6463,0.7791,0.8396,0.8247,0.8074,0.7988,0.7988,0.7988,0.8033,0.8081,0.8412,0.8676,0.8879,0.9054,0.9625,1.0324,1.0351,1.0493,1.0644,1.0677,1.0765,1.0853,1.0732,1.0561,1.0304,0.9947,0.9758,0.9673,0.9585,0.9704,0.9846,0.967,0.9917,1.0134,0.9852,1.0141,0.0,1.015,1.0407,1.0698,1.0725,1.0874,1.1043,1.1226,1.1375,1.1497,1.1558,1.1907,1.225,1.2632,1.2779,1.2908,1.3186,1.3241,1.3268,1.339,1.3403,1.3403,1.3403,1.3403,1.3403,1.3403,1.3403,1.3403,1.3403,1.3403,1.3403,1.3403,1.3403,1.3403,1.3403,1.3403,1.3403,1.3403,1.3403,1.3403,1.3403,1.3403,1.3403,1.3403,1.3403,1.3437,1.3485,1.3458,1.3539,1.3612,1.3498,1.3505,1.3566,0.0,0.0,0.0,0.0,0.0,0.0,0.0,0.0,0.0,0.0,0.0,0.0,0.0,0.0,0.0,0.0,0.0603,0.1005,0.0996,0.2263,0.2698,0.2045,0.2719,0.3134,0.3212,0.4775,0.59,0.6498,0.7854,0.8437,0.8294,0.7403,0.7,0.7015,0.7104,0.7145,0.7229,0.8183,0.8771,0.9069,0.9345,0.9819,1.0392,1.0473,1.0603,1.0799,1.0799,1.0894,1.1023,1.0799,1.067,1.0555,1.0224,1.0215,1.0191,0.9967,1.0116,1.0285,0.9988,1.0123,1.0331,1.0107,1.027,0.0,0.0,1.0446,1.0629,1.0704,1.0745,1.0846,1.1029,1.1118,1.1219,1.1369,1.1647,1.1918,1.2104,1.2456,1.2747,1.2935,1.3024,1.3139,1.3173,1.3247,1.3315,1.3397,1.3403,1.3403,1.3403,1.3403,1.3403,1.3403,1.3403,1.3403,1.3403,1.3403,1.3403,1.3403,1.3403,1.3403,1.3403,1.3403,1.3403,1.3403,1.3403,1.3403,1.3403,1.3403,1.3403,1.341,1.3485,1.3518,1.3585,1.3578,1.3573,1.3512,0.0,0.0,0.0,0.0,0.0,0.0,0.0,0.0,0.0,0.0,0.0,0.0,0.0,0.0,0.0,0.0,0.0,0.0,0.0,0.1012,0.1129,0.0054,0.1039,0.1809,0.2193,0.3719,0.5178,0.6531,0.7859,0.832,0.7917,0.6625,0.5874,0.561,0.5777,0.6052,0.6448,0.7645,0.8604,0.9396,0.9852,1.0134,1.0229,1.0582,1.0745,1.084,1.0961,1.1111,1.12,1.0894,1.0806,1.0751,1.046,1.0548,1.065,1.0258,1.0427,1.0644,1.0251,1.0339,1.0534,1.0365,1.0506,1.0588,0.0,0.0,0.0,1.0663,1.0664,1.0725,1.0846,1.0874,1.0948,1.1226,1.1416,1.1531,1.1531,1.2064,1.2496,1.2596,1.2759,1.2928,1.2955,1.3037,1.3132,1.3342,1.3302,1.3308,1.3397,1.3403,1.3403,1.3403,1.3403,1.3403,1.3403,1.3403,1.3403,1.3403,1.2982,1.2982,1.3403,1.2982,1.2982,1.3403,1.3403,1.3403,1.3403,1.3403,1.3403,1.341,1.3539,1.3558,1.3599,1.368,1.3585,1.3458,0.0,0.0,0.0,0.0,0.0,0.0,0.0,0.0,0.0,0.0,0.0,0.0,0.0,0.0,0.0,0.0,0.0,0.0,0.0,0.0151,0.0146,0.0,0.0142,0.0838,0.2175,0.3712,0.5206,0.6667,0.7912,0.7889,0.6684,0.6231,0.5364,0.4224,0.4246,0.5142,0.6657,0.6822,0.8055,0.9934,1.0168,1.01,0.9907,1.0468,1.0649,1.0616,1.1151,1.1348,1.1341,1.1206,1.1145,1.1097,1.0765,1.0752,1.0853,1.0664,1.0745,1.0846,1.0664,1.0732,1.0792,1.0541,1.0812,1.0982,1.0458,0.0,1.0792,1.0568,0.0,1.0691,1.0711,0.0,0.0,1.0759,1.1029,1.1247,1.1247,1.1525,1.1843,1.2145,1.2386,1.261,1.2706,1.2651,1.2752,1.3207,1.2956,1.2943,1.3376,1.3403,1.3403,1.3403,1.3403,1.3403,1.3403,1.3403,1.3403,1.3403,1.1344,1.1427,1.3321,1.1386,1.1552,1.3403,1.3403,1.3403,1.3403,1.3403,1.3403,1.3403,1.3417,1.3512,1.3572,1.3498,1.3512,1.3545,0.0,0.0,0.0,0.0,0.0,0.0,0.0,0.0,0.0,0.0,0.0,0.0,0.0,0.0,0.0,0.0,0.0,0.0,0.0,0.0,0.0,0.0,0.0,0.0698,0.2158,0.2821,0.3908,0.5414,0.5809,0.5727,0.514,0.4133,0.3371,0.2846,0.2913,0.3948,0.5701,0.6476,0.797,0.9785,1.0021,0.9981,0.9873,1.0683,1.0995,1.1056,1.1402,1.1525,1.1484,1.1281,1.12,1.1179,1.1016,1.0962,1.0921,1.0968,1.0962,1.088,1.0732,1.0799,1.086,1.0644,1.0833,1.0948,1.0616,1.065,1.0745,1.0649,0.0,0.0,0.0,0.0,0.0,0.0,1.0867,1.1009,1.0921,1.1165,1.147,1.1769,1.1911,1.2081,1.2318,1.2284,1.2433,1.2881,1.276,1.2888,1.3247,1.3356,1.3403,1.3403,1.3403,1.3403,1.3403,1.2098,1.1427,1.1386,0.9165,0.8582,0.9545,0.9878,1.0549,1.1511,1.281,1.3403,1.3403,1.3403,1.3403,1.3403,1.3403,1.3437,1.3498,1.3526,1.3519,1.3498,0.0,0.0,0.0,0.0,0.0,0.0,0.0,0.0,0.0,0.0,0.0,0.0,0.0,0.0,0.0,0.0,0.0,0.0,0.0,0.0,0.0,0.0,0.0,0.0698,0.2156,0.2192,0.2946,0.4501,0.4292,0.4003,0.3636,0.2942,0.2415,0.2088,0.2666,0.3944,0.5712,0.6703,0.8225,0.9967,1.0177,1.0272,1.0339,1.09,1.1253,1.147,1.1579,1.1584,1.1543,1.1314,1.1261,1.1254,1.1213,1.1118,1.1049,1.1179,1.1118,1.0995,1.0799,1.086,1.0928,1.0732,1.0799,1.0874,1.0725,1.0718,1.0738,1.0698,1.0718,0.0,0.0,0.0,1.0684,1.0684,0.0,1.0813,1.0704,1.0907,1.1138,1.1367,1.1509,1.1735,1.207,1.1989,1.2101,1.263,1.2517,1.2684,1.3186,1.3275,1.3356,1.3397,1.3403,1.3403,1.3403,1.176,1.0632,1.0003,0.7744,0.67,0.6745,0.7748,0.854,0.9207,1.1511,1.2519,1.2561,1.3148,1.3403,1.3403,1.3403,1.3403,1.3417,1.3526,1.3498,1.3417,0.0,0.0,0.0,0.0,0.0,0.0,0.0,0.0,0.0,0.0,0.0,0.0,0.0,0.0,0.0,0.0,0.0,0.0,0.0,0.0,0.0,0.0,0.0,0.0693,0.2168,0.2194,0.2967,0.4487,0.4288,0.3539,0.229,0.3539,0.3431,0.2273,0.4027,0.5806,0.7531,0.7691,0.8959,1.0874,1.088,1.1144,1.1518,1.1076,1.1191,1.1577,1.1619,1.1584,1.1592,1.1436,1.1382,1.1355,1.1247,1.1295,1.1348,1.124,1.1302,1.1314,1.0988,1.105,1.1118,1.0792,1.0799,1.0874,1.0725,1.0799,1.0867,1.0718,1.0806,1.086,1.0718,1.0684,1.0684,1.0684,1.0691,0.0,0.0,1.0698,1.0759,1.0914,1.132,1.1735,1.207,1.1703,1.1714,1.2454,1.2108,1.2244,1.3166,1.322,1.3288,1.3397,1.3403,1.3403,1.3403,1.3321,1.2222,1.0086,0.7789,0.67,0.662,0.457,0.4779,0.6951,0.9212,1.0211,1.0382,1.2519,1.3403,1.3403,1.3403,1.3403,1.3403,1.3403,1.3403,1.3403,0.0,0.0,0.0,0.0,0.0,0.0,0.0,0.0,0.0,0.0,0.0,0.0,0.0,0.0,0.0,0.0,0.0,0.0,0.0,0.0,0.0,0.0,0.0,0.0231,0.0724,0.0757,0.1004,0.151,0.1466,0.1758,0.2397,0.2733,0.3239,0.3895,0.4588,0.59,0.7619,0.7823,0.8968,1.0663,1.0833,1.1185,1.157,1.1414,1.1448,1.1584,1.1584,1.1584,1.1577,1.1558,1.1477,1.1402,1.145,1.1362,1.1288,1.1336,1.1315,1.1254,1.1118,1.1274,1.1396,1.109,1.1131,1.1179,1.0894,1.0982,1.1023,1.0772,1.0921,1.1016,1.0765,1.0684,1.0684,1.0684,1.0684,1.0684,0.0,1.0684,1.0745,1.0894,1.1165,1.1321,1.1328,1.1362,1.1579,1.1983,1.2013,1.2244,1.2847,1.3064,1.3241,1.3288,1.3349,1.3403,1.3403,1.1932,1.0086,0.7831,0.5533,0.3692,0.231,0.3023,0.3776,0.4737,0.8415,1.0044,1.0211,1.2478,1.3403,1.3403,1.3403,1.3403,1.3403,1.3403,1.3403,1.3403,0.0,0.0,0.0,0.0,0.0,0.0,0.0,0.0,0.0,0.0,0.0,0.0,0.0,0.0,0.0,0.0,0.0,0.0,0.0,0.0,0.0,0.0,0.0,0.0,0.0,0.0,0.0318,0.0957,0.0911,0.1757,0.3437,0.3741,0.4475,0.5578,0.633,0.7357,0.8569,0.896,0.9792,1.0833,1.1049,1.1327,1.1584,1.1584,1.1584,1.1584,1.1584,1.1584,1.1626,1.1681,1.159,1.1572,1.1728,1.1676,1.154,1.1635,1.1594,1.1506,1.1416,1.1545,1.1633,1.1389,1.1402,1.1396,1.109,1.1138,1.1206,1.0928,1.0989,1.1077,1.105,1.0833,1.0758,1.086,1.0792,1.0684,0.0,1.0684,1.0725,1.0819,1.0995,1.109,1.107,1.1185,1.136,1.1766,1.1877,1.2121,1.2584,1.2935,1.3159,1.3214,1.3322,1.3403,1.3403,1.1973,1.0128,0.7873,0.5616,0.3357,0.1178,0.1849,0.2142,0.2436,0.6909,0.8832,0.9082,1.2139,1.3403,1.3403,1.3403,1.3403,1.3403,1.3403,1.3403,1.3403,0.0,0.0,0.0,0.0,0.0,0.0,0.0,0.0,0.0,0.0,0.0,0.0,0.0,0.0,0.0,0.0,0.0,0.0,0.0,0.0,0.0,0.0,0.0,0.0,0.0,0.0103,0.0964,0.2709,0.2656,0.35,0.5114,0.6261,0.6853,0.7046,0.8883,0.9806,1.008,1.0874,1.1295,1.1423,1.1572,1.1633,1.1604,1.1604,1.1604,1.1604,1.1597,1.1633,1.1624,1.1759,1.1807,1.187,1.205,1.2098,1.2098,1.2098,1.2098,1.207,1.1884,1.1813,1.178,1.1681,1.1604,1.1565,1.1302,1.1349,1.1382,1.1254,1.109,1.109,1.1489,1.1097,1.0833,1.1132,1.0907,1.0684,1.0684,1.0684,1.0684,1.0684,1.0813,1.1016,1.1328,1.1083,1.1164,1.1732,1.1651,1.1864,1.2461,1.2805,1.3037,1.32,1.3308,1.3397,1.3403,1.3403,1.2305,1.0086,0.7789,0.5574,0.3399,0.1178,0.021,0.0589,0.4947,0.6871,0.7201,1.1594,1.3403,1.3403,1.3403,1.3403,1.3403,1.3403,1.3403,1.3403,0.0,0.0,0.0,0.0,0.0,0.0,0.0,0.0,0.0,0.0,0.0,0.0,0.0,0.0,0.0,0.0,0.0,0.0,0.0,0.0,0.0,0.0,0.0,0.0,0.0,0.132,0.2232,0.2699,0.4014,0.4791,0.5118,0.5327,0.538,0.5405,0.7327,0.7458,0.6498,0.9805,1.1375,1.1685,1.1726,1.1843,1.1989,1.1989,1.1989,1.1932,1.1816,1.185,1.1989,1.203,1.2006,1.205,1.2084,1.2098,1.2098,1.2098,1.2098,1.2091,1.205,1.2088,1.2135,1.2023,1.1989,1.1898,1.1701,1.1782,1.1853,1.1558,1.1647,1.1674,1.1376,1.1186,1.1036,1.0853,1.0772,1.0684,1.0684,1.0684,1.0684,1.0684,1.0725,1.0772,1.0887,1.1023,1.1219,1.1484,1.147,1.1714,1.2311,1.242,1.2669,1.3043,1.32,1.3288,1.3397,1.3403,1.2305,1.0086,0.7789,0.6411,0.5742,0.3524,0.3442,0.5156,0.7998,0.9207,0.9373,1.2222,1.3403,1.3403,1.3403,1.3403,1.3403,1.3403,1.3403,1.3403,0.0,0.0,0.0,0.0,0.0,0.0,0.0,0.0,0.0,0.0,0.0,0.0,0.0,0.0,0.0,0.0,0.0,0.0,0.0,0.0,0.0,0.0,0.0,0.0,0.0,0.1003,0.1897,0.2686,0.3674,0.447,0.5101,0.4902,0.4801,0.4858,0.677,0.711,0.6426,0.896,1.0167,1.0305,0.9497,0.9239,0.0,0.9339,0.9977,1.0813,1.0697,1.1288,1.2111,1.2179,1.22,1.2213,1.2275,1.225,1.225,1.225,1.225,1.225,1.225,1.2318,1.2366,1.2277,1.225,1.2196,1.1979,1.2036,1.205,1.185,1.1843,1.1823,1.1717,1.1417,1.1097,1.0732,1.0684,1.0684,1.0684,1.0684,1.0684,1.0684,1.0684,1.0684,1.0684,1.0873,1.1056,1.1308,1.1355,1.1572,1.1979,1.2244,1.2528,1.2847,1.3064,1.3247,1.3397,1.3403,1.2768,1.1511,0.9249,0.8207,0.8123,0.5867,0.5533,0.6825,0.9124,1.0044,1.0169,1.2478,1.3403,1.3403,1.3403,1.3403,1.3403,1.3403,1.3403,1.3403,0.0,0.0,0.0,0.0,0.0,0.0,0.0,0.0,0.0,0.0,0.0,0.0,0.0,0.0,0.0,0.0,0.0,0.0,0.0,0.0,0.0,0.0,0.0,0.0,0.0,0.0232,0.1119,0.269,0.2824,0.355,0.4779,0.4536,0.4385,0.4349,0.6162,0.7243,0.7695,0.7757,0.7905,0.8033,0.647,0.5858,0.5868,0.5868,0.7085,0.8803,0.8803,1.0273,1.2179,1.2271,1.2318,1.2338,1.2461,1.2501,1.2501,1.2501,1.2501,1.2501,1.2501,1.2501,1.2501,1.2501,1.2501,1.2433,1.2213,1.2159,1.2159,1.2159,1.1898,1.1816,1.2162,1.1683,1.1104,1.0792,1.0718,1.0718,1.0718,1.0698,1.0684,1.0684,1.0684,0.0,1.0684,1.0684,1.0833,1.1145,1.124,1.1396,1.157,1.2108,1.2481,1.2652,1.299,1.3261,1.337,1.339,1.3403,1.3355,1.1131,1.0258,1.0466,0.8165,0.7288,0.7706,0.967,1.0507,1.059,1.2561,1.3403,1.3403,1.3403,1.341,1.3431,1.3431,1.3444,1.3458,0.0,0.0,0.0,0.0,0.0,0.0,0.0,0.0,0.0,0.0,0.0,0.0,0.0,0.0,0.0,0.0,0.0,0.0,0.0,0.0,0.0,0.0,0.0,0.0,0.0,0.1475,0.2371,0.2687,0.4173,0.4291,0.3117,0.3069,0.2252,0.0943,0.2736,0.4478,0.5912,0.4493,0.4875,0.6406,0.6084,0.6082,0.6217,0.6217,0.6456,0.682,0.682,0.9215,1.2427,1.2454,1.2467,1.2467,1.2494,1.2501,1.2501,1.2501,1.2501,1.2501,1.2501,1.2501,1.2501,1.2501,1.2501,1.2488,1.2433,1.2427,1.2427,1.2427,1.2291,1.2121,1.1908,1.1497,1.1145,1.0901,1.0874,1.0874,1.0874,1.0765,1.0684,1.0684,1.0684,1.0684,1.0684,1.0684,1.0759,1.0941,1.086,1.1063,1.1556,1.1685,1.2006,1.2528,1.288,1.3105,1.3214,1.3336,1.3403,1.3355,1.1089,1.1006,1.2727,1.0466,1.0466,1.2264,1.2644,1.281,1.2851,1.3231,1.3403,1.3403,1.3403,1.3478,1.3545,1.3545,1.3619,1.3707,0.0,0.0,0.0,0.0,0.0,0.0,0.0,0.0,0.0,0.0,0.0,0.0,0.0,0.0,0.0,0.0,0.0,0.0,0.0,0.0,0.0,0.0,0.0,0.0,0.0,0.0862,0.1303,0.1286,0.2183,0.2154,0.1284,0.1307,0.0841,0.0064,0.189,0.3751,0.5366,0.3548,0.3382,0.4192,0.3266,0.2961,0.3016,0.3016,0.3718,0.4654,0.4654,0.664,0.9294,0.9294,0.9998,1.0895,1.0895,1.1637,1.2501,1.2501,1.2501,1.2501,1.2501,1.2501,1.2501,1.2501,1.1682,1.0895,1.0895,1.0075,0.955,1.0576,1.0747,1.0907,1.157,1.1416,1.1172,1.107,1.0961,1.0914,1.0914,1.0853,1.0779,1.0698,1.0684,1.0684,1.0684,1.0684,1.0718,1.0792,1.0799,1.0995,1.1362,1.1531,1.1857,1.2372,1.2684,1.2949,1.3214,1.3322,1.3403,1.3403,1.2305,1.2347,1.3355,1.2264,1.2347,1.3403,1.3403,1.3403,1.3403,1.3403,1.3403,1.3403,1.3403,1.3492,1.3585,1.3585,1.3673,1.3788,0.0,0.0,0.0,0.0,0.0,0.0,0.0,0.0,0.0,0.0,0.0,0.0,0.0,0.0,0.0,0.0,0.0,0.0,0.0,0.0,0.0,0.0,0.0,0.0,0.0,0.0,0.0,0.0,0.0,0.0,0.0,0.0,0.0,0.0065,0.1473,0.2906,0.4142,0.2746,0.213,0.1987,0.0585,0.0,0.0,0.0,0.1022,0.2427,0.2427,0.3523,0.5045,0.5474,0.6995,0.8828,0.9255,1.0507,1.1914,1.2385,1.2501,1.2501,1.2501,1.2501,1.2501,1.2501,1.0934,0.9415,0.9415,0.7777,0.6739,0.8267,0.8859,0.9639,1.1244,1.1402,1.1274,1.1206,1.1097,1.0995,1.0961,1.0934,1.0874,1.0752,1.0704,1.0684,1.0684,1.0684,1.0684,1.0684,1.0799,1.0941,1.1186,1.1423,1.1762,1.2176,1.2503,1.284,1.3078,1.3295,1.3403,1.3403,1.3403,1.3403,1.3403,1.3403,1.3403,1.3403,1.3403,1.3403,1.3403,1.3437,1.3451,1.3451,1.3485,1.3587,1.3722,1.3722,1.3774,1.3896,0.0,0.0,0.0,0.0,0.0,0.0,0.0,0.0,0.0,0.0,0.0,0.0,0.0,0.0,0.0,0.0,0.0,0.0,0.0,0.0,0.0,0.0,0.0,0.0,0.0,0.0,0.0,0.0,0.0,0.0,0.0,0.0,0.0,0.0,0.0173,0.0354,0.0509,0.034,0.0269,0.0231,0.008,0.0,0.0,0.0,0.0119,0.0275,0.0275,0.0432,0.0863,0.278,0.481,0.6917,0.8789,0.9532,1.0075,1.1953,1.2501,1.2501,1.2501,1.2501,1.2501,1.2501,1.0934,0.9415,0.9415,0.7777,0.635,0.6543,0.784,0.9421,1.1109,1.1504,1.1484,1.124,1.1302,1.1301,1.12,1.0995,1.0907,1.0894,1.0772,1.0684,1.0684,1.0684,1.0684,1.0684,1.0698,1.0867,1.1179,1.1356,1.1552,1.1827,1.2395,1.2706,1.2733,1.3193,1.3403,1.3403,1.3403,1.3403,1.3403,1.3403,1.3403,1.3403,1.3403,1.3403,1.341,1.3553,1.3565,1.3578,1.3707,1.3892,1.4034,1.4034,1.4129,1.4258,0.0,0.0,0.0,0.0,0.0,0.0,0.0,0.0,0.0,0.0,0.0,0.0,0.0,0.0,0.0,0.0,0.0,0.0,0.0,0.0,0.0,0.0,0.0,0.0,0.0,0.0,0.0,0.0,0.0,0.0,0.0,0.0,0.0,0.0,0.0,0.0,0.0,0.0,0.0,0.0,0.0,0.0,0.0,0.0,0.0,0.0,0.0,0.0,0.0321,0.248,0.4591,0.6644,0.875,1.0275,1.1405,1.2263,1.2501,1.2501,1.2501,1.2501,1.2501,1.2501,1.0934,0.9415,0.9415,0.68,0.4706,0.5869,0.7553,0.8998,0.9661,1.0708,1.147,1.1443,1.1409,1.1369,1.1342,1.1172,1.1043,1.0928,1.0779,1.0684,1.0684,1.0684,1.0684,1.0684,1.0772,1.0948,1.1186,1.1342,1.1525,1.1786,1.2325,1.2637,1.2686,1.318,1.3403,1.3403,1.3403,1.3403,1.3403,1.3403,1.3403,1.3403,1.3403,1.3403,1.3403,1.3464,1.3546,1.3592,1.3646,1.3858,1.4119,1.4119,1.417,1.4299,0.0,0.0,0.0,0.0,0.0,0.0,0.0,0.0,0.0,0.0,0.0,0.0,0.0,0.0,0.0,0.0,0.0,0.0,0.0,0.0,0.0,0.0,0.0,0.0,0.0,0.0,0.0,0.0,0.0,0.0,0.0,0.0,0.0,0.0,0.0,0.0,0.0,0.0,0.0,0.0,0.0,0.0,0.0,0.0,0.0,0.0,0.0,0.0,0.0447,0.3285,0.5168,0.6713,0.884,1.0538,1.1842,1.2481,1.2603,1.2576,1.2623,1.2569,1.2515,1.2556,1.0964,0.9415,0.9415,0.6134,0.3496,0.4812,0.6112,0.7357,0.8492,0.9757,1.0796,1.1431,1.1497,1.1443,1.1396,1.1295,1.1159,1.1023,1.0806,1.0684,1.0684,1.0684,1.0704,1.0752,1.0934,1.1104,1.1193,1.1342,1.1525,1.1786,1.2273,1.2584,1.2686,1.318,1.3403,1.3403,1.3403,1.3403,1.3403,1.3403,1.3403,1.3403,1.3403,1.3403,1.341,1.3492,1.3551,1.366,1.3747,1.3953,1.4136,1.4136,1.4204,1.4299,0.0,0.0,0.0,0.0,0.0,0.0,0.0,0.0,0.0,0.0,0.0,0.0,0.0,0.0,0.0,0.0,0.0,0.0,0.0,0.0,0.0,0.0,0.0,0.0,0.0,0.0,0.0,0.0,0.0,0.0,0.0,0.0,0.0,0.0,0.0,0.0,0.0,0.0,0.0,0.0,0.0,0.0,0.0,0.0,0.0,0.0,0.0,0.0,0.065,0.4981,0.6472,0.6875,0.9095,0.9823,1.0265,1.2381,1.2847,1.272,1.2955,1.2732,1.2535,1.2652,1.1035,0.9415,0.9415,0.6134,0.3071,0.296,0.2953,0.413,0.7996,0.8703,0.9314,1.1098,1.1518,1.1565,1.1409,1.1295,1.12,1.1193,1.09,1.0684,1.0684,1.0684,1.0752,1.0901,1.1219,1.1356,1.1206,1.1342,1.1525,1.1786,1.2375,1.2686,1.2693,1.318,1.3403,1.3403,1.3403,1.3403,1.3403,1.3403,1.3403,1.3403,1.3403,1.3403,1.3424,1.3673,1.3795,1.3829,1.417,1.4292,1.4299,1.4299,1.4299,1.4299,0.0,0.0,0.0,0.0,0.0,0.0,0.0,0.0,0.0,0.0,0.0,0.0,0.0,0.0,0.0,0.0,0.0,0.0,0.0,0.0,0.0,0.0,0.0,0.0,0.0,0.0,0.0,0.0,0.0,0.0,0.0,0.0,0.0,0.0,0.0,0.0,0.0,0.0,0.0,0.0,0.0,0.0,0.0,0.0,0.0,0.0211,0.1724,0.2259,0.2949,0.7455,0.8944,0.9273,1.1552,1.2131,1.2107,1.2795,1.2969,1.2941,1.2989,1.2928,1.2867,1.2874,1.2252,1.1273,0.9848,0.7341,0.4858,0.3331,0.5147,0.7387,0.8606,0.9921,1.0976,1.1465,1.1631,1.1678,1.1565,1.1416,1.1315,1.1206,1.0989,1.0799,1.0698,1.0779,1.0819,1.0765,1.107,1.1295,1.1314,1.1689,1.1928,1.1986,1.2474,1.2779,1.2888,1.3227,1.3403,1.3403,1.3403,1.3403,1.3403,1.3403,1.3403,1.3403,1.3403,1.3458,1.3524,1.3612,1.3817,1.4007,1.4109,1.4211,1.4299,1.4299,1.4299,1.4299,0.0,0.0,0.0,0.0,0.0,0.0,0.0,0.0,0.0,0.0,0.0,0.0,0.0,0.0,0.0,0.0,0.0,0.0,0.0,0.0,0.0,0.0,0.0,0.0,0.0,0.0,0.0,0.0,0.0,0.0,0.0,0.0,0.0,0.0,0.0,0.0,0.0,0.0,0.0,0.0,0.0,0.0,0.0,0.0,0.0,0.0172,0.1548,0.2053,0.2761,0.7302,0.8802,0.93,1.2407,1.3275,1.3166,1.3166,1.3125,1.3091,1.3152,1.3084,1.3016,1.3071,1.2929,1.2239,1.0075,0.8501,0.6868,0.4732,0.6222,0.8164,0.8869,1.0011,1.1025,1.1686,1.1773,1.1759,1.1671,1.1525,1.1355,1.1295,1.1118,1.0989,1.0894,1.1023,1.1043,1.0982,1.1336,1.1553,1.1552,1.1823,1.2054,1.2223,1.261,1.2888,1.3077,1.3281,1.3403,1.3403,1.3403,1.3431,1.3485,1.3485,1.3512,1.3566,1.3566,1.362,1.3673,1.377,1.3905,1.4119,1.418,1.4217,1.4299,1.4299,1.4299,1.4299,0.0,0.0,0.0,0.0,0.0,0.0,0.0,0.0,0.0,0.0,0.0,0.0,0.0,0.0,0.0,0.0,0.0,0.0,0.0,0.0,0.0,0.0,0.0,0.0,0.0,0.0,0.0,0.0,0.0,0.0,0.0,0.0,0.0,0.0,0.0,0.0,0.0,0.0,0.0,0.0,0.0,0.0,0.0,0.0,0.0,0.0,0.0174,0.0217,0.0911,0.5223,0.6695,0.7446,1.1617,1.305,1.3216,1.3362,1.3302,1.322,1.3363,1.32,1.3064,1.3193,1.2997,1.2242,1.0091,0.9502,0.8847,0.6934,0.6605,0.7265,0.9065,0.9425,0.9987,1.1786,1.1932,1.18,1.178,1.1579,1.1402,1.1396,1.1308,1.1227,1.1213,1.1349,1.1409,1.1409,1.1839,1.1986,1.182,1.1827,1.2037,1.2501,1.2853,1.3084,1.3227,1.3329,1.3403,1.3417,1.3424,1.3505,1.3599,1.3599,1.3673,1.3795,1.3795,1.3802,1.3822,1.4014,1.4125,1.4146,1.4245,1.4299,1.4299,1.4299,1.4299,1.4299,0.0,0.0,0.0,0.0,0.0,0.0,0.0,0.0,0.0,0.0,0.0,0.0,0.0,0.0,0.0,0.0,0.0,0.0,0.0,0.0,0.0,0.0,0.0,0.0,0.0,0.0,0.0,0.0,0.0,0.0,0.0,0.0,0.0,0.0,0.0,0.0,0.0,0.0,0.0,0.0,0.0,0.0,0.0,0.0,0.0,0.022,0.1933,0.2533,0.2946,0.5741,0.6686,0.6898,0.7952,0.9569,1.1331,1.2916,1.3376,1.3356,1.339,1.3349,1.3302,1.3336,1.2033,1.0519,0.975,0.9564,0.9395,0.8774,0.985,1.1004,1.1473,1.158,1.1622,1.1851,1.1952,1.1932,1.1665,1.157,1.1525,1.1402,1.1463,1.1463,1.1348,1.1477,1.1565,1.1565,1.1762,1.1925,1.2006,1.2223,1.2447,1.2671,1.2963,1.3234,1.3342,1.3383,1.3458,1.3531,1.3639,1.3714,1.3747,1.3747,1.3768,1.3795,1.3795,1.3905,1.4021,1.4098,1.4143,1.4251,1.4285,1.4299,1.4299,1.4299,1.4299,1.4299,0.0,0.0,0.0,0.0,0.0,0.0,0.0,0.0,0.0,0.0,0.0,0.0,0.0,0.0,0.0,0.0,0.0,0.0,0.0,0.0,0.0,0.0,0.0,0.0,0.0,0.0,0.0,0.0,0.0,0.0,0.0,0.0,0.0,0.0,0.0,0.0,0.0,0.0,0.0,0.0,0.0,0.0,0.0,0.0,0.0,0.0178,0.1378,0.177,0.2156,0.4415,0.5191,0.5363,0.6376,0.7615,0.8891,1.0021,1.1896,1.3587,1.3519,1.3505,1.3492,1.3417,1.2411,1.1405,1.1263,1.1187,1.111,1.0935,1.0975,1.1065,1.1004,1.0218,0.9496,0.9318,0.9297,0.9542,1.028,1.0305,1.0587,1.1485,1.1667,1.1714,1.1737,1.1837,1.1898,1.1823,1.202,1.2176,1.2295,1.2588,1.2752,1.2834,1.3051,1.3247,1.3397,1.3471,1.3546,1.3592,1.3734,1.3835,1.3946,1.3946,1.3987,1.4048,1.4048,1.4102,1.4177,1.4177,1.4224,1.4299,1.4299,1.4299,1.4299,1.4299,1.4299,1.4299,0.0,0.0,0.0,0.0,0.0,0.0,0.0,0.0,0.0,0.0,0.0,0.0,0.0,0.0,0.0,0.0,0.0,0.0,0.0,0.0,0.0,0.0,0.0,0.0,0.0,0.0,0.0,0.0,0.0,0.0,0.0,0.0,0.0,0.0,0.0,0.0,0.0,0.0,0.0,0.0,0.0,0.0,0.0,0.0,0.0,0.0,0.0,0.0,0.0314,0.2217,0.287,0.3219,0.5109,0.592,0.6224,0.6224,0.9346,1.2828,1.3059,1.3345,1.3558,1.3464,1.3322,1.32,1.322,1.3118,1.2989,1.2793,1.1086,0.9574,0.9461,0.772,0.6279,0.6257,0.6118,0.6687,0.8609,0.8795,0.9476,1.156,1.1834,1.1952,1.2118,1.2216,1.2257,1.2207,1.2372,1.2522,1.2569,1.288,1.303,1.303,1.3173,1.3281,1.3437,1.3545,1.3632,1.3695,1.3795,1.398,1.4153,1.4153,1.4177,1.4299,1.4299,1.4299,1.4299,1.4299,1.4299,1.4299,1.4299,1.4299,1.4299,1.4299,1.4299,1.4299,0.0,0.0,0.0,0.0,0.0,0.0,0.0,0.0,0.0,0.0,0.0,0.0,0.0,0.0,0.0,0.0,0.0,0.0,0.0,0.0,0.0,0.0,0.0,0.0,0.0,0.0,0.0,0.0,0.0,0.0,0.0,0.0,0.0,0.0,0.0,0.0,0.0,0.0,0.0,0.0,0.0,0.0,0.0,0.0,0.0,0.0,0.0,0.0,0.0045,0.0403,0.0537,0.0582,0.0938,0.2451,0.4097,0.4097,0.6003,0.8537,1.032,1.2174,1.3585,1.3558,1.3478,1.3336,1.3241,1.3193,1.3139,1.2996,1.1182,0.9612,0.9579,0.7777,0.6246,0.6077,0.6015,0.6657,0.8479,0.8803,0.9594,1.1587,1.206,1.223,1.225,1.2277,1.2386,1.261,1.2549,1.2617,1.2914,1.3091,1.318,1.318,1.3288,1.3437,1.3551,1.3693,1.3829,1.4007,1.4156,1.4245,1.4265,1.4265,1.4278,1.4299,1.4299,1.4299,1.4299,1.4299,1.4299,1.4299,1.4299,1.4299,1.4299,1.4299,1.4299,1.4299,0.0,0.0,0.0,0.0,0.0,0.0,0.0,0.0,0.0,0.0,0.0,0.0,0.0,0.0,0.0,0.0,0.0,0.0,0.0,0.0,0.0,0.0,0.0,0.0,0.0,0.0,0.0,0.0,0.0,0.0,0.0,0.0,0.0,0.0,0.0,0.0,0.0,0.0,0.0,0.0,0.0,0.0,0.0,0.0,0.0,0.0,0.0,0.0,0.0,0.0,0.0,0.0,0.0,0.0762,0.1658,0.1658,0.4188,0.7203,0.8177,1.0123,1.1802,1.1802,1.2743,1.36,1.3451,1.3417,1.3356,1.3166,1.0414,0.8018,0.7926,0.5197,0.2895,0.2769,0.3708,0.5079,0.6974,0.8295,0.9794,1.185,1.2271,1.2433,1.2522,1.2603,1.2751,1.284,1.2786,1.2887,1.3105,1.318,1.3214,1.3295,1.3444,1.3551,1.37,1.3892,1.4,1.4119,1.4224,1.4299,1.4299,1.4299,1.4299,1.4299,1.4299,1.4299,1.4299,1.4299,1.4299,1.4299,1.4299,1.4299,1.4299,1.4299,1.4299,1.4299,0.0,0.0,0.0,0.0,0.0,0.0,0.0,0.0,0.0,0.0,0.0,0.0,0.0,0.0,0.0,0.0,0.0,0.0,0.0,0.0,0.0,0.0,0.0,0.0,0.0,0.0,0.0,0.0,0.0,0.0,0.0,0.0,0.0,0.0,0.0,0.0,0.0,0.0,0.0,0.0,0.0,0.0,0.0,0.0,0.0,0.0,0.0,0.0,0.0,0.0,0.0,0.0,0.0,0.0,0.0,0.0,0.2493,0.5519,0.6665,0.8181,0.95,0.95,1.0827,1.2252,1.2713,1.2822,1.292,1.3253,0.9788,0.6694,0.656,0.3396,0.0804,0.08,0.2553,0.4567,0.6553,0.8274,1.0068,1.2143,1.2522,1.2657,1.2773,1.2895,1.3016,1.305,1.305,1.3111,1.3261,1.3268,1.3308,1.3498,1.3545,1.3673,1.3849,1.4014,1.4132,1.4173,1.4245,1.4299,1.4299,1.4299,1.4299,1.4299,1.4299,1.4299,1.4299,1.4299,1.4299,1.4299,1.4299,1.4299,1.4299,1.4299,1.4299,1.4299,0.0,0.0,0.0,0.0,0.0,0.0,0.0,0.0,0.0,0.0,0.0,0.0,0.0,0.0,0.0,0.0,0.0,0.0,0.0,0.0,0.0,0.0,0.0,0.0,0.0,0.0,0.0,0.0,0.0,0.0,0.0,0.0,0.0,0.0,0.0,0.0,0.0,0.0,0.0,0.0,0.0,0.0,0.0,0.0,0.0,0.0,0.0,0.0,0.0,0.0,0.0,0.0,0.0,0.0,0.0,0.0,0.0224,0.1478,0.5892,0.7129,0.7155,0.7155,0.7193,0.7788,1.0022,1.0532,1.1105,1.3157,1.0013,0.6832,0.6728,0.473,0.3147,0.316,0.4889,0.6953,0.9027,0.9487,1.0341,1.2416,1.2834,1.2969,1.2982,1.2996,1.3057,1.3186,1.32,1.322,1.3376,1.3383,1.3512,1.3754,1.3653,1.3763,1.4055,1.4112,1.4143,1.4285,1.4292,1.4299,1.4299,1.4299,1.4299,1.4299,1.4299,1.4299,1.4299,1.4299,1.4299,1.4299,1.4299,1.4299,1.4299,1.4299,1.4299,1.4299,0.0,0.0,0.0,0.0,0.0,0.0,0.0,0.0,0.0,0.0,0.0,0.0,0.0,0.0,0.0,0.0,0.0,0.0,0.0,0.0,0.0,0.0,0.0,0.0,0.0,0.0,0.0,0.0,0.0,0.0,0.0,0.0,0.0,0.0,0.0,0.0,0.0,0.0,0.0,0.0,0.0,0.0,0.0,0.0,0.0,0.0,0.0,0.0,0.0,0.0,0.0,0.0,0.0,0.0,0.0,0.0,0.0,0.0404,0.2195,0.3748,0.4844,0.4844,0.5892,0.7183,0.8007,0.8209,0.8406,0.9178,0.7955,0.6753,0.6696,0.603,0.5437,0.5426,0.718,0.8807,0.9597,1.0873,1.1985,1.2795,1.3043,1.3132,1.3132,1.3261,1.3397,1.3451,1.3539,1.3572,1.3668,1.3632,1.377,1.398,1.3933,1.4007,1.4211,1.4211,1.4245,1.4299,1.4299,1.4299,1.4299,1.4299,1.4299,1.4299,1.4299,1.4299,1.4299,1.4299,1.4299,1.4299,1.4299,1.4299,1.4299,1.4299,1.4299,1.4299,0.0,0.0,0.0,0.0,0.0,0.0,0.0,0.0,0.0,0.0,0.0,0.0,0.0,0.0,0.0,0.0,0.0,0.0,0.0,0.0,0.0,0.0,0.0,0.0,0.0,0.0,0.0,0.0,0.0,0.0,0.0,0.0,0.0,0.0,0.0,0.0,0.0,0.0,0.0,0.0,0.0,0.0,0.0,0.0,0.0,0.0,0.0,0.0,0.0,0.0,0.0,0.0,0.0,0.0,0.0,0.0,0.0,0.0,0.0,0.1211,0.2463,0.2463,0.3669,0.5043,0.5712,0.5877,0.6036,0.6628,0.6228,0.5713,0.5674,0.5639,0.5879,0.6571,0.8442,1.0043,1.082,1.2172,1.3084,1.3132,1.3227,1.3261,1.3308,1.3505,1.3605,1.3653,1.3741,1.3795,1.3795,1.3842,1.396,1.4112,1.4122,1.4197,1.4299,1.4299,1.4299,1.4299,1.4299,1.4299,1.4299,1.4299,1.4299,1.4299,1.4299,1.4299,1.4299,1.4299,1.4299,1.4299,1.4299,1.4299,1.4299,1.4299,1.4299,1.4299,0.0,0.0,0.0,0.0,0.0,0.0,0.0,0.0,0.0,0.0,0.0,0.0,0.0,0.0,0.0,0.0,0.0,0.0,0.0,0.0,0.0,0.0,0.0,0.0,0.0,0.0,0.0,0.0,0.0,0.0,0.0,0.0,0.0,0.0,0.0,0.0,0.0,0.0,0.0,0.0,0.0,0.0,0.0,0.0,0.0,0.0,0.0,0.0,0.0,0.0,0.0,0.0,0.0,0.0,0.0,0.0,0.0,0.0,0.0,0.0,0.0,0.0,0.0,0.0628,0.3045,0.358,0.4192,0.6391,0.5105,0.3545,0.3428,0.3372,0.4081,0.6337,0.8462,1.0661,1.3045,1.3275,1.3234,1.339,1.3403,1.3464,1.3572,1.3592,1.3646,1.3788,1.3802,1.3802,1.3802,1.3987,1.4119,1.4119,1.4224,1.4299,1.4299,1.4299,1.4299,1.4299,1.4299,1.4299,1.4299,1.4299,1.4299,1.4299,1.4299,1.4299,1.4299,1.4299,1.4299,1.4299,1.4299,1.4299,1.4299,1.4299,1.4299,1.4299,0.0,0.0,0.0,0.0,0.0,0.0,0.0,0.0,0.0,0.0,0.0,0.0,0.0,0.0,0.0,0.0,0.0,0.0,0.0,0.0,0.0,0.0,0.0,0.0,0.0,0.0,0.0,0.0,0.0,0.0,0.0,0.0,0.0,0.0,0.0,0.0,0.0,0.0,0.0,0.0,0.0,0.0,0.0,0.0,0.0,0.0,0.0,0.0,0.0,0.0,0.0,0.0,0.0,0.0,0.0,0.0,0.0,0.0,0.0,0.0,0.0,0.0,0.0,0.0179,0.0897,0.1076,0.1254,0.1919,0.279,0.3429,0.3364,0.4639,0.5899,0.6607,0.8629,1.0408,1.1124,1.2597,1.3654,1.366,1.3666,1.3687,1.3734,1.3878,1.396,1.4,1.4102,1.4163,1.4163,1.4204,1.4231,1.4231,1.4278,1.4299,1.4299,1.4299,1.4299,1.4299,1.4299,1.4299,1.4299,1.4299,1.4299,1.4299,1.4299,1.4299,1.4299,1.4299,1.4299,1.4299,1.4299,1.4299,1.4299,1.4299,1.4299,1.4299,0.0,0.0,0.0,0.0,0.0,0.0,0.0,0.0,0.0,0.0,0.0,0.0,0.0,0.0,0.0,0.0,0.0,0.0,0.0,0.0,0.0,0.0,0.0,0.0,0.0,0.0,0.0,0.0,0.0,0.0,0.0,0.0,0.0,0.0,0.0,0.0,0.0,0.0,0.0,0.0,0.0,0.0,0.0,0.0,0.0,0.0,0.0,0.0,0.0,0.0,0.0,0.0,0.0,0.0,0.0,0.0,0.0,0.0,0.0,0.0,0.0,0.0,0.0,0.0,0.0,0.0,0.0,0.0,0.1115,0.2038,0.1985,0.3112,0.4355,0.5245,0.7396,0.9248,1.0156,1.2319,1.3795,1.3795,1.3795,1.3822,1.3926,1.4014,1.4139,1.42,1.4245,1.4299,1.4299,1.4299,1.4299,1.4299,1.4299,1.4299,1.4299,1.4299,1.4299,1.4299,1.4299,1.4299,1.4299,1.4299,1.4299,1.4299,1.4299,1.4299,1.4299,1.4299,1.4299,1.4299,1.4299,1.4299,1.4299,1.4299,1.4299,1.4299,0.0,0.0,0.0,0.0,0.0,0.0,0.0,0.0,0.0,0.0,0.0,0.0,0.0,0.0,0.0,0.0,0.0,0.0,0.0,0.0,0.0,0.0,0.0,0.0,0.0,0.0,0.0,0.0,0.0,0.0,0.0,0.0,0.0,0.0,0.0,0.0,0.0,0.0,0.0,0.0,0.0,0.0,0.0,0.0,0.0,0.0,0.0,0.0,0.0,0.0,0.0,0.0,0.0,0.0,0.0,0.0,0.0,0.0,0.0,0.0,0.0,0.0,0.0,0.0,0.0,0.0,0.0,0.0,0.0,0.0,0.0,0.0,0.0749,0.3048,0.5383,0.772,1.0013,1.2355,1.3835,1.3835,1.3835,1.3939,1.4082,1.4139,1.415,1.4292,1.4299,1.4299,1.4299,1.4299,1.4299,1.4299,1.4299,1.4299,1.4299,1.4299,1.4299,1.4299,1.4299,1.4299,1.4299,1.4299,1.4299,1.4299,1.4299,1.4299,1.4299,1.4299,1.4299,1.4299,1.4299,1.4299,1.4299,1.4299,1.4299,1.4299,0.0,0.0,0.0,0.0,0.0,0.0,0.0,0.0,0.0,0.0,0.0,0.0,0.0,0.0,0.0,0.0,0.0,0.0,0.0,0.0,0.0,0.0,0.0,0.0,0.0,0.0,0.0,0.0,0.0,0.0,0.0,0.0,0.0,0.0,0.0,0.0,0.0,0.0,0.0,0.0,0.0,0.0,0.0,0.0,0.0,0.0,0.0,0.0,0.0,0.0,0.0,0.0,0.0,0.0,0.0,0.0,0.0,0.0,0.0,0.0,0.0,0.0,0.0,0.0,0.0,0.0,0.0,0.0,0.0,0.0,0.0,0.0,0.0759,0.3158,0.5504,0.7895,1.0288,1.2683,1.4204,1.4204,1.4204,1.4211,1.4245,1.4251,1.4265,1.4299,1.4299,1.4299,1.4299,1.4299,1.4299,1.4299,1.4299,1.4299,1.4299,1.4299,1.4299,1.4299,1.4299,1.4299,1.4299,1.4299,1.4299,1.4299,1.4299,1.4299,1.4299,1.4299,1.4299,1.4299,1.4299,1.4299,1.4299,1.4299,1.4299,1.4299,0.0,0.0,0.0,0.0,0.0,0.0,0.0,0.0,0.0,0.0,0.0,0.0,0.0,0.0,0.0,0.0,0.0,0.0,0.0,0.0,0.0,0.0,0.0,0.0,0.0,0.0,0.0,0.0,0.0,0.0,0.0,0.0,0.0,0.0,0.0,0.0,0.0,0.0,0.0,0.0,0.0,0.0,0.0,0.0,0.0,0.0,0.0,0.0,0.0,0.0,0.0,0.0,0.0,0.0,0.0,0.0,0.0,0.0,0.0,0.0,0.0,0.0,0.0,0.0,0.0,0.0897,0.1703,0.1703,0.1703,0.1703,0.1703,0.0762,0.0807,0.3224,0.5588,0.7951,1.0357,1.2774,1.4299,1.4299,1.4299,1.4299,1.4299,1.4299,1.4299,1.4299,1.4299,1.4299,1.4299,1.4299,1.4299,1.4299,1.4299,1.4299,1.4299,1.4299,1.4299,1.4299,1.4299,1.4299,1.4299,1.4299,1.4299,1.4299,1.4299,1.4299,1.4299,1.4299,1.4299,1.4299,1.4299,1.4299,1.4299,1.4299,1.4299,1.4299,0.0,0.0,0.0,0.0,0.0,0.0,0.0,0.0,0.0,0.0,0.0,0.0,0.0,0.0,0.0,0.0,0.0,0.0,0.0,0.0,0.0,0.0,0.0,0.0,0.0,0.0,0.0,0.0,0.0,0.0,0.0,0.0,0.0,0.0,0.0,0.0,0.0,0.0,0.0,0.0,0.0,0.0,0.0,0.0,0.0,0.0,0.0,0.0,0.0,0.0,0.0,0.0,0.0,0.0,0.0,0.0,0.0,0.0,0.0,0.0,0.0,0.0,0.0,0.0091,0.0541,0.2153,0.358,0.358,0.3938,0.4072,0.3669,0.1971,0.139,0.3803,0.5811,0.8085,1.0939,1.3046,1.4299,1.4299,1.4299,1.4299,1.4299,1.4299,1.4299,1.4299,1.4299,1.4299,1.4299,1.4299,1.4299,1.4299,1.4299,1.4299,1.4299,1.4299,1.4299,1.4299,1.4299,1.4299,1.4299,1.4299,1.4299,1.4299,1.4299,1.4299,1.4299,1.4299,1.4299,1.4299,1.4299,1.4299,1.4299,1.4299,1.4299,1.4299,0.0,0.0,0.0,0.0,0.0,0.0,0.0,0.0,0.0,0.0,0.0,0.0,0.0,0.0,0.0,0.0,0.0,0.0,0.0,0.0,0.0,0.0,0.0,0.0,0.0,0.0,0.0,0.0,0.0,0.0,0.0,0.0,0.0,0.0,0.0,0.0,0.0,0.0,0.0,0.0,0.0,0.0,0.0,0.0,0.0,0.0,0.0,0.0,0.0,0.0,0.0,0.0,0.0,0.0,0.0,0.0,0.0,0.0,0.0,0.0,0.0,0.0,0.0,0.0553,0.2639,0.3379,0.358,0.358,0.5231,0.5987,0.3982,0.3312,0.3893,0.6255,0.6879,0.8664,1.3179,1.4078,1.4299,1.4299,1.4299,1.4299,1.4299,1.4299,1.4299,1.4299,1.4299,1.4299,1.4299,1.4299,1.4299,1.4299,1.4299,1.4299,1.4299,1.4299,1.4299,1.4299,1.4299,1.4299,1.4299,1.4299,1.4299,1.4299,1.4299,1.4299,1.4299,1.4299,1.4299,1.4299,1.4299,1.4299,1.4299,1.4299,1.4299,1.4299,0.0,0.0,0.0,0.0,0.0,0.0,0.0,0.0,0.0,0.0,0.0,0.0,0.0,0.0,0.0,0.0,0.0,0.0,0.0,0.0,0.0,0.0,0.0,0.0,0.0,0.0,0.0,0.0,0.0,0.0,0.0,0.0,0.0,0.0,0.0,0.0,0.0,0.0,0.0,0.0,0.0,0.0,0.0,0.0,0.0,0.0,0.0,0.0,0.0,0.0,0.0,0.0,0.0,0.0,0.0,0.0,0.0,0.0,0.0,0.0,0.0,0.0,0.0,0.0653,0.3147,0.4766,0.6073,0.7297,0.8397,0.8797,0.7773,0.6481,0.6347,0.8708,0.9108,1.0313,1.3805,1.4299,1.4299,1.4299,1.4299,1.4299,1.4299,1.4299,1.4299,1.4299,1.304,1.2281,1.2281,1.2281,1.2281,1.2281,1.3584,1.4299,1.4299,1.4299,1.4299,1.4299,1.4299,1.4299,1.4299,1.4299,1.4299,1.4299,1.4299,1.4299,1.4299,1.4299,1.4299,1.4299,1.4299,1.4299,1.4299,1.4299,1.4299,1.4299]},{"header":{"parameterUnit":"m.s-1","parameterCategory":1,"la1":30.6,"la2":28.766,"lo1":-90.7593,"lo2":-88.6598,"dy":0.0162,"dx":0.0183,"nx":116,"ny":114,"refTime":"2024-06-20T06:00:00:Z","depth":0,"parameterNumber":3,"parameterNumberName":"V-component_of_WINDS"},"data":[0.0,0.0,0.0,0.0,0.0,0.0,0.0,0.0,0.0,0.0,0.0,0.0,0.0,0.0,0.0,0.0,0.0,0.0,0.0,0.0,0.0,0.0,0.0,0.0,0.0,0.0,0.0,0.0,0.0,0.0,0.0,0.0,0.0,0.0,0.0,0.0,0.0,0.0,0.0,0.0,0.0,0.0,0.0,0.0,0.0,0.0,0.0,0.0,0.0,0.0,0.0,0.0,0.0,0.0,0.0,0.0,0.0,0.0,0.0,0.0,0.0,0.0,0.0,0.0,0.0,0.0,0.0,0.0,0.0,0.0,0.0,0.0,0.0,0.0,0.0,0.0,0.0,0.0,0.0,0.0,0.0,0.0,0.0,0.0,0.0,0.0,0.0,0.0,0.0,0.0,0.0,0.0,0.0,0.0,0.0,0.0,0.0,0.0,0.0,0.0,0.0,0.0,0.0,0.0,0.0,0.0,0.0,0.0,0.0,0.0,0.0,0.0,0.0,0.0,0.0,0.0,0.0,0.0,0.0,0.0,0.0,0.0,0.0,0.0,0.0,0.0,0.0,0.0,0.0,0.0,0.0,0.0,0.0,0.0,0.0,0.0,0.0,0.0,0.0,0.0,0.0,0.0,0.0,0.0,0.0,0.0,0.0,0.0,0.0,0.0,0.0,0.0,0.0,0.0,0.0,0.0,0.0,0.0,0.0,0.0,0.0,0.0,0.0,0.0,0.0,0.0,0.0,0.0,0.0,0.0,0.0,0.0,0.0,0.0,0.0,0.0,0.0,0.0,0.0,0.0,0.0,0.0,0.0,0.0,0.0,0.0,0.0,0.0,0.0,0.0,0.0,0.0,0.0,0.0,0.0,0.0,0.0,0.0,0.0,0.0,0.0,0.0,0.0,0.0,0.0,0.0,0.0,0.0,0.0,0.0,0.0,0.0,0.0,0.0,0.0,0.0,0.0,0.0,0.0,0.0,0.0,0.0,0.0,0.0,0.0,0.0,0.0,0.0,0.0,0.0,0.0,0.0,0.0,0.0,0.0,0.0,0.0,0.0,0.0,0.0,0.0,0.0,0.0,0.0,0.0,0.0,0.0,0.0,0.0,0.0,0.0,0.0,0.0,0.0,0.0,0.0,0.0,0.0,0.0,0.0,0.0,0.0,0.0,0.0,0.0,0.0,0.0,0.0,0.0,0.0,0.0,0.0,0.0,0.0,0.0,0.0,0.0,0.0,0.0,0.0,0.0,0.0,0.0,0.0,0.0,0.0,0.0,0.0,0.0,0.0,0.0,0.0,0.0,0.0,0.0,0.0,0.0,0.0,0.0,0.0,0.0,0.0,0.0,0.0,0.0,0.0,0.0,0.0,0.0,0.0,0.0,0.0,0.0,0.0,0.0,0.0,0.0,0.0,0.0,0.0,0.0,0.0,0.0,0.0,0.0,0.0,0.0,0.0,0.0,0.0,0.0,0.0,0.0,0.0,0.0,0.0,0.0,0.0,0.0,0.0,0.0,0.0,0.0,0.0,0.0,0.0,0.0,0.0,0.0,0.0,0.0,0.0,0.0,0.0,0.0,0.0,0.0,0.0,0.0,0.0,0.0,0.0,0.0,0.0,0.0,0.0,0.0,0.0,0.0,0.0,0.0,0.0,0.0,0.0,0.0,0.0,0.0,0.0,0.0,0.0,0.0,0.0,0.0,0.0,0.0,0.0,0.0,0.0,0.0,0.0,0.0,0.0,0.0,0.0,0.0,0.0,0.0,0.0,0.0,0.0,0.0,0.0,0.0,0.0,0.0,0.0,0.0,0.0,0.0,0.0,0.0,0.0,0.0,0.0,0.0,0.0,0.0,0.0,0.0,0.0,0.0,0.0,0.0,0.0,0.0,0.0,0.0,0.0,0.0,0.0,0.0,0.0,0.0,0.0,0.0,0.0,0.0,0.0,0.0,0.0,0.0,0.0,0.0,0.0,0.0,0.0,0.0,0.0,0.0,0.0,0.0,0.0,0.0,0.0,0.0,0.0,0.0,0.0,0.0,0.0,0.0,0.0,0.0,0.0,0.0,0.0,0.0,0.0,0.0,0.0,0.0,0.0,0.0,0.0,0.0,0.0,0.0,0.0,0.0,0.0,0.0,0.0,0.0,0.0,0.0,0.0,0.0,0.0,0.0,0.0,0.0,0.0,0.0,0.0,0.0,0.0,0.0,0.0,0.0,0.0,0.0,0.0,0.0,0.0,0.0,0.0,0.0,0.0,0.0,0.0,0.0,0.0,0.0,0.0,0.0,0.0,0.0,0.0,0.0,0.0,0.0,0.0,0.0,0.0,0.0,0.0,0.0,0.0,0.0,0.0,0.0,0.0,0.0,0.0,0.0,0.0,0.0,0.0,0.0,0.0,0.0,0.0,0.0,0.0,0.0,0.0,0.0,0.0,0.0,0.0,0.0,0.0,0.0,0.0,0.0,0.0,0.0,0.0,0.0,0.0,0.0,0.0,0.0,0.0,0.0,0.0,0.0,0.0,0.0,0.0,0.0,0.0,0.0,0.0,0.0,0.0,0.0,0.0,0.0,0.0,0.0,0.0,0.0,0.0,0.0,0.0,0.0,0.0,0.0,0.0,0.0,0.0,0.0,0.0,0.0,0.0,0.0,0.0,0.0,0.0,0.0,0.0,0.0,0.0,0.0,0.0,0.0,0.0,0.0,0.0,0.0,0.0,0.0,0.0,0.0,0.0,0.0,0.0,0.0,0.0,0.0,0.0,0.0,0.0,0.0,0.0,0.0,0.0,0.0,0.0,0.0,0.0,0.0,0.0,0.0,0.0,0.0,0.0,0.0,0.0,0.0,0.0,0.0,0.0,0.0,0.0,0.0,0.0,0.0,0.0,0.0,0.0,0.0,0.0,0.0,0.0,0.0,0.0,0.0,0.0,0.0,0.0,0.0,0.0,0.0,0.0,0.0,0.0,0.0,0.0,0.0,0.0,0.0,0.0,0.0,0.0,0.0,0.0,0.0,0.0,0.0,0.0,0.0,0.0,0.0,0.0,0.0,0.0,0.0,0.0,0.0,0.0,0.0,0.0,0.0,0.0,0.0,0.0,0.0,0.0,0.0,0.0,0.0,0.0,0.0,0.0,0.0,0.0,0.0,0.0,0.0,0.0,0.0,0.0,0.0,0.0,0.0,0.0,0.0,0.0,0.0,0.0,0.0,0.0,0.0,0.0,0.0,0.0,0.0,0.0,0.0,0.0,0.0,0.0,0.0,0.0,0.0,0.0,0.0,0.0,0.0,0.0,0.0,0.0,0.0,0.0,0.0,0.0,0.0,0.0,0.0,0.0,0.0,0.0,0.0,0.0,0.0,0.0,0.0,0.0,0.0,0.0,0.0,0.0,0.0,0.0,0.0,0.0,0.0,0.0,0.0,0.0,0.0,0.0,0.0,0.0,0.0,0.0,0.0,0.0,0.0,0.0,0.0,0.0,0.0,0.0,0.0,0.0,0.0,0.0,0.0,0.0,0.0,0.0,0.0,0.0,0.0,0.0,0.0,0.0,0.0,0.0,0.0,0.0,0.0,0.0,0.0,0.0,0.0,0.0,0.0,0.0,0.0,0.0,0.0,0.0,0.0,0.0,0.0,0.0,0.0,0.0,0.0,0.0,0.0,0.0,0.0,0.0,0.0,0.0,0.0,0.0,0.0,0.0,0.0,0.0,0.0,0.0,0.0,0.0,0.0,0.0,0.0,0.0,0.0,0.0,0.0,0.0,0.0,0.0,0.0,0.0,0.0,0.0,0.0,0.0,0.0,0.0,0.0,0.0,0.0,0.0,0.0,0.0,0.0,0.0,0.0,0.0,0.0,0.0,0.0,0.0,0.0,0.0,0.0,0.0,0.0,0.0,0.0,0.0,0.0,0.0,0.0,0.0,0.0,0.0,0.0,0.0,0.0,0.0,0.0,0.0,0.0,0.0,0.0,0.0,0.0,0.0,0.0,0.0,0.0,0.0,0.0,0.0,0.0,0.0,0.0,0.0,0.0,0.0,0.0,0.0,0.0,0.0,0.0,0.0,0.0,0.0,0.0,0.0,0.0,0.0,0.0,0.0,0.0,0.0,0.0,0.0,0.0,0.0,0.0,0.0,0.0,0.0,0.0,0.0,0.0,0.0,0.0,0.0,0.0,0.0,0.0,0.0,0.0,0.0,0.0,0.0,0.0,0.0,0.0,0.0,0.0,0.0,0.0,0.0,0.0,0.0,0.0,0.0,0.0,0.0,0.0,0.0,0.0,0.0,0.0,0.0,0.0,0.0,0.0,0.0,0.0,0.0,0.0,0.0,0.0,0.0,0.0,0.0,0.0,0.0,0.0,0.0,0.0,0.0,0.0,0.0,0.0,0.0,0.0,0.0,0.0,0.0,0.0,0.0,0.0,0.0,0.0,0.0,0.0,0.0,0.0,0.0,0.0,0.0,0.0,0.0,0.0,0.0,0.0,0.0,0.0,0.0,0.0,0.0,0.0,0.0,0.0,0.0,0.0,0.0,0.0,0.0,0.0,0.0,0.0,0.0,0.0,0.0,0.0,0.0,0.0,0.0,0.0,0.0,0.0,0.0,0.0,0.0,0.0,0.0,0.0,0.0,0.0,0.0,0.0,0.0,0.0,0.0,0.0,0.0,0.0,0.0,0.0,0.0,0.0,0.0,0.0,0.0,0.0,0.0,0.0,0.0,0.0,0.0,0.0,0.0,0.0,0.0,0.0,0.0,0.0,0.0,0.0,0.0,0.0,0.0,0.0,0.0,0.0,0.0,0.0,0.0,0.0,0.0,0.0,0.0,0.0,0.0,0.0,0.0,0.0,0.0,0.0,0.0,0.0,0.0,0.0,0.0,0.0,0.0,0.0,0.0,0.0,0.0,0.0,0.0,0.0,0.0,0.0,0.0,0.0,0.0,0.0,0.0,0.0,0.0,0.0,0.0,0.0,0.0,0.0,0.0,0.0,0.0,0.0,0.0,0.0,0.0,0.0,0.0,0.0,0.0,0.0,0.0,0.0,0.0,0.0,0.0,0.0,0.0,0.0,0.0,0.0,0.0,0.0,0.0,0.0,0.0,0.0,0.0,0.0,0.0,0.0,0.0,0.0,0.0,0.0,0.0,0.0,0.0,0.0,0.0,0.0,0.0,0.0,0.0,0.0,0.0,0.0,0.0,0.0,0.0,0.0,0.0,0.0,0.0,0.0,0.0,0.0,0.0,0.0,0.0,0.0,0.0,0.0,0.0,0.0,0.0,0.0,0.0,0.0,0.0,0.0,0.0,0.0,0.0,0.0,0.0,0.0,0.0,0.0,0.0,0.0,0.0,0.0,0.0,0.0,0.0,0.0,0.0,0.0,0.0,0.0,0.0,0.0,0.0,0.0,0.0,0.0,0.0,0.0,0.0,0.0,0.0,0.0,0.0,0.0,0.0,0.0,0.0,0.0,0.0,0.0,0.0,0.0,0.0,0.0,0.0,0.0,0.0,0.0,0.0,0.0,0.0,0.0,0.0,0.0,0.0,0.0,0.0,0.0,0.0,0.0,0.0,0.0,0.0,0.0,0.0,0.0,0.0,0.0,0.0,0.0,0.0,0.0,0.0,0.0,0.0,0.0,0.0,0.0,0.0,0.0,0.0,0.0,0.0,0.0,0.0,0.0,0.0,0.0,0.0,0.0,0.0,0.0,0.0,0.0,0.0,0.0,0.0,0.0,0.0,0.0,0.0,0.0,0.0,0.0,0.0,0.0,0.0,0.0,0.0,0.0,0.0,0.0,0.0,0.0,0.0,0.0,0.0,0.0,0.0,0.0,0.0,0.0,0.0,0.0,0.0,0.0,0.0,0.0,0.0,0.0,0.0,0.0,0.0,0.0,0.0,0.0,0.0,0.0,0.0,0.0,0.0,0.0,0.0,0.0,0.0,0.0,0.0,0.0,0.0,0.0,0.0,0.0,0.0,0.0,0.0,0.0,0.0,0.0,0.0,0.0,0.0,0.0,0.0,0.0,0.0,0.0,0.0,0.0,0.0,0.0,0.0,0.0,0.0,0.0,0.0,0.0,0.0,0.0,0.0,0.0,0.0,0.0,0.0,0.0,0.0,4.1512,4.0473,0.0,0.0,0.0,0.0,0.0,0.0,0.0,0.0,0.0,0.0,0.0,0.0,0.0,0.0,0.0,0.0,0.0,0.0,0.0,0.0,0.0,0.0,0.0,3.1195,3.2006,3.2814,3.3276,3.351,3.351,3.351,3.351,3.351,3.2737,3.2275,3.2275,3.1394,3.0932,3.0932,3.0932,3.0932,3.0932,3.0509,2.9852,2.908,0.0,0.0,0.0,0.0,0.0,0.0,0.0,0.0,0.0,0.0,0.0,0.0,0.0,0.0,0.0,0.0,0.0,0.0,0.0,0.0,0.0,0.0,0.0,0.0,0.0,0.0,0.0,0.0,0.0,0.0,0.0,0.0,0.0,0.0,0.0,0.0,0.0,0.0,0.0,0.0,0.0,0.0,0.0,0.0,0.0,0.0,0.0,0.0,0.0,0.0,0.0,0.0,0.0,0.0,0.0,0.0,0.0,0.0,0.0,0.0,0.0,0.0,0.0,0.0,0.0,0.0,0.0,0.0,0.0,0.0,4.4628,4.3436,0.0,0.0,0.0,0.0,0.0,0.0,0.0,0.0,0.0,0.0,0.0,0.0,0.0,0.0,0.0,0.0,0.0,0.0,0.0,0.0,0.0,2.8736,3.0423,3.1388,3.2314,3.3276,3.4007,3.4472,3.4625,3.4625,3.4625,3.4625,3.4083,3.366,3.3353,3.3353,3.3353,3.3353,3.3353,3.3353,3.3353,3.3353,3.2619,3.1269,3.0962,0.0,0.0,0.0,0.0,0.0,0.0,0.0,0.0,0.0,0.0,0.0,0.0,0.0,0.0,0.0,0.0,0.0,0.0,0.0,0.0,0.0,0.0,0.0,0.0,0.0,0.0,0.0,0.0,0.0,0.0,0.0,0.0,0.0,0.0,0.0,0.0,0.0,0.0,0.0,0.0,0.0,0.0,0.0,0.0,0.0,0.0,0.0,0.0,0.0,0.0,0.0,0.0,0.0,0.0,0.0,0.0,0.0,0.0,0.0,0.0,0.0,0.0,0.0,5.0433,5.0899,5.1553,5.1553,5.1553,5.1399,4.8591,4.7437,4.7428,4.5663,0.0,0.0,0.0,0.0,0.0,0.0,0.0,0.0,0.0,0.0,0.0,0.0,0.0,0.0,0.0,0.0,0.0,0.0,0.0,2.9585,3.1349,3.2237,3.3388,3.5,3.5269,3.5619,3.6311,3.6388,3.6388,3.6388,3.7007,3.6661,3.5192,3.5154,3.5154,3.5154,3.5154,3.5154,3.5154,3.5154,3.5038,3.4769,3.3234,3.3349,3.45,0.0,0.0,0.0,0.0,0.0,0.0,0.0,0.0,0.0,0.0,0.0,0.0,0.0,0.0,0.0,0.0,0.0,0.0,0.0,0.0,0.0,0.0,0.0,0.0,0.0,0.0,0.0,0.0,0.0,0.0,0.0,0.0,0.0,0.0,0.0,0.0,0.0,0.0,0.0,0.0,0.0,4.2816,4.3855,0.0,0.0,0.0,0.0,0.0,0.0,0.0,0.0,0.0,0.0,0.0,0.0,0.0,5.2351,5.2351,5.3241,5.3703,5.3857,5.4554,5.4939,5.5054,5.5054,5.5054,5.5016,5.4554,0.0,5.0053,4.8317,0.0,0.0,0.0,0.0,0.0,0.0,0.0,0.0,0.0,0.0,0.0,0.0,0.0,0.0,0.0,0.0,0.0,0.0,0.0,0.0,0.0,3.3542,3.485,3.6077,3.6619,3.7042,3.7427,3.7427,3.7427,3.7427,3.7815,3.7661,3.6927,3.6927,3.7157,3.7623,3.8084,3.8315,3.8315,3.8315,3.8584,3.9004,3.7738,3.6546,3.5423,3.4308,0.0,0.0,0.0,0.0,0.0,0.0,0.0,0.0,0.0,0.0,0.0,0.0,0.0,0.0,0.0,0.0,0.0,0.0,0.0,0.0,0.0,0.0,0.0,0.0,0.0,0.0,0.0,0.0,0.0,0.0,0.0,0.0,0.0,0.0,0.0,0.0,0.0,0.0,0.0,4.3624,4.5351,4.574,4.6586,4.6817,0.0,0.0,0.0,0.0,0.0,0.0,0.0,0.0,0.0,5.3313,5.4164,5.4857,5.5324,5.6203,5.6626,5.6626,5.6973,5.7165,5.7165,5.7165,5.7165,5.7165,5.7165,5.6319,5.478,5.2587,5.1395,5.0813,0.0,0.0,0.0,0.0,4.7898,4.8014,0.0,0.0,0.0,0.0,0.0,0.0,0.0,0.0,0.0,0.0,0.0,0.0,3.3388,3.4734,3.5923,3.6927,3.7623,3.8084,3.8315,3.8315,3.8315,3.8315,3.8546,3.843,3.8007,3.843,3.9088,3.9935,4.0743,4.1166,4.1166,4.1166,4.1508,4.2081,4.1435,3.9662,3.7077,3.6423,3.5273,3.3737,0.0,0.0,0.0,0.0,0.0,0.0,0.0,0.0,0.0,0.0,0.0,0.0,0.0,0.0,0.0,0.0,0.0,0.0,0.0,0.0,0.0,0.0,0.0,0.0,0.0,0.0,0.0,0.0,0.0,0.0,0.0,0.0,0.0,0.0,0.0,0.0,0.0,4.6278,4.7855,4.7855,4.9548,5.0048,0.0,0.0,0.0,0.0,0.0,0.0,5.4467,5.4895,5.5549,5.6439,5.7203,5.7973,5.8594,5.9281,5.9583,5.9583,5.9358,5.9281,5.9242,5.905,5.8934,5.8934,5.8934,5.8934,5.8742,5.6203,5.4741,5.4087,5.3005,5.2202,5.1669,5.1669,5.1669,5.1784,0.0,0.0,0.0,0.0,0.0,0.0,0.0,0.0,0.0,0.0,0.0,3.3426,3.5192,3.5462,3.6157,3.7777,3.7969,3.8354,3.9165,3.9242,3.9242,3.9242,3.9977,3.9627,3.8046,3.955,4.0819,4.1658,4.2547,4.297,4.297,4.297,4.3008,4.3047,4.3008,4.2431,4.1312,3.8892,3.735,3.635,3.4664,0.0,0.0,0.0,0.0,0.0,0.0,0.0,0.0,0.0,0.0,0.0,0.0,0.0,0.0,0.0,0.0,0.0,0.0,0.0,0.0,0.0,0.0,0.0,0.0,0.0,0.0,0.0,0.0,0.0,0.0,0.0,0.0,0.0,0.0,0.0,0.0,0.0,0.0,5.0515,5.2708,0.0,0.0,0.0,0.0,5.4241,5.5049,5.6242,5.7967,5.955,6.0825,6.1672,6.2512,6.2929,6.2968,6.3045,6.3045,6.3045,6.2287,6.1903,6.1864,6.1056,6.0671,6.0671,6.0671,6.0671,6.0479,5.7901,5.6868,5.6632,5.5016,5.4357,5.4318,5.4318,5.4318,5.4434,0.0,0.0,0.0,2.6541,2.7044,2.7739,2.8549,2.9657,3.0615,3.1157,3.3196,3.4811,3.5423,3.6965,3.82,3.878,3.9319,3.9742,4.0054,4.0054,4.0319,4.0893,4.12,4.1316,4.1277,4.2358,4.3089,4.3393,4.4282,4.4705,4.4705,4.4705,4.4705,4.4705,4.4705,4.4205,4.3278,4.1273,3.9931,3.9011,3.7318,3.5815,0.0,0.0,0.0,0.0,0.0,0.0,0.0,0.0,0.0,0.0,0.0,0.0,0.0,0.0,0.0,0.0,0.0,0.0,0.0,0.0,0.0,0.0,0.0,0.0,0.0,0.0,0.0,0.0,0.0,0.0,0.0,0.0,0.0,0.0,0.0,0.0,0.0,5.3169,5.49,0.0,5.4472,5.5626,5.7049,5.8434,5.9325,6.0319,6.1467,6.2083,6.2551,6.2858,6.316,6.3314,6.3314,6.3314,6.3314,6.3314,6.3006,6.2858,6.2858,6.2551,6.2397,6.2397,6.2397,6.2127,6.1556,6.0671,5.9633,5.855,5.7934,5.7396,5.6934,5.6934,5.6934,5.7011,2.6426,2.6618,0.0,2.7351,2.7931,2.8662,2.9816,3.0698,3.1657,3.2849,3.4696,3.6115,3.6734,3.828,3.9511,4.0085,4.0358,4.0627,4.0935,4.0935,4.12,4.1773,4.2081,4.2624,4.3508,4.4047,4.4436,4.4744,4.5321,4.5594,4.5594,4.5594,4.5594,4.5594,4.5594,4.5282,4.4667,4.3547,4.2239,4.0858,3.9738,3.8427,3.7042,0.0,0.0,0.0,0.0,0.0,0.0,0.0,0.0,0.0,0.0,0.0,0.0,0.0,0.0,0.0,0.0,0.0,0.0,0.0,0.0,0.0,0.0,0.0,0.0,0.0,0.0,0.0,0.0,0.0,0.0,0.0,0.0,0.0,0.0,5.3818,5.578,5.578,5.7742,5.8671,5.7517,5.9242,6.0896,6.2012,6.3134,6.4019,6.4551,6.4852,6.5006,6.5006,6.5006,6.5006,6.5006,6.5006,6.4852,6.4589,6.4314,6.4006,6.3737,6.3429,6.3314,6.3314,6.3314,6.3012,6.2518,6.2518,6.182,6.0742,6.0165,5.9627,5.9127,5.9127,5.9127,5.9127,2.6426,2.6656,2.7198,2.8819,2.9165,2.9739,3.1429,3.2429,3.3545,3.5269,3.6231,3.7388,3.9165,3.9358,4.005,4.1696,4.1089,4.0935,4.1773,4.185,4.185,4.1889,4.2701,4.3547,4.4316,4.4355,4.4744,4.5594,4.5594,4.5594,4.5594,4.5594,4.5594,4.5594,4.5594,4.5594,4.5594,4.5594,4.4167,4.1927,4.1889,4.1354,4.0477,0.0,0.0,0.0,0.0,0.0,0.0,0.0,0.0,0.0,0.0,0.0,0.0,0.0,0.0,0.0,0.0,0.0,0.0,0.0,0.0,0.0,0.0,0.0,0.0,0.0,0.0,0.0,0.0,0.0,0.0,0.0,0.0,0.0,5.4626,5.678,5.839,5.8506,6.1352,6.2698,6.1166,6.3243,6.4705,6.4705,6.6205,6.7135,6.7135,6.7936,6.8391,6.8391,6.8391,6.8391,6.8391,6.8391,6.7975,6.7135,6.6365,6.5551,6.4705,6.3852,6.3429,6.3429,6.3429,6.3391,6.3352,6.3352,6.3314,6.3121,6.1473,6.0825,6.0825,6.0825,6.0787,6.0787,2.6541,2.7582,2.8547,2.9011,3.0163,3.116,3.1621,3.2929,3.4237,3.5346,3.6734,3.8277,3.9977,4.0739,4.1542,4.2662,4.2508,4.247,4.2739,4.2739,4.3008,4.3585,4.4436,4.5013,4.5244,4.5244,4.5359,4.5594,4.5594,4.5594,4.5594,4.5594,4.5594,4.5594,4.5594,4.5594,4.5594,4.5594,4.5205,4.4513,4.3855,4.3124,4.2277,0.0,0.0,0.0,0.0,0.0,0.0,0.0,0.0,0.0,0.0,0.0,0.0,0.0,0.0,0.0,0.0,0.0,0.0,0.0,0.0,0.0,0.0,0.0,0.0,0.0,0.0,0.0,0.0,0.0,0.0,0.0,5.5818,5.728,5.728,5.8896,6.0781,6.2666,6.3666,6.4551,6.5288,6.6019,6.6667,6.7314,6.7776,6.8045,6.8045,6.8276,6.8391,6.8391,6.8391,6.8391,6.8391,6.8391,6.8276,6.8045,6.7814,6.7583,6.7353,6.7122,6.6667,6.6051,6.6051,6.5359,6.4237,6.4237,6.3852,6.3198,6.2172,6.1749,6.1672,6.1018,6.0787,6.0787,2.7505,2.8431,2.9319,3.0047,3.1044,3.1929,3.2622,3.3891,3.5199,3.6388,3.8007,3.955,4.0896,4.1504,4.2158,4.3008,4.2777,4.2701,4.3085,4.3431,4.4124,4.5355,4.5855,4.6317,4.6629,4.6667,4.6667,4.6667,4.6667,4.6667,4.6667,4.6667,4.6667,4.6667,4.6667,4.6667,4.6629,4.6278,4.6124,4.6086,4.5205,4.4551,4.4051,4.3162,4.2547,4.2012,4.132,4.1046,4.0973,4.0631,0.0,0.0,0.0,0.0,0.0,0.0,0.0,0.0,0.0,0.0,0.0,0.0,0.0,0.0,0.0,0.0,0.0,0.0,0.0,0.0,0.0,0.0,0.0,0.0,5.8511,6.0242,6.132,6.232,6.3474,6.4974,6.5743,6.659,6.7552,6.8282,6.8898,6.9391,7.0122,7.0545,7.0545,7.0545,7.0545,7.0545,7.0161,6.9975,6.9975,6.9622,6.9276,6.893,6.893,6.8737,6.8391,6.8391,6.8122,6.7628,6.7628,6.6898,6.5667,6.5667,6.5166,6.4282,0.0,0.0,0.0,0.0,6.1325,6.1287,2.8931,2.9319,2.9893,3.1545,3.1929,3.2506,3.4087,3.508,3.6273,3.8046,3.9588,4.0896,4.1966,4.2081,4.2427,4.3316,4.2658,4.2581,4.347,4.4201,4.5316,4.6966,4.7043,4.7351,4.8082,4.8082,4.8082,4.8082,4.8082,4.8082,4.8082,4.8082,4.8082,4.8082,4.8082,4.8082,4.8043,4.7351,4.7043,4.6966,4.6206,4.5782,4.5518,4.4744,4.4436,4.4239,4.2773,4.2235,4.2119,4.1358,0.0,0.0,0.0,0.0,0.0,0.0,0.0,0.0,0.0,0.0,0.0,0.0,0.0,0.0,0.0,0.0,0.0,0.0,0.0,0.0,0.0,0.0,0.0,0.0,6.0973,6.3364,6.5827,6.6282,6.632,6.632,6.7705,6.8737,6.8814,7.0244,7.1206,7.1206,7.2622,7.3507,7.3507,7.3507,0.0,0.0,0.0,7.2367,7.2367,7.1591,7.0821,7.0129,7.0014,6.959,6.8814,6.8737,6.8622,6.8545,6.8545,6.8052,6.725,6.725,6.6789,6.5859,6.4122,6.3391,6.3198,6.2518,6.2249,6.2095,3.0077,3.0695,3.1506,3.2506,3.324,3.4048,3.508,3.5927,3.7311,3.9704,4.0285,4.1358,4.3585,4.3816,4.4162,4.5051,4.4975,4.5244,4.612,4.6312,4.6851,4.7812,4.7851,4.7928,4.8082,4.8082,4.8082,4.8082,4.8082,4.8082,4.8082,4.8082,4.8082,4.8082,4.8082,4.8082,4.8082,4.7928,4.7851,4.7851,4.7663,4.6817,4.5594,4.5398,4.5359,4.5321,4.4975,4.4859,4.4821,4.4667,4.4167,4.359,4.359,4.3128,0.0,0.0,0.0,0.0,0.0,0.0,0.0,0.0,0.0,0.0,0.0,0.0,0.0,0.0,0.0,0.0,0.0,0.0,0.0,6.2781,6.4397,6.582,6.766,6.8513,6.8975,6.8975,6.9821,7.0706,7.1398,7.2399,7.3007,7.3007,7.3315,7.3507,7.3507,7.3507,7.3507,7.3507,7.3353,7.3238,7.3238,7.3084,7.293,7.2776,7.2052,0.0,7.1437,7.0744,7.0052,6.9436,6.9436,6.893,6.816,6.816,6.7628,6.6712,6.5013,6.3929,6.3275,6.3121,6.3083,6.2929,3.216,3.2314,3.2545,3.3394,3.4276,3.5119,3.5962,3.7196,3.8469,3.9742,4.1012,4.2281,4.3547,4.3701,4.3855,4.4321,4.4359,4.5086,4.6774,4.6889,4.7466,4.8702,4.874,4.912,4.9966,5.0005,5.0236,5.0659,5.0659,5.0659,5.0659,5.0659,5.0659,5.062,5.0197,5.0005,4.9966,4.9125,4.874,4.8702,4.8274,4.7586,4.6817,4.6394,4.5975,4.5594,4.5594,4.5594,4.5594,4.5594,4.5321,4.4936,4.4936,4.4667,4.4359,0.0,0.0,0.0,0.0,0.0,0.0,0.0,0.0,0.0,0.0,0.0,0.0,0.0,0.0,5.6549,5.9094,0.0,6.2435,6.5359,6.659,6.759,6.8853,6.9783,7.0283,7.0283,7.1052,7.1898,7.2783,7.363,7.4084,7.4084,7.4507,7.4745,7.4745,7.4745,7.4745,7.4745,7.4315,7.4084,7.4084,7.3699,7.3507,7.3507,7.3053,7.286,7.2822,7.1937,7.1321,7.0937,7.0475,6.9821,6.9007,6.8584,6.7898,6.7019,6.6173,6.5359,6.4551,6.4128,6.3929,6.3814,3.4125,3.3891,3.3699,3.4548,3.5273,3.6077,3.7042,3.8392,3.9434,3.9742,4.17,4.3162,4.3316,4.347,4.3585,4.3585,4.3739,4.4778,4.7005,4.7466,4.8317,4.9817,5.0048,5.0779,5.212,5.2159,5.2505,5.3197,5.3197,5.3197,5.3197,5.3197,5.3197,5.3159,5.2467,5.2159,5.2043,5.0702,5.0048,4.9817,4.912,4.862,4.8274,4.762,4.6855,4.609,4.609,4.5975,4.5898,4.6013,4.5975,4.5898,4.6052,4.609,4.609,4.609,4.6586,0.0,0.0,0.0,0.0,0.0,0.0,0.0,0.0,5.4857,5.6049,5.7203,5.8665,6.0435,6.2672,6.4166,6.5705,6.7558,6.8436,6.9237,7.0283,7.1014,7.1475,7.1629,7.2245,7.2976,7.3661,7.4469,7.5007,7.52,7.5861,7.6322,7.6476,7.6322,7.6245,7.6245,7.5399,7.493,7.493,7.4315,7.4007,7.3969,7.3815,7.3738,7.3699,7.2822,7.2437,7.2399,7.1514,7.0706,6.986,6.9007,6.8244,6.7596,6.7398,6.6859,6.6019,6.5166,6.4859,6.4743,3.5003,3.5269,3.5462,3.6273,3.6504,3.7119,3.8742,3.9165,3.9819,4.1312,4.2431,4.3355,4.4085,4.4859,4.5321,4.5321,4.6047,4.6889,4.7889,4.9433,5.0664,5.1582,5.2351,5.2851,5.3044,5.3044,5.3082,5.3197,5.3197,5.3197,5.3197,5.3197,5.3197,5.3197,5.3082,5.3044,5.3044,5.2851,5.2313,5.162,5.15,5.0582,4.924,4.9163,4.8586,4.7817,4.7817,4.7351,4.6851,4.7582,4.7351,4.6889,4.7582,4.7817,4.7817,4.7817,4.7889,4.812,4.8894,5.0351,5.2197,5.4549,5.4741,5.5511,0.0,6.0517,6.0742,6.3128,6.4397,6.5365,6.6365,6.6673,6.7635,7.009,7.0552,7.1206,7.2853,7.3161,7.3469,7.4199,7.4361,7.4476,7.4546,7.5361,7.6169,7.6938,7.7099,7.7484,7.8176,7.7561,7.7138,7.7138,7.6322,7.5861,7.5861,7.5784,7.5707,7.5707,7.4938,7.4584,7.4546,7.3699,7.3353,7.3315,7.2437,7.1552,7.0706,6.9898,6.9513,6.9321,6.8545,6.7744,6.6865,6.6051,6.5743,6.5628,3.5154,3.55,3.5923,3.7234,3.7465,3.7853,3.9127,3.9708,4.0242,4.0935,4.1816,4.2658,4.3508,4.4359,4.4859,4.4859,4.5629,4.6932,4.874,5.0014,5.1284,5.2582,5.3005,5.3433,5.3933,5.3972,5.4203,5.4664,5.4664,5.4664,5.4664,5.4664,5.4664,5.4626,5.4164,5.3972,5.3933,5.3433,5.3005,5.2659,5.2659,5.1928,5.0851,5.0851,5.0005,4.874,4.7735,4.7197,0.0,4.7274,4.7197,4.7043,4.7851,4.7774,4.7505,4.7966,4.8817,5.0245,5.3054,5.4323,5.5357,5.7396,5.844,5.9594,6.2204,6.3281,6.4211,6.5743,6.6744,6.7628,6.8475,6.9013,6.9821,7.1398,7.2091,7.2661,7.3392,7.3892,7.4161,7.4007,7.4861,7.5668,7.6169,7.6553,7.7099,7.7946,7.7984,7.8138,7.8484,7.8176,7.7984,7.7984,7.7638,7.7445,7.7445,7.7445,7.7215,7.6746,7.6399,7.5938,7.5438,7.4584,7.3668,7.2706,7.236,7.1713,7.086,7.0552,7.0129,6.9667,6.9314,6.8622,6.7744,6.6898,6.6288,6.5865,0.0,3.55,3.5962,3.7388,3.7853,3.8354,3.9473,4.0131,4.0516,4.0516,4.147,4.2581,4.3662,4.4321,4.4667,4.4667,4.5475,4.686,4.8894,5.0279,5.1664,5.3121,5.3626,5.4164,5.4818,5.4818,5.5247,5.6055,5.6055,5.617,5.6434,5.6434,5.6434,5.6395,5.5555,5.5208,5.5131,5.4241,5.378,5.3549,5.3549,5.289,5.1885,5.1885,5.0851,4.924,4.8048,4.7274,4.6928,4.7158,4.7081,4.7043,4.7851,4.7851,4.7774,4.8851,5.0548,5.2746,5.5824,5.7132,5.8055,5.9511,6.1166,6.2704,6.3782,6.5166,6.6519,6.7596,6.8513,6.9276,6.9898,7.0706,7.1552,7.2437,7.3283,7.3892,7.4161,7.4469,7.4584,7.4238,7.5053,7.6092,7.7176,7.7292,7.7715,7.8784,7.8869,7.8946,7.9215,7.8984,7.8869,7.8869,7.8638,7.8484,7.8484,7.8484,7.8215,7.7638,7.7407,7.6984,7.6322,7.5476,7.4284,7.2899,7.2899,7.2283,7.1245,7.1245,7.0783,7.0014,7.0014,6.9513,6.866,6.8052,6.7128,6.6244,0.0,3.55,3.5769,3.658,3.7427,3.8546,4.0208,4.0477,4.0516,4.0516,4.1974,4.3701,4.5321,4.5556,4.5556,4.5556,4.6355,4.7235,4.8082,5.0466,5.2274,5.3159,5.4741,5.5631,5.567,5.567,5.6093,5.6945,5.6945,5.7401,5.8204,5.8204,5.8204,5.8159,5.7324,5.6907,5.6868,5.5978,5.5164,5.4472,5.4472,5.3433,5.1885,5.1885,5.0851,4.9394,4.9356,4.8279,4.7005,4.7812,4.7543,4.7043,4.7851,4.8663,4.9663,5.1313,5.3582,5.5593,5.5708,5.755,5.9627,6.055,6.2012,6.3698,6.5436,6.6481,6.7558,6.9283,7.0244,7.0821,7.086,7.1552,7.2437,7.3315,7.4123,7.4969,7.5822,7.5207,7.5007,7.5822,7.5207,7.5399,7.7138,7.7292,7.7977,7.9623,7.9738,8.0131,8.0977,8.0208,7.9738,7.9738,7.8938,7.8484,7.8484,7.8484,7.8484,7.8446,7.7676,7.7292,7.7215,7.6361,7.5476,7.4623,7.4623,7.3707,7.2175,7.2175,7.1636,7.086,7.086,7.036,6.9667,6.9629,6.8552,6.7058,0.0,0.0,3.6734,3.8161,3.8665,3.9242,4.0323,4.0516,4.0704,4.1277,4.2854,0.0,0.0,0.0,0.0,0.0,4.6394,4.7505,4.8856,5.0317,5.1972,5.3972,5.4587,5.5164,5.5708,5.6285,5.6709,5.6983,5.7594,5.8011,5.8313,5.8313,5.8313,5.8275,5.7973,5.7555,5.6983,5.667,5.6401,5.6093,5.5516,5.4626,5.3626,5.3626,5.151,4.8625,0.0,4.8317,4.6928,4.7197,4.712,4.7158,4.8548,4.8779,4.9202,5.2626,5.4626,5.6324,5.9171,6.0133,6.0819,6.282,6.4166,6.5474,6.7167,6.8205,6.8975,6.959,6.9937,6.9937,6.9353,7.0398,7.1629,7.2514,7.3822,7.5007,7.5861,7.6245,7.6092,7.5245,7.5899,7.6438,7.6438,7.6938,7.8015,7.9669,7.9815,8.0169,8.1054,8.0823,8.0669,8.0669,8.0362,8.0208,8.0208,8.0208,7.9939,7.9361,7.7938,7.7292,7.7292,7.6399,7.5515,7.47,7.47,7.4084,7.3014,7.2437,7.2021,7.1713,7.1129,7.0744,7.0514,7.0514,6.9783,6.8744,0.0,0.0,0.0,3.9088,3.955,0.0,0.0,0.0,0.0,0.0,0.0,0.0,0.0,0.0,0.0,0.0,0.0,4.7009,4.8432,4.9317,5.0784,5.3054,5.3433,5.3972,5.478,5.5362,5.5939,5.6555,5.7088,5.7703,5.8313,5.8313,5.8313,5.8275,5.7973,5.7517,5.6983,5.667,5.6555,5.6478,5.5593,5.478,5.401,5.3703,5.151,0.0,4.9202,4.8509,4.7235,4.6624,4.662,4.7158,4.8509,4.9817,5.1356,5.4126,5.617,5.8132,6.0902,6.1672,6.2243,6.4512,6.5705,6.6782,6.8468,6.9045,6.9321,6.9629,6.9206,6.8706,6.843,6.9276,7.0475,7.1944,7.3591,7.513,7.6284,7.6669,7.663,7.613,7.6515,7.6861,7.6899,7.7407,7.8284,7.97,8.0092,8.0516,8.1054,8.1093,8.1093,8.1093,8.1093,8.1093,8.1093,8.1093,8.0669,7.9777,7.84,7.7599,7.7292,7.6399,7.5707,7.5168,7.5168,7.47,7.3892,7.3322,7.2745,7.2136,7.1591,7.1168,7.0898,7.0898,7.0552,7.0014,0.0,0.0,0.0,0.0,0.0,0.0,0.0,0.0,0.0,0.0,0.0,0.0,0.0,0.0,0.0,0.0,0.0,0.0,4.6851,4.762,4.8817,5.0553,5.1395,5.2236,5.3121,5.3236,5.4049,5.5631,5.567,5.6549,5.8165,5.8165,5.8165,5.8121,5.7286,5.6907,5.6824,5.5978,5.5631,5.5555,5.4741,5.3933,5.3121,5.2274,5.089,4.9394,4.9433,4.8894,4.7855,4.6321,4.6432,4.7351,4.812,5.1779,5.5785,5.5862,5.8204,6.0825,6.1018,6.2204,6.3852,6.559,6.6635,6.7628,6.9283,6.9007,6.8622,6.936,6.8167,6.7205,6.8007,6.8237,6.9161,7.1675,7.3553,7.5322,7.7061,7.6669,7.6784,7.833,7.7138,7.6784,7.8369,7.8523,7.8907,7.9738,8.0554,8.1054,8.1093,8.1093,8.1093,8.1093,8.1093,8.1093,8.1093,8.1093,8.0669,7.9854,7.8977,7.8138,7.733,7.6476,7.6053,7.6015,7.6015,7.5515,7.4776,7.47,7.3745,7.2329,7.229,7.1745,7.0975,7.0975,7.0937,7.0783,0.0,0.0,0.0,0.0,0.0,0.0,0.0,0.0,0.0,0.0,0.0,0.0,0.0,0.0,0.0,0.0,0.0,0.0,4.6851,4.7081,4.7966,4.9668,5.0553,5.1395,5.2197,5.351,5.4395,5.4818,5.5401,5.5939,5.6357,5.6357,5.6357,5.6357,5.6132,5.5708,5.5131,5.4895,5.4818,5.4741,5.3895,5.339,5.3159,5.2967,5.1433,4.9471,5.013,4.9394,4.812,4.8355,4.9856,5.162,5.1813,5.4087,5.6901,5.8165,5.9627,6.1364,6.3903,6.4897,6.5628,6.7359,6.8398,6.8975,6.8776,6.8545,6.8122,6.709,6.6013,6.5128,6.4699,6.6167,6.8052,7.0014,7.2783,7.5322,7.7061,7.8169,7.8746,7.8523,7.8707,7.8746,7.8523,7.9092,7.9554,7.9777,8.0015,8.04,8.1054,8.1093,8.1093,8.1093,8.1093,8.1093,8.1093,8.1093,8.0977,8.0746,7.99,7.9015,7.8176,7.733,7.6592,7.6015,7.6015,7.5861,7.563,7.4976,7.443,7.4014,7.3399,7.2629,7.1867,7.1867,7.1475,7.086,0.0,0.0,0.0,0.0,0.0,0.0,0.0,0.0,0.0,0.0,0.0,0.0,0.0,0.0,0.0,0.0,0.0,0.0,0.0,4.6317,4.6932,4.824,4.8779,4.9394,5.0197,5.1933,5.2631,5.2241,5.3818,5.4395,5.4049,5.4434,5.4587,5.4587,5.4587,5.4357,5.3933,5.3933,5.3933,0.0,0.0,5.262,5.2582,5.2241,5.1207,5.0014,5.0515,5.0784,5.1048,5.1895,5.3126,5.4434,5.5198,5.6934,5.9017,6.0666,6.205,6.3518,6.5827,6.6705,6.7321,6.8622,6.9045,6.9007,6.8507,6.7814,6.6936,6.559,6.4359,6.3474,6.3314,6.4782,6.6821,6.9283,7.2507,7.5438,7.7522,7.8977,7.9746,7.9631,7.9746,7.9746,7.9638,8.0092,8.0362,8.0362,8.0362,8.0592,8.1054,8.1093,8.1093,8.1093,8.1093,8.1093,8.1093,8.1093,8.1093,8.1093,8.0208,7.9554,7.9015,7.783,7.7022,7.6553,7.6169,7.6015,7.5976,7.5476,7.5053,7.4661,7.4199,7.3514,7.2706,7.2329,7.1905,7.1398,0.0,0.0,0.0,0.0,0.0,0.0,0.0,0.0,0.0,4.4201,4.5051,4.5594,4.5594,4.5594,0.0,0.0,0.0,0.0,0.0,0.0,4.5936,4.6697,4.6928,4.7351,4.7928,4.963,5.0091,4.924,5.1433,5.212,5.1423,5.2159,5.2505,5.2505,5.2505,5.2505,5.2505,5.2505,5.2582,5.262,5.189,5.1659,5.1659,0.0,5.0784,5.0861,5.0976,5.2592,5.478,5.5593,5.6093,5.6632,5.8165,5.9781,6.1473,6.316,6.4705,6.6134,6.7173,6.8013,6.8737,6.9513,6.9045,6.8353,6.8122,6.6744,6.532,6.4436,6.3018,6.2133,6.2852,6.3775,6.5551,6.8975,7.2238,7.5322,7.8099,7.9246,8.0123,8.1016,8.0439,8.0285,8.1016,8.1093,8.1093,8.1093,8.1093,8.1093,8.1093,8.1093,8.1093,8.1093,8.1093,8.1093,8.1093,8.1093,8.1093,8.1093,8.0323,7.9862,7.9592,7.813,7.733,7.7099,7.6322,7.6015,7.6015,7.6015,7.5553,7.4853,7.4853,7.4392,7.3584,7.2822,7.2406,7.2098,0.0,0.0,0.0,0.0,0.0,0.0,0.0,0.0,0.0,0.0,4.5051,4.5594,4.5594,4.5594,0.0,0.0,0.0,0.0,0.0,0.0,0.0,4.5821,4.7163,4.7658,4.712,4.8779,4.9202,4.8317,4.8774,4.8889,4.8774,4.8928,4.8966,4.8966,4.8966,4.8966,4.8966,4.8966,4.9394,5.0048,4.9894,5.0279,5.0899,5.0745,0.0,0.0,5.251,5.3933,5.5631,5.6478,5.8171,5.9979,6.0287,6.1512,6.3198,6.4936,6.5667,6.6397,6.8629,6.936,6.9513,6.9667,6.9045,6.8045,6.6667,6.4974,6.3506,6.271,6.1749,6.1056,6.1204,6.2474,6.4622,6.8084,7.0898,7.4021,7.7946,7.9246,8.0123,8.1016,8.0977,8.0939,8.1093,8.1093,8.1093,8.1093,8.1093,8.1093,8.1093,8.1093,8.1093,8.1093,8.1093,8.1093,8.1093,8.1093,8.1093,8.1093,8.0939,8.0131,7.8715,7.8407,7.7561,7.6207,7.6053,7.6015,7.6015,7.6015,7.5899,7.5784,7.5784,7.5245,7.4469,7.4315,7.3399,7.2175,0.0,0.0,0.0,0.0,0.0,0.0,0.0,4.3162,4.397,4.4859,4.5321,4.5594,4.5594,4.5594,4.5594,0.0,0.0,0.0,0.0,0.0,0.0,4.6278,4.7043,4.7274,4.6928,4.8971,4.9433,4.8082,0.0,4.9389,4.812,4.8548,4.8548,4.8082,4.8082,4.8082,4.8082,4.8082,4.8586,4.9433,4.9899,5.0587,5.1356,5.1818,0.0,0.0,5.3549,5.4664,5.5824,5.6709,5.8671,6.0864,6.1325,6.232,6.3737,6.5897,6.6859,6.7667,6.9744,7.0321,7.0206,6.9821,6.8706,6.7282,6.559,6.3897,6.2435,6.1595,6.1095,6.0787,6.0787,6.2166,6.4122,6.6705,6.8859,7.186,7.6553,7.7553,7.8631,8.0823,8.1093,8.1093,8.1093,8.1093,8.1093,8.1093,8.1093,8.1093,8.1093,8.1093,8.1093,8.1093,8.1093,8.1093,8.1093,8.1093,8.1093,8.1093,8.1093,8.0669,7.9831,7.8907,7.8061,7.7246,7.6361,7.6015,7.6015,7.6015,7.6015,7.6015,7.6015,7.5745,7.5322,7.4853,7.4207,7.3399,0.0,0.0,0.0,0.0,0.0,0.0,4.2854,4.3239,4.3893,4.5398,4.5594,4.5594,4.5594,4.5782,4.5898,0.0,0.0,0.0,0.0,0.0,0.0,0.0,4.7235,4.7351,4.7158,0.0,0.0,4.8394,5.0197,0.0,0.0,0.0,0.0,0.0,4.7928,4.7851,4.7851,4.7851,4.8355,0.0,0.0,5.1164,5.2,0.0,0.0,0.0,0.0,5.5164,5.5824,5.6709,5.8325,6.0133,6.1018,6.2358,6.4006,6.6205,6.759,6.8737,7.0244,7.0783,7.0667,6.9667,6.8129,6.6397,6.4705,6.3012,6.1633,6.0941,6.0787,6.0787,6.0787,6.1897,6.3397,6.532,6.7013,6.9891,7.5014,7.6053,7.7476,8.0708,8.1093,8.1093,8.1093,8.1093,8.1093,8.1093,8.1093,8.1093,8.1093,8.1093,8.1093,8.1093,8.1093,8.1093,8.1093,8.1093,8.1093,8.1093,8.1093,8.1016,8.0785,7.9215,7.8407,7.8176,7.663,7.6015,7.6015,7.6015,7.6015,7.6015,7.6015,7.6015,7.5938,7.5245,7.4861,7.4469,0.0,0.0,0.0,0.0,0.0,0.0,4.2931,4.3701,4.4513,4.5475,4.5594,4.5594,4.5594,4.6317,4.6774,0.0,0.0,0.0,0.0,0.0,0.0,0.0,0.0,0.0,0.0,0.0,0.0,4.9279,4.874,0.0,0.0,0.0,0.0,0.0,0.0,4.7005,4.7005,4.7005,0.0,0.0,0.0,0.0,0.0,0.0,0.0,0.0,0.0,5.5631,5.5824,5.6709,5.7176,5.7517,5.8357,6.132,6.4666,6.5705,6.7128,6.8622,6.9552,7.036,7.0514,6.893,6.7244,6.5551,6.3814,6.2127,6.0902,6.0825,6.0787,6.0787,6.0787,6.0935,6.182,6.432,6.6128,6.9013,7.4084,7.6169,7.8169,8.0785,8.1093,8.1093,8.1093,8.1093,8.1093,8.1093,8.1093,8.1093,8.1093,8.1093,8.1093,8.1093,8.1093,8.1093,8.1093,8.1093,8.1093,8.1093,8.1093,8.0708,7.9892,7.8938,7.8099,7.7369,7.6399,7.6015,7.6015,7.6015,7.6015,7.6015,7.6015,7.6015,7.5976,7.5899,7.5399,7.4584,0.0,0.0,0.0,0.0,0.0,0.0,4.297,4.3778,4.4628,4.5479,4.5594,4.5782,4.6317,4.6697,4.6697,4.6163,0.0,0.0,0.0,0.0,0.0,0.0,0.0,0.0,0.0,0.0,5.089,5.089,5.1082,0.0,0.0,0.0,0.0,0.0,0.0,4.7158,4.7582,4.712,0.0,0.0,0.0,0.0,0.0,0.0,0.0,0.0,0.0,0.0,5.5747,5.6093,5.6555,5.706,5.7401,5.9358,6.1897,6.3782,6.5897,6.7936,6.9321,7.0283,7.0514,6.8814,6.7128,6.5436,6.3698,6.2012,6.0787,6.0787,6.0787,6.0787,6.0787,6.0787,6.1287,6.2864,6.3211,6.5089,7.0199,7.1507,7.3668,7.8284,7.9246,7.9939,8.1016,8.1093,8.1093,8.1093,8.1093,8.1093,8.1093,8.1093,8.1093,8.1093,8.1093,8.1093,8.1093,8.1093,8.1093,8.1093,8.1093,8.0939,8.0554,7.9138,7.833,7.7946,7.6592,7.6015,7.6015,7.6015,7.6015,7.6015,7.6015,7.6015,7.6015,7.6015,7.5784,7.5284,0.0,0.0,0.0,0.0,0.0,4.2081,4.297,4.3778,4.4628,4.5479,4.5594,4.5821,4.6432,4.6735,4.6658,4.6052,4.6547,0.0,0.0,0.0,0.0,0.0,0.0,0.0,0.0,0.0,5.1774,5.2274,5.2659,5.2472,0.0,0.0,5.0394,4.9197,0.0,0.0,0.0,0.0,0.0,0.0,0.0,0.0,0.0,0.0,0.0,0.0,0.0,0.0,0.0,0.0,0.0,5.6632,5.6632,5.7594,5.9242,6.182,6.4359,6.6667,6.8167,6.936,6.9821,6.8359,6.6744,6.5128,6.3622,6.2012,6.0787,6.0787,6.0787,6.0787,6.0787,6.0787,6.1018,6.1633,6.1826,6.3435,6.7776,6.9045,7.136,7.6322,7.7407,7.8438,8.0169,8.0785,8.1093,8.1093,8.1093,8.1093,8.1093,8.1093,8.1093,8.1093,8.1093,8.1093,8.1093,8.1093,8.1093,8.1093,8.1093,8.1093,8.1054,7.9292,7.8484,7.8407,7.6746,7.6015,7.6015,7.6015,7.6015,7.6015,7.6015,7.6015,7.6015,7.6015,7.6015,7.5784,0.0,0.0,0.0,0.0,0.0,0.0,4.297,4.3778,4.4628,4.5479,4.5594,4.5594,4.5594,4.6394,4.6889,4.6889,4.6889,0.0,0.0,0.0,0.0,0.0,0.0,0.0,0.0,0.0,5.1515,5.3197,5.2313,5.2774,5.4434,5.2697,5.1885,5.1769,0.0,0.0,0.0,0.0,0.0,0.0,0.0,0.0,5.5708,0.0,0.0,0.0,0.0,0.0,0.0,0.0,0.0,0.0,0.0,5.6324,5.7517,6.0094,6.2627,6.482,6.5705,6.7167,6.8199,6.7327,6.5859,6.4397,6.3506,6.2012,6.0787,6.0787,6.0787,6.0787,6.0787,6.0787,6.0787,6.0825,6.2935,6.5474,6.8045,7.0552,7.3137,7.5707,7.6015,7.6669,7.8369,8.0092,8.1093,8.1093,8.1093,8.1093,8.1093,8.1093,8.1093,8.1093,8.1093,8.1093,8.1093,8.1093,8.1093,8.1093,8.1093,8.1093,8.1054,7.9292,7.8484,7.8407,7.6746,7.6015,7.6015,7.6015,7.6015,7.6015,7.6015,7.6015,7.6015,7.6015,7.6015,7.5861,0.0,0.0,0.0,0.0,0.0,0.0,0.0,4.4282,4.5282,4.5556,4.5594,4.5594,4.5594,4.6394,4.6889,4.6889,4.7389,0.0,0.0,0.0,0.0,0.0,0.0,0.0,0.0,5.1241,5.1774,5.2313,5.3236,5.3664,5.3587,5.3044,5.2774,5.2697,5.0394,5.0048,0.0,0.0,0.0,0.0,5.3933,5.4972,5.5708,0.0,0.0,0.0,0.0,0.0,0.0,0.0,0.0,0.0,0.0,0.0,0.0,5.7786,6.0441,6.3057,6.3897,6.5397,6.6359,6.4859,6.4083,6.3506,6.2666,6.1595,6.0787,6.0787,6.0787,6.0787,6.0787,6.0787,6.1166,6.232,6.3198,6.4583,6.7167,6.9706,7.2245,7.4822,7.7707,7.9708,8.0208,8.0785,8.1093,8.1093,8.1093,8.1093,8.1093,8.1093,8.1093,8.1093,8.1093,8.1093,8.1093,8.1093,8.1093,8.1093,8.1093,8.1093,8.1054,7.9292,7.8484,7.8407,7.6746,7.6015,7.6015,7.6015,7.6015,7.6015,7.6015,7.6015,7.6015,7.6015,7.6015,7.5861,0.0,0.0,0.0,0.0,0.0,0.0,0.0,4.4705,4.5594,4.5594,4.5594,4.5594,4.5594,4.6394,4.7005,4.7312,4.812,0.0,0.0,0.0,0.0,0.0,0.0,0.0,5.0668,5.1202,5.1774,5.239,5.3472,5.4049,5.4126,5.3818,5.3703,5.3626,5.1702,5.1236,0.0,0.0,0.0,0.0,5.4472,5.5049,5.5247,0.0,0.0,0.0,0.0,0.0,0.0,0.0,0.0,0.0,0.0,0.0,0.0,0.0,5.8517,6.0479,6.1973,6.3397,6.4288,6.3506,6.3083,6.2704,6.221,6.1441,6.0787,6.0787,6.0787,6.0787,6.0787,6.0787,6.1127,6.2204,6.2891,6.4199,6.675,6.9283,7.1975,7.4861,7.8092,8.0131,8.0131,8.0708,8.1093,8.1093,8.1093,8.1093,8.1093,8.1093,8.1093,8.1093,8.1093,8.1093,8.1093,8.1093,8.1093,8.1093,8.1093,8.1093,8.1054,7.9292,7.8484,7.8407,7.6746,7.6015,0.0,7.6015,7.6015,7.6015,7.6015,7.6015,7.6015,7.6015,7.6015,7.5938,0.0,0.0,0.0,0.0,0.0,0.0,0.0,4.4975,4.5518,4.5594,4.5594,4.5594,4.5594,4.6432,4.7274,4.8043,4.8933,0.0,0.0,0.0,0.0,0.0,0.0,0.0,5.0668,5.0745,5.1553,5.3121,5.3236,5.4087,5.5593,5.478,5.4472,5.4549,5.3549,5.2697,0.0,0.0,0.0,0.0,5.5049,5.5208,0.0,0.0,0.0,0.0,0.0,0.0,0.0,0.0,0.0,0.0,0.0,0.0,0.0,0.0,0.0,0.0,0.0,6.1172,6.1979,6.266,6.2397,6.1903,6.1903,6.1325,0.0,6.0787,6.0787,6.0825,6.0864,6.0825,6.0864,6.1056,6.2435,6.4352,6.6821,6.9552,7.2514,7.5976,7.7753,7.8677,7.8677,8.0131,8.1093,8.1093,8.1093,8.1093,8.1093,8.1093,8.1093,8.1093,8.1093,8.1093,8.1093,8.1093,8.1093,8.1093,8.1093,8.1093,8.1054,7.9292,7.8484,7.8407,7.6746,7.6015,7.6015,7.6015,7.6015,7.6015,7.6015,7.6015,7.6015,7.6015,7.6015,7.6015,0.0,0.0,0.0,0.0,0.0,0.0,0.0,0.0,0.0,0.0,4.5594,4.5594,4.5594,4.6932,4.7889,0.0,0.0,0.0,0.0,0.0,0.0,0.0,0.0,0.0,5.0668,5.1318,5.1813,5.2197,5.3549,5.4395,5.4741,5.3895,5.4203,5.5324,5.3159,5.2467,0.0,0.0,0.0,0.0,5.5285,5.5208,0.0,0.0,0.0,0.0,5.3274,5.3197,0.0,0.0,0.0,0.0,0.0,0.0,0.0,0.0,5.5516,5.6285,5.7555,0.0,5.9088,5.8594,5.9281,6.0127,0.0,6.0473,6.0787,6.0787,6.0787,6.1018,6.1672,6.1248,6.1435,6.3397,6.4589,6.5936,6.7814,7.1975,7.6053,7.9477,8.0246,8.0477,8.0477,8.0862,8.1093,8.1093,8.1093,8.1093,8.1093,8.1093,8.1093,8.1093,8.1093,8.1093,8.1093,8.1093,8.1093,8.1093,8.1093,8.1093,8.1054,7.9292,7.8484,7.8407,7.6746,7.6015,7.6015,7.6015,7.6015,7.6015,7.6015,7.6015,7.6015,7.6015,7.6015,7.6015,0.0,0.0,0.0,0.0,0.0,0.0,0.0,0.0,0.0,0.0,4.5594,4.5594,4.5594,4.7086,4.8082,0.0,0.0,0.0,0.0,0.0,0.0,0.0,0.0,4.9822,5.0668,5.1125,5.1736,5.2505,5.3433,5.4126,5.4472,5.401,5.428,5.5088,5.3703,5.3549,0.0,0.0,5.4511,5.4549,5.5401,0.0,0.0,0.0,0.0,0.0,5.2202,5.2049,0.0,5.2049,5.2049,5.2125,0.0,0.0,0.0,0.0,5.4818,5.5324,5.617,5.7319,5.828,5.8171,5.8819,5.9588,6.0012,5.9858,5.9742,6.0127,6.0204,6.0358,6.0825,6.1172,6.1864,6.3249,6.4826,6.7167,7.0776,7.4668,7.813,8.0785,8.1093,8.1093,8.1093,8.1093,8.1093,8.1093,8.1093,8.1093,8.1093,8.1093,8.1093,8.1093,8.1093,8.1093,8.1093,8.1093,8.1093,8.1093,8.1093,8.1093,8.1054,7.9292,7.8484,7.8407,7.6746,7.6015,7.6015,7.6015,7.6015,7.6015,7.6015,7.6015,7.6015,7.6015,7.6015,7.6015,0.0,0.0,0.0,0.0,0.0,0.0,0.0,0.0,0.0,0.0,0.0,0.0,0.0,0.0,0.0,0.0,0.0,0.0,0.0,0.0,0.0,0.0,4.9976,4.9938,5.0668,5.0822,5.1587,5.3005,5.3274,5.378,5.4511,5.4511,5.4511,5.4511,5.4626,5.5049,5.567,5.4972,5.4664,5.4741,5.5439,0.0,0.0,0.0,0.0,0.0,0.0,0.0,0.0,5.0707,5.0707,5.0822,5.1505,0.0,0.0,0.0,0.0,0.0,5.5439,5.6896,5.828,5.8934,5.9319,5.9704,6.0435,5.9627,5.8896,5.955,5.9704,5.9781,6.005,6.1281,6.2364,6.2633,6.4826,6.8513,7.4284,7.6938,7.9023,8.0862,8.1093,8.1093,8.1093,8.1093,8.1093,8.1093,8.1093,8.1093,8.1093,8.1093,8.1093,8.1093,8.1093,8.1093,8.1093,8.1093,8.1093,8.1093,8.1093,8.1093,8.1054,7.9292,7.8484,7.8407,7.6746,7.6015,7.6015,7.6015,7.6015,7.6015,7.6015,7.6015,7.6015,7.6015,7.6015,7.6015,0.0,0.0,0.0,0.0,0.0,0.0,0.0,0.0,0.0,0.0,0.0,0.0,0.0,0.0,0.0,0.0,0.0,0.0,0.0,0.0,0.0,5.0707,5.0553,5.0553,5.0707,5.1356,5.1851,5.2115,5.3587,5.4357,5.4511,5.4511,5.4511,5.4511,5.5208,5.5593,5.5708,5.5555,5.5516,5.5516,5.567,0.0,0.0,0.0,0.0,0.0,0.0,0.0,0.0,5.0707,5.0707,5.0707,5.0861,0.0,0.0,0.0,0.0,0.0,5.528,5.6439,5.7247,5.7363,5.8434,5.955,5.9665,6.0089,6.0441,6.055,6.0589,6.1012,6.2468,6.2929,6.3589,6.5089,6.7436,7.0937,7.6169,7.7253,7.8361,8.0823,8.1093,8.1093,8.1093,8.1093,8.1093,8.1093,8.1093,8.1093,8.1093,8.1093,8.1093,8.1093,8.1093,8.1093,8.1093,8.1093,8.1093,8.1093,8.1093,8.1093,8.1054,7.9292,7.8484,7.8407,7.6746,7.6015,7.6015,7.6015,7.6015,7.6015,7.6015,7.6015,7.6015,7.6015,7.6015,7.6015,0.0,0.0,0.0,0.0,0.0,0.0,0.0,0.0,0.0,0.0,0.0,0.0,0.0,0.0,0.0,0.0,0.0,0.0,0.0,0.0,5.1164,5.0707,5.1125,5.1125,5.0707,5.1048,5.1467,5.1885,5.3159,5.3818,5.3818,5.428,5.4511,5.4549,5.5324,5.5708,5.5708,5.5708,5.5708,5.5708,0.0,0.0,0.0,0.0,0.0,0.0,0.0,0.0,0.0,0.0,5.0707,5.0707,5.0707,0.0,0.0,0.0,0.0,0.0,5.4587,5.567,5.6554,5.7559,5.8669,5.9627,6.0089,5.9819,5.9588,6.0012,6.0089,6.0473,6.1704,6.3083,6.5013,6.809,7.036,7.2899,7.613,7.7369,7.8561,8.0208,8.0823,8.1093,8.1093,8.1093,8.1093,8.1093,8.1093,8.1093,8.1093,8.1093,8.1093,8.1093,8.1093,8.1093,8.1093,8.1093,8.1093,8.1093,8.1093,8.1093,8.1054,7.9292,7.8484,7.8407,7.6746,7.6015,7.6015,7.6015,7.6015,7.6015,7.6015,7.6015,7.6015,7.6015,7.6015,7.6015,0.0,0.0,0.0,0.0,0.0,0.0,0.0,0.0,0.0,0.0,0.0,0.0,0.0,0.0,0.0,0.0,0.0,0.0,0.0,5.1351,5.1543,5.0745,5.1467,5.1505,5.0707,5.0899,5.1279,5.1885,5.2967,5.3587,5.3818,5.4472,5.478,5.4818,5.5439,5.5708,5.5708,5.5708,5.5708,5.5708,0.0,0.0,0.0,0.0,0.0,0.0,0.0,0.0,0.0,0.0,0.0,0.0,0.0,0.0,0.0,5.1428,5.162,5.2043,5.3972,5.4934,5.5892,5.7968,5.8882,5.9672,6.1178,6.0344,5.9629,6.08,6.09,6.1032,6.1837,6.4089,6.7051,7.0898,7.2776,7.4353,7.6053,7.7407,7.8592,7.9669,8.04,8.09,8.1093,8.1093,8.1093,8.1093,8.1093,8.1093,8.1093,8.1093,8.1093,8.1093,8.1093,8.1093,8.1093,8.1093,8.1093,8.1093,8.1093,8.0977,8.0746,7.9215,7.8407,7.8138,7.663,7.6015,7.6015,7.6015,7.6015,7.6015,7.6015,7.6015,7.6015,7.6015,7.6015,7.6015,0.0,0.0,0.0,0.0,0.0,0.0,0.0,0.0,0.0,0.0,0.0,0.0,0.0,0.0,0.0,0.0,0.0,0.0,0.0,5.1005,5.1543,5.0745,5.1467,5.1505,5.0707,5.1428,5.1846,5.1885,5.3587,5.478,5.5516,5.5593,5.5593,5.5631,5.567,5.5708,5.5708,5.5708,5.5708,5.5708,5.5708,0.0,0.0,0.0,0.0,0.0,0.0,0.0,0.0,0.0,0.0,0.0,0.0,0.0,5.0707,5.0784,5.0784,5.1323,5.3818,5.4549,5.5232,5.7834,5.8532,5.9439,6.2828,6.2899,6.2927,6.5143,6.5025,6.4715,6.5421,6.7628,7.0199,7.2892,7.4046,7.5207,7.6938,7.733,7.7977,7.9623,7.9854,8.0208,8.1016,8.1093,8.1093,8.1093,8.1093,8.1093,8.1093,8.1093,8.1093,8.1093,8.1093,8.1093,8.1093,8.1093,8.1093,8.1093,8.1093,8.0669,7.9854,7.8938,7.8099,7.733,7.6399,7.6015,7.6015,7.6015,7.6015,7.6015,7.6015,7.6015,7.6015,7.6015,7.6015,7.6015,0.0,0.0,0.0,0.0,0.0,0.0,0.0,0.0,0.0,0.0,0.0,0.0,0.0,0.0,0.0,0.0,0.0,0.0,4.9317,5.051,5.1015,5.0707,5.1467,5.1505,5.0707,5.1505,5.2159,5.2697,5.3895,5.4664,5.4972,5.5478,5.5126,5.4203,5.5241,5.5126,5.4203,5.5241,5.5401,5.5011,5.5516,5.4703,0.0,0.0,0.0,0.0,0.0,0.0,0.0,0.0,5.0707,5.0707,5.0707,5.0707,5.0707,5.0707,5.0707,5.113,5.3164,5.4087,5.5122,5.7848,5.8514,5.9308,6.2312,6.3169,6.3893,6.586,6.5936,6.5857,6.6505,6.8321,7.036,7.236,7.3822,7.513,7.6322,7.6938,7.7561,7.8169,7.9169,7.9931,8.0246,8.0785,8.1093,8.1093,8.1093,8.1093,8.1093,8.1093,8.1093,8.1093,8.1093,8.1093,8.1093,8.1093,8.1093,8.1093,8.0554,8.0123,7.9738,7.8361,7.7599,7.7253,7.6361,7.6015,7.6015,7.6015,7.6015,7.6015,7.6015,7.6015,7.6015,7.6015,7.6015,7.6015,0.0,0.0,0.0,0.0,0.0,0.0,0.0,0.0,0.0,0.0,0.0,0.0,0.0,0.0,0.0,0.0,0.0,0.0,4.8548,4.9938,5.0592,5.0284,5.1313,5.1659,5.1087,5.162,5.2313,5.3197,5.4318,5.4741,5.4511,5.5049,5.4549,5.3236,5.4395,5.428,5.3274,5.4434,5.4587,5.4164,5.4972,5.4318,0.0,0.0,0.0,0.0,0.0,0.0,0.0,0.0,5.0707,5.0707,5.0707,5.0707,5.0707,5.0707,5.1053,5.1784,5.3203,5.4434,5.5815,5.7964,5.8906,6.0006,6.2692,6.3826,6.4956,6.7221,6.7277,6.7129,6.7814,6.909,7.0629,7.2322,7.4014,7.5322,7.5938,7.6515,7.6984,7.7253,7.8323,7.9131,7.9361,8.0169,8.0708,8.0708,8.0939,8.1093,8.1093,8.1093,8.1093,8.1093,8.1093,8.1093,8.1093,8.1093,8.0977,8.0669,7.9823,7.94,7.9323,7.7946,7.7138,7.6868,7.6245,7.6015,7.6015,7.6015,7.6015,7.6015,7.6015,7.6015,7.6015,7.6015,7.6015,7.6015,0.0,0.0,0.0,0.0,0.0,0.0,0.0,0.0,0.0,0.0,0.0,0.0,0.0,0.0,0.0,0.0,0.0,0.0,4.6889,4.924,5.0284,4.9433,5.1005,5.1885,5.1885,5.1885,5.2313,5.3197,5.4857,5.5247,5.4472,5.4472,5.401,5.3159,5.3197,5.3197,5.3159,5.3197,5.3197,5.3274,5.4126,5.3433,5.2,0.0,0.0,0.0,0.0,0.0,0.0,0.0,5.0707,5.0707,5.0707,5.0707,5.0707,5.0707,5.1895,5.3395,5.4241,5.5708,5.724,5.8255,5.9788,6.1754,6.4471,6.5255,6.6385,6.9814,6.9564,6.8904,6.9579,7.036,7.1475,7.3199,7.4899,7.5976,7.6015,7.6015,7.6322,7.7176,7.7292,7.7599,7.8407,7.9285,7.9777,7.9815,8.0592,8.1093,8.1093,8.1093,8.1093,8.1093,8.1093,8.1093,8.1093,8.1093,8.0669,7.9777,7.89,7.8484,7.8446,7.7638,7.6823,7.6015,7.6015,7.6015,7.6015,7.6015,7.6015,7.6015,7.6015,7.6015,7.6015,7.6015,7.6015,7.6015,0.0,0.0,0.0,0.0,0.0,0.0,0.0,0.0,0.0,0.0,0.0,0.0,0.0,0.0,0.0,0.0,0.0,0.0,4.6851,4.762,4.8432,4.9356,4.9894,5.0433,5.1048,5.162,5.2313,5.3197,5.3703,5.351,5.2697,5.3313,5.2818,5.1476,5.2664,5.2549,5.1515,5.2702,5.2851,5.2351,5.3236,5.2928,5.1923,0.0,0.0,0.0,0.0,0.0,0.0,0.0,0.0,0.0,5.0707,5.1515,5.2241,5.1053,5.1895,5.3274,5.351,5.4818,5.6576,5.8692,6.0905,6.3185,6.5307,6.6411,6.7705,7.0417,7.0204,6.9589,6.9695,7.036,7.1283,7.2399,7.3976,7.5284,7.5899,7.6015,7.6092,7.6361,7.6945,7.7407,7.7638,7.8407,7.9131,7.9738,8.0046,8.0439,8.1054,8.1093,8.1093,8.1093,8.1093,8.1093,8.1093,8.1093,8.0669,7.9777,7.89,7.8215,7.7638,7.6784,7.6245,7.6015,7.6015,7.6015,7.6015,7.6015,7.6015,7.6015,7.6015,7.6015,7.6015,7.6015,7.6015,7.6015,0.0,0.0,0.0,0.0,0.0,0.0,0.0,0.0,0.0,0.0,4.6274,4.6542,0.0,0.0,0.0,4.6394,4.5898,0.0,4.6355,4.6697,4.7505,4.8817,4.9202,4.9822,5.0668,5.1164,5.1664,5.2202,5.2856,5.2736,5.1923,5.2428,5.1972,5.0745,5.1746,5.1433,5.0245,5.1241,5.1395,5.0966,5.1856,5.1895,5.1467,0.0,0.0,0.0,0.0,0.0,0.0,0.0,0.0,0.0,5.0707,5.1399,5.2125,5.1779,5.2895,5.4357,5.5044,5.6703,5.8594,6.0165,6.2435,6.4869,6.7023,6.8079,6.9126,7.0845,7.0524,7.0048,7.0619,7.1091,7.1822,7.3014,7.4322,7.5399,7.5938,7.6015,7.6015,7.6015,7.6476,7.6784,7.6784,7.7561,7.8253,7.8784,7.9438,8.0046,8.0554,8.09,8.1093,8.1093,8.1093,8.1093,8.1093,8.1093,8.0477,7.9285,7.8754,7.7907,7.6784,7.6245,7.6015,7.6015,7.6015,7.6015,7.6015,7.6015,7.6015,7.6015,7.6015,7.6015,7.6015,7.6015,7.6015,7.6015,0.0,0.0,4.6289,4.6289,0.0,0.0,0.0,0.0,0.0,4.5961,4.5927,4.5872,0.0,0.0,0.0,4.5594,4.5594,4.5594,4.5594,4.6432,4.7274,4.8043,4.9009,4.9899,5.0668,5.0707,5.0707,5.0707,5.2241,5.2582,5.1774,5.1774,5.1395,5.0707,5.063,5.013,4.9394,4.9317,4.9279,4.9356,5.013,5.0476,5.0553,5.1274,0.0,0.0,0.0,0.0,0.0,0.0,0.0,0.0,5.0707,5.0784,5.1207,5.2587,5.428,5.6011,5.755,5.9858,6.1903,6.2133,6.4249,6.6859,6.9244,7.0062,7.0432,7.1038,7.0522,7.0408,7.1806,7.2213,7.2822,7.4353,7.5399,7.6015,7.6015,7.6015,7.6015,7.6015,7.6015,7.6015,7.6015,7.6707,7.7215,7.7292,7.8707,7.9585,7.9669,8.0439,8.09,8.0977,8.0977,8.0977,8.0977,8.0977,8.0092,7.8407,7.8407,7.7561,7.6015,7.6015,7.6015,7.6015,7.6015,7.6015,7.6015,7.6015,7.6015,7.6015,7.6015,7.6015,7.6015,7.6015,7.6015,7.6015,0.0,0.0,4.6289,4.6289,0.0,0.0,0.0,0.0,4.6246,4.608,4.5972,4.5872,4.5799,4.5684,0.0,4.5594,4.5594,4.5594,4.5594,4.6432,4.7274,4.8043,4.9591,5.0515,5.0707,5.0707,5.0707,5.0707,5.1053,5.113,5.0976,5.0976,5.0861,5.0668,4.9976,4.9591,4.9356,4.8663,4.8394,4.8394,4.8586,4.8663,4.8663,4.8851,4.924,0.0,0.0,0.0,0.0,0.0,0.0,0.0,5.0707,5.1592,5.2472,5.1515,5.3362,5.5631,5.5395,5.7627,6.055,6.2551,6.5974,6.9206,7.036,7.0703,7.0785,7.0947,7.0819,7.0799,7.1104,7.2283,7.3353,7.3699,7.5014,7.6015,7.6015,7.6015,7.6015,7.6015,7.6015,7.6015,7.6015,7.6169,7.6553,7.7253,7.763,7.8099,7.8754,7.8946,7.9361,8.0046,8.0092,8.0092,8.0092,8.0092,7.9246,7.7561,7.7561,7.7015,7.6015,7.6015,7.6015,7.6015,7.6015,7.6015,7.6015,7.6015,7.6015,7.6015,7.6015,7.6015,7.6015,7.6015,7.6015,7.6015,0.0,0.0,0.0,0.0,0.0,0.0,0.0,0.0,4.6713,4.6093,4.5955,4.5872,4.5799,4.5684,0.0,0.0,4.5594,4.5594,4.5594,4.6432,4.7466,4.8663,4.9976,5.0707,5.0707,5.0284,5.0284,5.0707,4.9861,4.9899,5.0707,5.1087,5.1279,5.1241,5.0399,4.9784,4.9317,4.8043,4.7543,4.7543,4.7543,4.7774,4.8082,4.8082,4.8394,4.8779,4.8779,0.0,0.0,0.0,0.0,0.0,0.0,0.0,5.1972,5.1933,5.3433,5.528,5.6088,5.8473,6.155,6.4891,6.7737,6.9898,7.0706,7.0898,7.0898,7.0898,7.0898,7.1014,7.1437,7.2629,7.3623,7.4007,7.5168,7.6015,7.6015,7.6015,7.6015,7.6015,7.6015,7.6015,7.6015,7.6015,7.6207,7.663,7.7061,7.7484,7.7907,7.8292,7.8715,7.9169,7.9592,7.9592,7.9169,7.9592,7.8977,7.7292,7.7292,7.6823,7.6015,7.6015,7.6015,7.6015,7.6015,7.6015,7.6015,7.6015,7.6015,7.6015,7.6015,7.6015,7.6015,7.6015,7.6015,7.6015,0.0,0.0,0.0,0.0,0.0,0.0,0.0,0.0,0.0,4.6052,4.5892,4.5872,4.5799,4.5684,4.5594,0.0,0.0,0.0,4.5594,4.6432,4.7658,4.9317,5.0091,5.0476,5.0476,4.9784,4.9668,5.0245,4.8817,4.9048,5.0938,5.1467,5.1774,5.1846,5.0894,4.9976,4.9086,4.7394,4.6697,4.6697,4.6697,4.7081,4.7663,4.7663,4.7774,4.7889,4.7889,4.8432,4.9163,4.9163,0.0,0.0,0.0,0.0,5.0784,5.2318,5.3472,5.4741,5.6857,5.971,6.3095,6.7167,6.893,6.9898,7.0706,7.0898,7.0898,7.0898,7.0898,7.1129,7.1822,7.2822,7.3738,7.4392,7.5361,7.6015,7.6015,7.6015,7.6015,7.6015,7.6015,7.6015,7.6015,7.6015,7.6015,7.6015,7.6669,7.7092,7.7092,7.7715,7.8138,7.8292,7.8977,7.9015,7.8292,7.9015,7.8592,7.7092,7.7092,7.6707,7.6015,7.6169,7.613,7.6015,7.6015,7.6015,7.6015,7.6015,7.6015,7.6015,7.6015,7.6015,7.6015,7.6015,7.6015,7.6015,0.0,0.0,0.0,0.0,0.0,0.0,0.0,0.0,0.0,0.0,4.5976,4.5872,4.5799,4.5684,4.5594,4.5594,4.5594,4.5594,4.5594,0.0,0.0,4.9317,4.951,4.9586,4.9586,4.9471,4.9086,4.8432,4.8197,4.9351,5.1736,5.1125,5.1241,5.1846,5.0279,4.9086,4.8163,4.6475,4.5782,4.5782,4.5782,4.5821,4.5936,4.5936,4.6394,4.7043,4.7043,4.7582,4.8274,4.8274,4.8355,0.0,0.0,0.0,4.9784,5.0745,5.2125,5.3428,5.3774,5.7896,6.2941,6.6404,6.8513,6.9898,7.0706,7.0898,7.0898,7.0898,7.0898,7.0937,7.1052,7.2392,7.3546,7.3623,7.4976,7.6015,7.6015,7.6015,7.6015,7.6015,7.6015,7.6015,7.6015,7.6015,7.6015,7.6015,7.6092,7.6169,7.6169,7.6284,7.6669,7.7445,7.7561,7.7599,7.7445,7.7599,7.713,7.6169,7.6169,7.6092,7.6015,7.6784,7.6707,7.6015,7.6015,7.6015,7.6015,7.6015,7.6015,7.6015,7.6015,7.6015,7.6015,7.6015,7.6015,7.6015,0.0,0.0,0.0,0.0,0.0,0.0,0.0,0.0,0.0,0.0,0.0,4.5872,4.5799,4.5684,4.5594,4.5594,4.5594,4.5821,4.6317,4.6697,4.7428,4.8625,4.9125,4.9163,4.8663,4.8663,4.8471,4.8082,4.7163,4.874,5.262,5.1774,5.2582,5.4654,5.2505,5.1043,5.0043,4.7432,4.6052,4.5594,4.5594,4.6475,4.7552,4.6129,4.6706,4.8125,4.6663,4.6701,4.7428,4.7428,4.7735,4.8159,4.8548,0.0,0.0,0.0,5.1164,5.3005,5.539,5.9011,6.2787,6.5711,6.7705,6.9199,7.0052,7.0591,7.0898,7.0898,7.0898,7.0898,7.0898,7.1937,7.2937,7.343,7.4507,7.5438,7.5938,7.6015,7.6015,7.6015,7.6015,7.6015,7.6015,7.6015,7.6015,7.6015,7.6015,7.6015,7.6015,7.6015,7.6169,7.6553,7.7061,7.7061,7.6592,7.7061,7.6868,7.6015,7.6015,7.6015,7.6015,7.6399,7.6361,7.6015,7.6515,7.6746,7.6669,7.6207,7.6284,7.6669,7.6207,7.6015,7.6015,7.6015,7.6015,7.6015,0.0,0.0,0.0,0.0,0.0,0.0,0.0,0.0,0.0,0.0,0.0,4.5872,4.5799,0.0,0.0,0.0,4.5594,4.5898,4.6547,4.6586,4.6928,4.7774,4.8432,4.8471,4.7812,4.7812,4.7697,4.7471,4.6206,4.8206,5.3197,5.2544,5.4274,5.7852,5.4851,5.2813,5.139,4.8466,4.6971,4.6552,4.6552,4.7706,4.924,4.8014,4.8706,5.0048,4.7475,4.6971,4.7428,4.6774,4.6971,4.7509,4.7735,4.824,0.0,0.0,0.0,5.2428,5.628,5.9017,6.1518,6.4512,6.6513,6.8045,6.9122,7.0014,7.0591,7.0591,7.0744,7.0898,7.0898,7.1591,7.2476,7.3353,7.4161,7.5007,7.5861,7.6015,7.6015,7.6015,7.6015,7.6015,7.6015,7.6015,7.6015,7.6015,7.6015,7.6015,7.6015,7.6015,7.6015,7.6015,7.663,7.6669,7.6015,7.663,7.663,7.6015,7.6015,7.6015,7.6015,7.6245,7.6207,7.6053,7.6907,7.7292,7.7253,7.6823,7.6899,7.7253,7.6592,7.6207,7.6015,7.6015,7.6015,7.6015,0.0,0.0,0.0,0.0,0.0,0.0,0.0,0.0,0.0,0.0,0.0,4.5872,4.5799,4.5684,4.5594,4.5594,4.5594,4.5633,4.5667,4.5667,0.0,0.0,4.7005,0.0,4.6966,4.6966,4.6547,4.5744,4.5633,4.8206,5.3197,5.3159,5.5818,6.0435,5.628,5.3054,5.063,4.8817,4.8509,4.9202,4.9202,4.9279,4.9663,5.1933,5.289,5.2659,5.0125,4.924,4.8894,4.6475,4.5706,4.5859,4.6697,4.7005,4.7351,0.0,0.0,0.0,5.3972,5.5939,5.8248,6.2397,6.4743,6.6474,6.8084,6.9129,6.9744,6.9744,7.036,7.0898,7.0898,7.1591,7.2476,7.3353,7.4161,7.5007,7.5861,7.6015,7.6015,7.6015,7.6015,7.6015,7.6015,7.6015,7.6015,7.6015,7.6015,7.6015,7.6015,7.6015,7.6015,7.6015,7.6053,7.6053,7.6015,7.6053,7.6053,7.6015,7.6015,7.6015,7.6015,7.6868,7.6784,7.6053,7.6907,7.7292,7.7369,7.8061,7.7946,7.7292,7.7253,7.6746,7.6015,7.6015,7.6015,7.6015,0.0,0.0,0.0,0.0,0.0,0.0,0.0,0.0,0.0,0.0,0.0,0.0,0.0,4.5816,4.5722,4.5722,4.5636,4.5594,4.5594,4.5594,0.0,0.0,4.7086,4.7163,4.609,4.7124,4.7009,4.5594,4.5594,4.7668,5.1592,5.1592,5.3126,5.5895,5.4934,5.4285,5.3669,4.974,4.8586,4.9394,4.9394,5.0702,5.2587,5.1861,5.328,5.5236,5.212,5.0664,5.0091,4.9168,4.7783,4.6509,4.6812,4.6889,4.7235,4.8894,5.0014,5.113,5.3126,5.4895,5.694,6.0089,6.2545,6.4666,6.6397,6.7859,6.9007,6.959,6.9937,7.0283,7.0783,7.1168,7.1629,7.2514,7.3392,7.4199,7.5053,7.5668,7.6015,7.6015,7.6015,7.6015,7.6015,7.6015,7.6015,7.6015,7.6015,7.6015,7.6015,7.6015,7.6015,7.6015,7.6015,7.6015,7.6015,7.6015,7.6015,7.6015,7.6015,7.6015,7.6015,7.6322,7.6284,7.6053,7.6907,7.7292,7.7292,7.7015,7.7053,7.7253,7.6669,7.6284,7.6015,7.6015,7.6015,7.6015,0.0,0.0,0.0,4.8203,0.0,4.6758,4.6758,4.6484,4.6289,4.6289,0.0,0.0,0.0,0.0,4.5825,4.5825,4.5743,4.5665,4.5665,4.5633,0.0,0.0,4.6932,4.7163,4.6052,4.7124,4.7163,4.6052,4.5744,4.7206,5.0245,5.0245,5.1318,5.3197,5.2895,5.3549,5.4626,5.1241,4.9966,5.0317,5.1164,5.2549,5.4087,5.4093,5.5665,5.7467,5.4621,5.328,5.2669,5.1823,5.0048,4.8125,4.7812,4.7351,4.712,4.824,4.9356,5.0553,5.1972,5.378,5.5895,5.8473,6.0781,6.2897,6.4628,6.6359,6.7744,6.8321,6.909,6.986,7.0398,7.0706,7.1206,7.2059,7.2937,7.3776,7.4584,7.5438,7.6015,7.6015,7.6015,7.6015,7.6015,7.6015,7.6015,7.6015,7.6015,7.6015,7.6015,7.6015,7.6015,7.6015,7.6015,7.6015,7.6015,7.6015,7.6015,7.6015,7.6015,7.6015,7.6015,7.6015,7.6015,7.6015,7.6592,7.7022,7.7292,7.6984,7.7169,7.7638,7.6784,7.6438,7.6399,7.6092,7.6015,7.6015,5.0273,5.0273,5.0,4.9141,4.8242,4.7656,4.7656,4.6914,4.6367,4.6367,0.0,0.0,0.0,0.0,0.0,4.5959,4.5875,4.5819,4.578,4.5677,4.5594,4.5594,4.6471,4.6928,4.6889,4.6966,4.6966,4.6889,4.6052,4.6898,4.9317,4.9317,5.0664,5.2967,5.051,5.0779,5.3082,5.3044,5.262,5.2197,5.4587,5.4664,5.389,5.8781,6.0204,5.9319,5.7671,5.706,5.667,5.4164,5.2202,5.0592,4.9707,4.8279,4.6928,4.6966,4.8125,4.963,0.0,0.0,0.0,5.7582,5.9473,6.1166,6.2852,6.4551,6.5827,6.5859,6.7859,6.959,6.9667,7.0321,7.1129,7.1982,7.2899,7.3738,7.4546,7.5399,7.5976,7.6015,7.6015,7.6015,7.6015,7.6015,7.6015,7.6015,7.6015,7.6015,7.6015,7.6015,7.6015,7.6015,7.6015,7.6015,7.6015,7.6015,7.6015,7.6015,7.6015,7.6015,7.6015,7.6015,7.6015,7.6015,7.6015,7.6476,7.733,7.8099,7.8446,7.8369,7.7561,7.7253,7.7176,7.6322,7.6015,7.6015,5.1992,5.1992,5.1719,5.0859,5.0039,4.9258,4.8633,4.8359,4.8164,0.0,0.0,0.0,4.7262,4.7077,4.6939,4.6867,4.6779,4.649,4.5858,4.5677,4.5594,4.5594,4.7009,4.7505,4.6928,4.8086,4.8125,4.6889,4.6658,4.6889,4.7582,4.7582,4.8625,5.0433,4.9702,4.9779,5.0356,4.9159,5.062,5.3664,5.2554,5.401,5.6896,5.7049,5.8511,6.0281,5.9204,5.8434,5.7819,5.7121,5.4934,5.2125,5.0048,4.8663,4.7889,4.8509,4.9471,5.0399,5.063,0.0,0.0,0.0,0.0,0.0,6.1127,6.2364,6.3672,6.5519,6.6481,6.7321,6.8545,6.9475,7.0129,7.036,7.1591,7.286,7.3699,7.4546,7.5284,7.5938,7.6015,7.6015,7.6015,7.6015,7.6015,7.6015,7.6015,7.6015,7.6015,7.6015,7.6015,7.6015,7.6015,7.6015,7.6015,7.6015,7.6015,7.6015,7.6015,7.6015,7.6015,7.6015,7.6015,7.6015,7.6015,7.613,7.6361,7.6592,7.6669,7.6669,7.6438,7.6361,7.6322,7.6092,7.6015,7.6015,5.3086,5.3242,5.3086,5.2578,5.1797,5.1055,5.0547,4.9883,4.9453,0.0,0.0,0.0,4.8203,4.8706,4.8766,4.7994,4.7484,4.7028,4.6518,4.5964,4.5692,4.5733,4.7314,4.8005,4.759,4.8821,4.8814,4.7463,4.7092,4.6697,4.6355,4.6355,4.6894,4.7822,4.7822,4.8009,4.8279,4.6932,4.8702,5.2433,5.3087,5.4703,5.6819,5.755,5.8819,6.0242,6.0089,5.9742,5.9358,5.9358,5.7088,5.3818,5.1241,5.0082,4.9582,4.9009,5.024,5.1592,5.0899,5.2784,5.5011,5.5011,0.0,0.0,5.9973,6.0941,6.2095,6.3942,6.4865,6.5782,6.7128,6.8052,6.8859,6.959,7.0514,7.1591,7.2783,7.3976,7.4892,7.5399,7.5784,7.6015,7.6015,7.6015,7.6015,7.6015,7.6015,7.6015,7.6015,7.6015,7.6015,7.6015,7.6015,7.6015,7.6015,7.6015,7.6015,7.6015,7.6015,7.6015,7.6015,7.6015,7.6015,7.6015,7.6015,7.6015,7.6015,7.6015,7.6399,7.7015,7.6669,7.6746,7.7015,7.6669,7.6322,7.6015,0.0,5.4219,5.4258,5.4141,5.3516,5.3008,5.3008,5.1641,5.0664,0.0,5.0,4.9531,4.9726,5.082,5.0976,4.9609,4.8383,4.7692,4.7692,4.6593,4.5991,4.6033,4.7514,4.8323,4.837,4.9278,4.9266,4.8298,4.743,4.6586,4.5744,4.5633,4.5594,4.5594,4.5594,4.6013,4.6735,4.6244,4.7398,4.9933,5.4467,5.5813,5.5472,5.9127,6.0165,5.9742,6.0512,6.0864,6.0941,6.0819,5.8709,5.5703,5.3236,5.239,5.189,4.962,5.1164,5.328,5.1707,5.3554,5.5939,5.5747,5.7088,0.0,5.9088,6.005,6.1018,6.1787,6.3205,6.4589,6.5436,6.6282,6.7327,6.8898,6.936,7.0167,7.1944,7.3476,7.4469,7.4661,7.5399,7.5899,7.5976,7.6015,7.6015,7.6015,7.6015,7.6015,7.6015,7.6015,7.6015,7.6015,7.6015,7.6015,7.6015,7.6015,7.6015,7.6015,7.6015,7.6015,7.6015,7.6015,7.6015,7.6015,7.6015,7.6015,7.6015,7.6015,7.6861,7.8138,7.7445,7.7638,7.8253,7.7445,7.6746,7.613,5.4961,5.5625,5.5859,5.5156,5.4922,5.4805,5.4805,5.3906,5.3516,5.4219,5.3555,5.3555,5.4922,5.3516,5.2617,5.2969,5.0845,4.9491,4.9491,4.788,4.6916,4.6939,4.7923,4.8152,4.747,4.9543,4.9878,4.828,4.8005,4.7466,4.662,4.5936,4.5594,4.5594,4.5594,4.5706,4.5975,4.786,4.936,5.0515,5.1515,5.4587,5.855,5.8704,5.9511,6.0556,6.0748,6.1248,6.1749,6.1056,5.9896,5.8434,5.6593,5.5516,5.4857,5.4357,5.5208,5.6016,5.5016,5.6242,5.7473,5.6055,5.7511,0.0,5.7747,5.9209,6.0864,6.1018,6.1864,6.2826,6.3666,6.4512,6.5205,6.5551,6.7314,6.9475,7.1867,7.2476,7.3206,7.4546,7.4853,7.5245,7.5938,7.6015,7.6015,7.6015,7.6015,7.6015,7.6015,7.6015,7.6015,7.6015,7.6015,7.6015,7.6015,7.6015,7.6015,7.6015,7.6015,7.6015,7.6015,7.6015,7.6015,7.6015,7.6015,7.6015,7.6015,7.6015,7.6207,7.6476,7.6322,7.6784,7.7445,7.6553,7.6592,7.6938,5.5859,5.6289,5.6601,5.6601,5.6601,5.6758,5.7187,5.6523,5.6094,5.6523,5.6601,5.6601,5.6601,5.582,5.5117,5.4687,5.2614,5.1162,5.0732,4.9362,4.844,4.8042,4.883,4.904,4.8605,5.0164,5.0319,4.8945,4.839,4.7697,4.6889,4.6089,4.6152,4.694,4.6492,4.6762,4.7658,4.8415,4.974,5.1433,5.3169,5.5862,5.8934,5.9396,6.0325,6.1441,6.1441,6.1979,6.2512,6.1243,6.0512,5.9858,5.8171,5.7934,5.7978,5.6709,5.7555,5.8517,5.6824,5.7594,5.8588,5.7319,5.8242,0.0,0.0,5.9242,6.0281,6.0704,6.1133,6.171,6.2551,6.3051,6.3628,6.4474,6.6051,6.759,6.8866,7.0867,7.2521,7.336,7.386,7.4276,7.4707,7.513,7.5515,7.5976,7.6015,7.6015,7.6015,7.6015,7.6015,7.6015,7.6015,7.6015,7.6015,7.6015,7.6015,7.6015,7.6015,7.6015,7.6015,7.6015,7.6015,7.6015,7.6015,7.6015,7.6015,7.6015,7.6015,7.6053,7.6476,7.6907,7.7292,7.7253,7.6976,7.663,5.6445,5.6758,5.7031,5.7578,5.793,5.8398,5.9101,5.8594,5.8203,5.8359,5.914,5.9219,5.7969,5.8164,5.8008,5.7109,5.4844,5.3281,5.293,5.1552,5.0495,4.9922,5.0145,5.0241,5.0225,5.0801,5.0595,4.9611,4.8587,4.7797,4.7152,4.6404,4.6781,4.8072,4.7698,4.8412,4.9819,4.9135,5.0404,5.3121,5.6055,5.7473,5.8011,6.0012,6.1133,6.1672,6.2364,6.3012,6.3314,6.1781,6.1281,6.0973,5.9319,5.9819,6.0594,5.8363,5.9325,6.0556,5.8325,5.8825,5.9742,5.8781,5.939,6.005,0.0,0.0,0.0,6.0473,6.0671,6.1018,6.171,6.1864,6.2287,6.3666,6.4743,6.5397,6.5397,6.8635,7.1097,7.1437,7.236,7.3084,7.3238,7.3699,7.4476,7.5668,7.5438,7.5476,7.5976,7.6015,7.6015,7.6015,7.6015,7.6015,7.6015,7.6015,7.6015,7.6015,7.6048,7.6048,7.6015,7.6048,7.6048,7.6015,7.6015,7.6015,7.6015,7.6015,7.6015,7.6053,7.6784,7.7138,7.7369,7.783,7.7292,7.6322,5.6562,5.7226,5.7539,5.6875,5.8047,5.9101,5.918,5.9101,5.9297,6.0039,6.0859,6.164,6.2226,6.0976,6.0976,6.3086,5.8906,5.6758,5.8203,5.5312,5.3515,5.3437,5.2031,5.1204,5.1086,5.1076,5.0592,4.9593,4.8579,4.8107,4.8132,4.7326,4.7078,4.739,4.8839,4.997,5.0776,5.1385,5.3498,5.6516,5.7665,5.728,5.6362,5.9556,6.0396,6.0204,6.3243,6.4359,6.432,6.3352,6.3006,6.2737,6.105,6.1172,6.1749,6.0671,6.1133,6.171,6.0671,6.1056,6.1402,5.9781,6.1121,6.2083,5.9121,0.0,6.1402,5.9935,0.0,6.0825,6.0941,0.0,0.0,6.121,6.2551,6.3583,6.3583,6.5359,6.7167,6.866,7.0244,7.1514,7.229,7.1745,7.2322,7.4661,7.3476,7.3637,7.5861,7.6015,7.6015,7.6015,7.6015,7.6015,7.6015,7.6015,7.6015,7.6015,7.6191,7.6179,7.6029,7.6185,7.616,7.6015,7.6015,7.6015,7.6015,7.6015,7.6015,7.6015,7.6092,7.663,7.7215,7.6553,7.663,7.7061,5.6797,5.7305,5.7773,5.7422,5.875,5.9883,5.9883,6.1172,6.2109,6.1914,6.2656,6.3711,6.5117,6.3242,6.2773,6.4883,6.2148,6.0,5.9258,5.7812,5.6562,5.5547,5.4336,5.3355,5.2729,5.2189,5.1453,5.0452,4.9543,4.8845,4.84,4.8143,4.8594,4.9645,5.0815,5.2351,5.3957,5.3712,5.434,5.567,5.7016,5.6786,5.617,6.0589,6.2358,6.2704,6.4666,6.5359,6.5128,6.3775,6.3314,6.3198,6.2474,6.2166,6.2133,6.2204,6.2166,6.1903,6.1056,6.1441,6.1787,6.0556,6.1435,6.2089,6.0204,6.0594,6.1133,6.0396,0.0,0.0,0.0,0.0,0.0,0.0,6.1826,6.2435,6.1935,6.332,6.5051,6.6744,6.7552,6.8513,6.986,6.9667,7.0514,7.3053,7.2598,7.3091,7.513,7.5745,7.6015,7.6015,7.6015,7.6015,7.6015,7.6115,7.6179,7.6185,7.6366,7.6434,7.6359,7.6316,7.6266,7.6166,7.6038,7.6015,7.6015,7.6015,7.6015,7.6015,7.6015,7.6207,7.6553,7.6707,7.6669,7.6553,5.7578,5.8008,5.8515,5.8281,5.9648,6.0859,6.1094,6.2734,6.3789,6.3398,6.4101,6.5312,6.707,6.5547,6.5312,6.7539,6.5703,6.3633,6.1797,6.0781,5.957,5.8047,5.6719,5.566,5.4879,5.3549,5.2378,5.1444,5.0325,4.9487,4.8927,4.8974,4.9707,5.1012,5.251,5.4271,5.6116,5.5849,5.608,5.6709,5.7901,5.844,5.8825,6.182,6.382,6.5051,6.5667,6.5904,6.5673,6.4166,6.366,6.3622,6.3391,6.3051,6.2864,6.3198,6.3051,6.2557,6.1441,6.1787,6.2172,6.1056,6.1441,6.1864,6.1018,6.0979,6.1095,6.0864,6.0979,0.0,0.0,0.0,6.0787,6.0787,0.0,6.1518,6.0902,6.1858,6.3166,6.4673,6.548,6.6551,6.8237,6.7776,6.8629,7.1629,7.1213,7.1937,7.4546,7.5284,7.5745,7.5976,7.6015,7.6015,7.6015,7.6128,7.6254,7.63,7.6484,7.6582,7.6618,7.6523,7.6438,7.6361,7.6166,7.6086,7.6079,7.602,7.6015,7.6015,7.6015,7.6015,7.6092,7.6707,7.6553,7.6092,5.914,5.9765,6.0078,5.9297,6.0547,6.1953,6.2773,6.3008,6.332,6.414,6.5039,6.6211,6.7969,6.8086,6.9375,7.2773,6.9961,6.8008,6.793,6.4765,6.2461,6.1562,5.914,5.773,5.7576,5.5073,5.3277,5.2269,5.06,4.9835,4.9947,4.9835,4.9843,5.0183,5.3403,5.5242,5.6019,5.7693,5.9722,6.1864,6.1903,6.3403,6.532,6.3018,6.3672,6.5865,6.5897,6.5904,6.5743,6.4859,6.4551,6.4397,6.3583,6.3852,6.4359,6.3545,6.3891,6.4166,6.2518,6.2666,6.2852,6.1204,6.1441,6.1864,6.1018,6.1441,6.1826,6.0979,6.1479,6.1787,6.0979,6.0787,6.0787,6.0787,6.0825,0.0,0.0,6.0864,6.121,6.2095,6.4403,6.6551,6.8237,6.616,6.6436,7.0629,6.8667,6.9436,7.443,7.4738,7.5123,7.5976,7.6015,7.6015,7.6015,7.6029,7.6095,7.6289,7.6518,7.6582,7.6628,7.6778,7.6765,7.656,7.64,7.6273,7.6289,7.6086,7.6015,7.6015,7.6015,7.6015,7.6015,7.6015,7.6015,7.6015,6.0859,6.1055,6.082,5.9453,6.0586,6.2187,6.3633,6.4844,6.6289,6.8281,6.8789,7.0312,7.3789,7.2617,7.25,7.4805,7.289,7.0859,6.9101,6.7383,6.6055,6.5195,6.2109,6.039,6.0347,5.7846,5.5772,5.4276,5.373,5.2822,5.1663,5.1607,5.1578,5.165,5.4495,5.6136,5.6914,5.9172,6.0234,6.0473,6.1633,6.3634,6.5827,6.4942,6.5134,6.5904,6.5904,6.5904,6.5865,6.5551,6.5089,6.4666,6.4936,6.4436,6.3814,6.4083,6.3968,6.3622,6.3051,6.3935,6.4628,6.2897,6.3128,6.3397,6.1979,6.2281,6.2512,6.1089,6.1935,6.2474,6.105,6.0787,6.0787,6.0787,6.0787,6.0787,0.0,6.0787,6.1133,6.1979,6.332,6.4205,6.4243,6.4436,6.5667,6.8174,6.8129,6.9436,7.286,7.4091,7.4853,7.5123,7.5707,7.6015,7.6015,7.6141,7.6289,7.6514,7.6715,7.6864,7.6996,7.6933,7.686,7.6768,7.6452,7.6295,7.6273,7.6093,7.6015,7.6015,7.6015,7.6015,7.6015,7.6015,7.6015,7.6015,6.1758,6.1719,6.1367,6.0273,6.1484,6.3125,6.4531,6.6758,6.8945,7.0898,7.1719,7.3398,7.6836,7.5703,7.539,7.7109,7.5976,7.3906,7.0976,7.0312,6.9062,6.6992,6.5039,6.3594,6.2656,6.039,5.8358,5.6593,5.5656,5.4581,5.3327,5.268,5.2466,5.2792,5.5028,5.6594,5.7766,6.063,6.1609,6.1435,6.2864,6.4442,6.5904,6.5904,6.5904,6.5904,6.5904,6.5904,6.5936,6.6244,6.5942,6.5628,6.6513,6.6006,6.5237,6.5776,6.5545,6.5045,6.4743,6.5474,6.5974,6.4589,6.4666,6.4628,6.2897,6.3166,6.3352,6.1973,6.232,6.282,6.2666,6.1633,6.1012,6.1589,6.1204,6.0787,0.0,6.0787,6.1018,6.1556,6.2358,6.2897,6.298,6.3435,6.4634,6.6942,6.7359,6.8744,7.1598,7.336,7.4392,7.47,7.5553,7.6015,7.6015,7.6134,7.6284,7.651,7.6709,7.688,7.71,7.7048,7.7001,7.6993,7.6564,7.6405,7.6376,7.6108,7.6015,7.6015,7.6015,7.6015,7.6015,7.6015,7.6015,7.6015,6.1953,6.1875,6.1953,6.1992,6.3281,6.4648,6.5703,6.8594,7.1015,7.2109,7.375,7.5469,7.7265,7.7422,7.8047,7.9648,7.9023,7.7148,7.3789,7.3476,7.1601,6.7539,6.793,6.7109,6.4687,6.2773,6.093,5.9078,5.6578,5.5241,5.4997,5.3148,5.272,5.3522,5.5109,5.6697,5.8473,6.1864,6.3852,6.4782,6.5628,6.5974,6.6019,6.6019,6.6019,6.6019,6.5981,6.5974,6.6134,6.6904,6.7173,6.7321,6.8122,6.8391,6.8391,6.8391,6.8391,6.8237,6.7398,6.7212,6.7019,6.6244,6.6019,6.559,6.3891,6.416,6.4551,6.3622,6.2897,6.3095,6.5365,6.3134,6.1435,6.2929,6.1858,6.0787,6.0787,6.0787,6.0787,6.0787,6.1518,6.2672,6.4243,6.3057,6.3518,6.675,6.6288,6.7282,7.0667,7.2392,7.3699,7.4623,7.5476,7.5976,7.6015,7.6015,7.6081,7.6289,7.6518,7.6712,7.6878,7.71,7.7187,7.7146,7.6755,7.6606,7.6537,7.6154,7.6015,7.6015,7.6015,7.6015,7.6015,7.6015,7.6015,7.6015,6.2851,6.4219,6.5781,6.6406,6.5273,6.5469,6.8867,6.9648,7.1289,7.5312,7.6836,7.8398,8.0742,8.039,8.0195,8.0625,7.9883,7.875,7.7265,7.5937,7.4726,7.3633,7.0703,6.9062,6.9062,6.5416,6.2929,6.1816,5.9748,5.8045,5.6723,5.5644,5.4932,5.4577,5.6125,5.7132,5.7878,6.1686,6.4512,6.6481,6.6712,6.7167,6.7776,6.7776,6.7776,6.7667,6.7013,6.7205,6.7776,6.8007,6.809,6.8122,6.8314,6.8391,6.8391,6.8391,6.8391,6.8353,6.8122,6.8552,6.8821,6.7968,6.7776,6.7475,6.6359,6.6821,6.7006,6.5551,6.6051,6.6205,6.4314,6.3237,6.2391,6.155,6.1089,6.0787,6.0787,6.0787,6.0787,6.0787,6.1018,6.1287,6.1743,6.2512,6.3628,6.5128,6.5051,6.6436,6.9821,7.0437,7.1622,7.3738,7.4623,7.5361,7.5976,7.6015,7.6081,7.6289,7.6518,7.6646,7.6699,7.6872,7.6915,7.6741,7.6497,7.6361,7.6341,7.6095,7.6015,7.6015,7.6015,7.6015,7.6015,7.6015,7.6015,7.6015,6.4805,6.7109,6.9414,7.0273,6.9219,6.9062,7.1484,7.2109,7.3476,7.6758,7.8281,7.957,8.1015,8.1406,8.1562,8.1562,8.1133,8.0156,7.8594,7.8281,7.7305,7.539,7.3711,7.2344,7.1289,6.8078,6.5597,6.3928,6.1727,5.9716,5.794,5.6742,5.5927,5.553,5.6667,5.7649,5.8672,6.2762,6.5346,6.6709,6.7578,6.8166,0.0,6.8625,6.8812,6.9001,6.8506,6.8371,6.8468,6.8853,6.8968,6.9045,6.9391,6.9475,6.9475,6.9475,6.9475,6.9475,6.9475,6.986,7.0129,6.9629,6.9475,6.9167,6.7936,6.8045,6.8122,6.7205,6.7167,6.7051,6.6237,6.4545,6.2737,6.1056,6.0787,6.0787,6.0787,6.0787,6.0787,6.0787,6.0787,6.0787,6.0787,6.1666,6.2704,6.3929,6.4397,6.5628,6.7936,6.9436,7.1052,7.286,7.4091,7.513,7.5976,7.6015,7.6045,7.6166,7.6356,7.6475,7.6484,7.669,7.6715,7.6571,7.6371,7.6295,7.6278,7.6093,7.6015,7.6015,7.6015,7.6015,7.6015,7.6015,7.6015,7.6015,6.789,7.039,7.2734,7.3515,7.3828,7.4062,7.4297,7.5312,7.6406,7.7383,7.8984,8.0039,8.0039,8.1406,8.2304,8.2304,8.2304,8.1367,7.914,8.0234,7.9336,7.5586,7.668,7.5898,7.2734,7.0742,6.8389,6.5726,6.3101,6.0756,5.8673,5.7242,5.651,5.6434,5.7129,5.8459,6.0489,6.4339,6.617,6.6627,6.8366,6.9127,6.9244,6.9244,6.9601,7.0113,7.0113,6.9518,6.8853,6.959,6.986,6.9975,7.0667,7.0898,7.0898,7.0898,7.0898,7.0898,7.0898,7.0898,7.0898,7.0898,7.0898,7.0514,6.9045,6.8737,6.8737,6.8737,6.7475,6.7013,6.8975,6.6045,6.2775,6.1204,6.0979,6.0979,6.0979,6.0864,6.0787,6.0787,6.0787,0.0,6.0787,6.0787,6.1435,6.3006,6.3743,6.4628,6.5827,6.8667,7.0783,7.1982,7.3668,7.4969,7.5822,7.5938,7.6015,7.5984,7.6183,7.6306,7.6277,7.6479,7.6568,7.6527,7.6343,7.6272,7.626,7.6079,7.6015,7.6015,7.6015,7.6053,7.6169,7.6169,7.6245,7.6322,7.3125,7.4297,7.5273,7.543,7.664,7.8047,7.9453,7.8125,7.7539,7.9062,8.0781,8.1836,8.1836,8.2109,8.2304,8.2304,8.2304,8.2109,8.164,8.125,8.0664,7.9922,7.8867,7.7656,7.6328,7.3071,7.0077,6.7446,6.4748,6.1843,5.8863,5.8552,5.812,5.7648,5.8295,6.0263,6.3201,6.4766,6.6579,6.849,6.9539,7.0402,7.1057,7.1057,7.1114,7.1237,7.1237,7.0888,7.0475,7.0629,7.0706,7.0706,7.086,7.0898,7.0898,7.0898,7.0898,7.0898,7.0898,7.0898,7.0898,7.0898,7.0898,7.0821,7.0514,7.0475,7.0475,7.0475,6.9706,6.8744,6.775,6.5205,6.3006,6.2018,6.1864,6.1864,6.1864,6.1248,6.0787,6.0787,6.0787,6.0787,6.0787,6.0787,6.121,6.2249,6.1787,6.2743,6.575,6.6481,6.809,7.1052,7.2815,7.4084,7.4938,7.563,7.6015,7.5984,7.6189,7.6201,7.6052,7.6277,7.6277,7.6088,7.6066,7.6038,7.6031,7.6005,7.6015,7.6015,7.6015,7.6438,7.7061,7.7061,7.7484,7.7984,7.6445,7.7305,7.8008,7.8476,7.9609,8.0898,8.2148,8.1679,8.1015,8.0469,8.0703,8.0937,8.0937,8.1758,8.2304,8.2304,8.2304,8.2304,8.2304,8.1914,8.1484,8.1015,8.0234,7.918,7.789,7.5268,7.241,6.9363,6.6683,6.3674,6.0338,5.9907,5.9291,5.8633,5.9736,6.1331,6.3328,6.5646,6.7337,6.8544,7.0393,7.1384,7.1772,7.1772,7.17,7.1607,7.1607,7.1411,7.1193,7.1193,7.1137,7.1044,7.1044,7.0966,7.0898,7.0898,7.0898,7.0898,7.0898,7.0898,7.0898,7.0898,7.0998,7.1044,7.1044,7.1126,7.1041,7.05,7.0079,6.9105,6.6897,6.4743,6.316,6.2781,6.2364,6.2095,6.2095,6.1749,6.1325,6.0864,6.0787,6.0787,6.0787,6.0787,6.0979,6.1402,6.1441,6.2358,6.4436,6.5397,6.7244,7.0167,7.1937,7.3437,7.47,7.5553,7.6015,7.6015,7.6081,7.6075,7.5984,7.6088,7.6075,7.6015,7.6015,7.6015,7.6015,7.6015,7.6015,7.6015,7.6015,7.6515,7.7292,7.7292,7.7792,7.8446,7.914,7.9805,8.0469,8.1172,8.1992,8.2851,8.375,8.4453,8.414,8.2109,8.1211,8.082,8.082,8.1875,8.2578,8.2578,8.2422,8.2304,8.2304,8.2304,8.1992,8.1328,8.1289,8.0586,7.9062,7.7344,7.4726,7.125,6.8672,6.5547,6.1953,6.1094,6.0351,5.9805,6.1388,6.2628,6.3733,6.7092,6.8482,6.8721,7.1443,7.2344,7.2031,7.2226,7.2063,7.1756,7.1756,7.171,7.158,7.1549,7.1416,7.1252,7.1198,7.1103,7.096,7.0919,7.0898,7.0898,7.0898,7.0898,7.0898,7.0898,7.1038,7.1216,7.1216,7.1374,7.1205,7.0179,6.9634,6.8584,6.6081,6.4666,6.3737,6.3352,6.2935,6.2557,6.2364,6.221,6.1864,6.1172,6.0902,6.0787,6.0787,6.0787,6.0787,6.0787,6.1441,6.2249,6.3237,6.4782,6.6705,6.9052,7.1136,7.2822,7.4168,7.5399,7.6015,7.6015,7.6015,7.6015,7.6015,7.6015,7.6015,7.6015,7.6015,7.6015,7.6015,7.6207,7.6284,7.6284,7.6476,7.7053,7.7823,7.7823,7.8369,7.9061,8.1758,8.1992,8.207,8.2148,8.289,8.3789,8.4648,8.4844,8.4804,8.457,8.4453,8.4414,8.4414,8.3867,8.3476,8.3476,8.2773,8.2304,8.2304,8.2304,8.2265,8.2187,8.2187,8.1758,8.0781,7.9101,7.6562,7.3047,7.043,6.6992,6.2851,6.1992,6.1523,6.1523,6.3281,6.496,6.6678,6.9335,7.0429,7.0664,7.3281,7.3398,7.2109,7.289,7.2695,7.1952,7.1952,7.1952,7.1948,7.1743,7.1596,7.1424,7.1257,7.1201,7.1126,7.0953,7.0898,7.0898,7.0898,7.0898,7.0898,7.0898,7.1038,7.1216,7.1216,7.1374,7.1241,7.036,6.8812,6.7036,6.5074,6.5243,6.5128,6.3545,6.3891,6.4089,6.3314,6.2557,6.2056,6.1979,6.1287,6.0787,6.0787,6.0787,6.0787,6.0787,6.0864,6.1627,6.3198,6.4199,6.5513,6.7289,7.052,7.229,7.2444,7.4822,7.6015,7.6015,7.6015,7.6015,7.6015,7.6015,7.6015,7.6015,7.6015,7.6015,7.6053,7.6861,7.7176,7.7253,7.7984,7.8784,7.9592,7.9592,8.0131,8.0862,8.4453,8.3789,8.3594,8.5156,8.4844,8.4844,8.625,8.6445,8.6445,8.6445,8.5547,8.4883,8.4883,8.4609,8.4375,8.4375,8.3594,8.3086,8.3086,8.2578,8.2304,8.2304,8.2304,8.2148,8.1797,8.0625,7.8555,7.5625,7.3008,6.9805,6.6094,6.5234,6.5117,6.5664,6.6836,6.8047,6.9336,7.1367,7.2265,7.2383,7.3984,7.418,7.3594,7.3945,7.3867,7.3555,7.3555,7.3555,7.3515,7.3317,7.2472,7.1449,7.1262,7.1137,7.1004,7.09,7.0898,7.0898,7.0898,7.0898,7.0898,7.0898,7.1038,7.1216,7.1216,7.1435,7.1212,6.9714,6.7941,6.6385,6.5621,6.53,6.5051,6.4897,6.4705,6.4474,6.4122,6.3358,6.2627,6.2172,6.1325,6.0787,6.0787,6.0787,6.0787,6.0787,6.1287,6.2089,6.3237,6.4122,6.5359,6.7058,6.9898,7.1668,7.2175,7.4745,7.6015,7.6015,7.6015,7.6015,7.6015,7.6015,7.6015,7.6015,7.6015,7.6015,7.6015,7.6361,7.6823,7.733,7.7638,7.8592,7.9815,7.9815,8.0362,8.1093,8.6758,8.5937,8.5742,8.7851,8.7226,8.6797,8.8047,8.8008,8.7851,8.7851,8.6562,8.5664,8.5664,8.5429,8.5273,8.5273,8.4492,8.3867,8.3633,8.3008,8.2578,8.2304,8.2304,8.2304,8.2304,8.1445,8.0,7.793,7.5586,7.2812,6.9687,6.8281,6.8125,6.8984,6.9805,7.0664,7.1562,7.332,7.3906,7.3789,7.4922,7.5078,7.4648,7.4883,7.4805,7.4609,7.4609,7.4609,7.4569,7.4302,7.3334,7.2188,7.1998,7.1848,7.1724,7.1695,7.1475,7.1321,7.1591,7.1283,7.0975,7.1206,7.1231,7.1216,7.1216,7.1456,7.1164,6.9364,6.7732,6.6508,6.6176,6.5527,6.5166,6.5455,6.5205,6.4897,6.4628,6.3852,6.3083,6.2512,6.1479,6.0787,6.0787,6.0787,6.0902,6.1172,6.221,6.2974,6.3275,6.4122,6.5359,6.7058,6.9828,7.1598,7.2175,7.4745,7.6015,7.6015,7.6015,7.6015,7.6015,7.6015,7.6015,7.6015,7.6015,7.6015,7.6053,7.6515,7.7099,7.7715,7.8215,7.9131,8.0169,8.0169,8.0554,8.1093,8.8515,8.8633,8.8906,8.9804,8.9961,8.9961,8.9961,8.9258,8.8672,8.8672,8.7969,8.7461,8.7461,8.6719,8.6172,8.6172,8.539,8.4531,8.3672,8.3594,8.3203,8.2344,8.2304,8.2304,8.2304,8.1445,8.0547,7.9687,7.7969,7.582,7.3164,7.0664,6.9883,7.0703,7.1562,7.2461,7.3398,7.5117,7.5351,7.4726,7.6484,7.6133,7.4687,7.5547,7.5351,7.4609,7.4609,7.4609,7.4528,7.413,7.3975,7.3939,7.3738,7.3684,7.3624,7.3495,7.286,7.2367,7.3238,7.2206,7.1091,7.1982,7.1695,7.1216,7.1216,7.1456,7.1223,6.9546,6.8491,6.753,6.6316,6.6109,6.575,6.4799,6.532,6.559,6.4705,6.3852,6.3314,6.3275,6.182,6.0787,6.0787,6.0787,6.1172,6.2018,6.3628,6.4199,6.3352,6.4122,6.5359,6.7058,7.0405,7.2175,7.2213,7.4745,7.6015,7.6015,7.6015,7.6015,7.6015,7.6015,7.6015,7.6015,7.6015,7.6015,7.613,7.7792,7.8484,7.8677,8.0362,8.1054,8.1093,8.1093,8.1093,8.1093,9.0312,9.0,8.9844,9.0742,9.039,9.0,9.0,8.9765,8.9609,8.9609,8.9375,8.8984,8.8398,8.7578,8.7109,8.7109,8.6289,8.5664,8.539,8.4258,8.3476,8.3203,8.2617,8.2304,8.2304,8.2031,8.1445,8.0586,7.9453,7.789,7.5937,7.4531,7.4648,7.6015,7.6328,7.6875,7.7695,7.8242,7.832,7.8125,7.8672,7.8555,7.8125,7.8398,7.7969,7.7226,7.709,7.6685,7.6115,7.5688,7.5566,7.5526,7.533,7.4487,7.3581,7.3504,7.3315,7.3161,7.343,7.3084,7.2738,7.3014,7.2487,7.1934,7.2064,7.1342,7.0575,7.0155,6.8753,6.7448,6.7067,6.6885,6.6483,6.5647,6.6173,6.6442,6.559,6.4743,6.3968,6.3352,6.232,6.1441,6.0864,6.1325,6.1556,6.1248,6.2781,6.3852,6.4166,6.6083,6.743,6.7975,7.0744,7.2476,7.3091,7.5014,7.6015,7.6015,7.6015,7.6015,7.6015,7.6015,7.6015,7.6015,7.6015,7.6322,7.6945,7.7445,7.8361,7.9438,8.0015,8.0592,8.1093,8.1093,8.1093,8.1093,9.1679,9.1367,9.1133,9.1679,9.1328,9.0976,9.0976,9.0703,9.0508,9.0508,9.0195,8.9687,8.8789,8.8242,8.7812,8.7539,8.6992,8.6562,8.6211,8.5195,8.4297,8.3633,8.3086,8.2656,8.2304,8.2304,8.2031,8.1484,8.0625,7.9648,7.8594,7.7734,7.789,7.8945,7.8945,7.9219,7.9687,7.9687,7.9687,7.9687,7.9687,7.9687,7.9687,7.9687,7.9375,7.8945,7.8813,7.841,7.7841,7.7155,7.688,7.6782,7.6184,7.5284,7.443,7.443,7.4199,7.4007,7.4353,7.3969,7.3584,7.3892,7.3322,7.2648,7.2546,7.1488,7.0526,7.0427,6.937,6.8342,6.7939,6.7741,6.7464,6.6917,6.6981,6.6904,6.6404,6.5359,6.4397,6.3852,6.3051,6.232,6.1781,6.2512,6.2826,6.2281,6.4083,6.5314,6.5513,6.7051,6.8359,6.9321,7.1514,7.3091,7.393,7.5322,7.6015,7.6015,7.6015,7.6169,7.6476,7.6476,7.663,7.6938,7.6938,7.7246,7.7792,7.8092,7.8861,7.9815,8.0162,8.0631,8.1093,8.1093,8.1093,8.1093,9.2617,9.2617,9.2617,9.2617,9.2617,9.2617,9.2617,9.1914,9.1406,9.1406,9.0664,8.9844,8.8984,8.8867,8.8515,8.7656,8.7539,8.7148,8.6328,8.6211,8.5469,8.3867,8.3711,8.332,8.25,8.2422,8.2344,8.2304,8.1484,8.1094,8.1054,8.0273,7.9883,7.9883,7.9883,7.9883,7.9883,7.9883,7.9883,7.9883,7.9883,7.9883,7.9883,7.9883,7.9844,7.9805,7.9765,7.9726,7.9526,7.8381,7.7994,7.7769,7.6585,7.6195,7.6166,7.6022,7.5438,7.4976,7.5784,7.4861,7.3853,7.4584,7.4182,7.34,7.2662,7.1874,7.1092,7.0401,7.0198,6.9857,6.8859,6.8692,6.8613,6.8366,6.7667,6.7135,6.7019,6.5667,6.4666,6.4628,6.3929,6.3468,6.3391,6.416,6.4705,6.4705,6.693,6.7975,6.725,6.7289,6.8481,7.0898,7.2661,7.3969,7.4776,7.5592,7.6015,7.6092,7.613,7.6592,7.7369,7.7369,7.7792,7.8484,7.8484,7.8523,7.8638,7.9477,7.9854,7.9969,8.0785,8.1093,8.1093,8.1093,8.1093,8.1093,9.2734,9.2617,9.2617,9.2617,9.2617,9.2617,9.2617,9.2422,9.2304,9.2304,9.2109,9.164,9.0781,9.0664,9.0078,8.8554,8.7851,8.7422,8.7226,8.6562,8.6015,8.5586,8.4961,8.4492,8.4297,8.3633,8.2969,8.2304,8.2109,8.1992,8.1992,8.1797,8.1679,8.1679,8.1679,8.1679,8.1679,8.1679,8.1679,8.1679,8.1679,8.1679,8.1679,8.1679,8.1289,8.0664,8.0523,8.0038,7.9398,7.901,7.8897,7.8839,7.8544,7.8284,7.7851,7.6416,7.5861,7.5745,7.5938,7.5707,7.5438,7.563,7.5176,7.4259,7.2827,7.2339,7.1967,7.114,7.0368,6.9723,6.9489,6.9431,6.8989,6.7641,6.7782,6.7667,6.6365,6.5827,6.5359,6.4666,6.5013,6.5013,6.4359,6.5089,6.559,6.559,6.6705,6.7628,6.809,6.9321,7.0591,7.186,7.3514,7.4815,7.5668,7.5899,7.6322,7.6984,7.7599,7.8023,7.8215,7.8215,7.833,7.8484,7.8484,7.8861,7.9515,7.97,8.0208,8.0823,8.1016,8.1093,8.1093,8.1093,8.1093,8.1093,9.2773,9.2617,9.2617,9.2617,9.2617,9.2617,9.2617,9.2617,9.2617,9.2617,9.2617,9.2265,9.1406,9.1289,9.0742,8.9414,8.8515,8.789,8.7539,8.707,8.6601,8.6211,8.5742,8.5312,8.4922,8.4453,8.3789,8.289,8.25,8.2304,8.2304,8.2304,8.2304,8.2304,8.2304,8.2304,8.2304,8.2304,8.2304,8.2304,8.2304,8.2304,8.2304,8.2304,8.1992,8.1562,8.1473,8.1113,8.0635,8.0073,7.987,7.982,7.9353,7.9087,7.8797,7.7755,7.7293,7.7053,7.6669,7.6592,7.6515,7.6092,7.5431,7.4641,7.3715,7.3213,7.2711,7.1828,7.1309,7.086,7.0474,7.0474,7.0062,6.8746,6.8591,6.8163,6.6791,6.6234,6.5913,6.5762,6.6167,6.6436,6.6353,6.7128,6.7475,6.7051,6.8167,6.9052,6.9507,7.1161,7.2322,7.2783,7.4014,7.513,7.5976,7.6399,7.6823,7.733,7.8138,7.8715,7.9092,7.9092,7.9323,7.9669,7.9669,7.9977,8.04,8.04,8.0669,8.1093,8.1093,8.1093,8.1093,8.1093,8.1093,8.1093,9.3164,9.3008,9.2969,9.2812,9.2812,9.2734,9.2617,9.2617,9.2617,9.2617,9.2617,9.2304,9.1562,9.1484,9.1133,9.0273,8.9531,8.8672,8.7734,8.7695,8.7304,8.6445,8.6406,8.6054,8.5312,8.5156,8.4609,8.3594,8.2851,8.2422,8.2304,8.2304,8.2304,8.2304,8.2304,8.2304,8.2304,8.2304,8.2304,8.2304,8.2304,8.2304,8.2304,8.2304,8.2304,8.2304,8.2304,8.2304,8.2148,8.1259,8.0925,8.0795,7.9954,7.9663,7.964,7.964,7.9334,7.8767,7.7778,7.7413,7.7138,7.6361,7.5553,7.4861,7.4738,7.4161,7.343,7.2552,7.2556,7.2417,7.1565,7.1577,7.1326,7.019,6.9497,6.8659,6.7382,6.6806,6.6634,6.7058,6.7327,6.7782,6.8507,6.9283,6.9513,6.9007,7.0167,7.1014,7.1283,7.2815,7.3661,7.3661,7.4469,7.5322,7.6207,7.7061,7.7561,7.7669,7.8484,7.9285,8.0008,8.0008,8.04,8.1093,8.1093,8.1093,8.1093,8.1093,8.1093,8.1093,8.1093,8.1093,8.1093,8.1093,8.1093,8.1093,9.4961,9.4804,9.457,9.3828,9.3711,9.3437,9.2695,9.2617,9.2617,9.2617,9.2617,9.2539,9.2422,9.2383,9.2031,9.1172,9.0976,9.0234,8.8633,8.8515,8.8164,8.7344,8.7304,8.7226,8.7109,8.6367,8.5195,8.3594,8.3476,8.3008,8.2304,8.2304,8.2304,8.2304,8.2304,8.2304,8.2304,8.2304,8.2304,8.2304,8.2304,8.2304,8.2304,8.2304,8.2304,8.2304,8.2304,8.2304,8.2265,8.2108,8.2068,8.2029,8.1869,8.1682,8.1577,8.1577,8.138,8.08,7.9056,7.7961,7.7292,7.7138,7.6438,7.563,7.4853,7.4584,7.4276,7.3469,7.345,7.3318,7.2455,7.2474,7.1838,6.9461,6.9623,6.9133,6.665,6.7435,6.7998,6.7212,6.8398,6.936,6.9475,6.9629,7.0244,7.1514,7.1168,7.1552,7.3007,7.4007,7.4507,7.4507,7.5361,7.6207,7.7099,7.7907,7.8677,7.9438,8.0285,8.0785,8.09,8.09,8.0977,8.1093,8.1093,8.1093,8.1093,8.1093,8.1093,8.1093,8.1093,8.1093,8.1093,8.1093,8.1093,8.1093,9.5351,9.4922,9.4687,9.4609,9.3828,9.3203,9.3281,9.289,9.2617,9.2617,9.2617,9.2617,9.2617,9.2617,9.2422,9.2031,9.1992,9.1445,9.0195,8.9219,8.8515,8.8164,8.7734,8.75,8.75,8.664,8.582,8.5,8.4062,8.3398,8.3008,8.2539,8.2304,8.2304,8.2304,8.2304,8.2304,8.2304,8.2304,8.2304,8.2304,8.2304,8.2304,8.2304,8.2304,8.2304,8.2304,8.2304,8.2304,8.2304,8.2304,8.2304,8.2304,8.2223,8.2171,8.2171,8.1611,8.0812,7.9895,7.8884,7.8097,7.8097,7.7712,7.713,7.6284,7.6092,7.5745,7.443,7.4392,7.4334,7.348,7.3175,7.2677,7.147,7.0762,6.9894,6.8513,6.8484,6.8601,6.8514,6.959,7.0514,7.1014,7.1475,7.2084,7.2822,7.2514,7.2853,7.4084,7.4507,7.4938,7.5399,7.6245,7.7099,7.7946,7.8784,7.94,7.9815,8.0669,8.1093,8.1093,8.1093,8.1093,8.1093,8.1093,8.1093,8.1093,8.1093,8.1093,8.1093,8.1093,8.1093,8.1093,8.1093,8.1093,8.1093,9.5898,9.539,9.5195,9.5469,9.4219,9.3359,9.3828,9.3164,9.2617,9.2617,9.2617,9.2617,9.2617,9.2617,9.2617,9.2617,9.2617,9.2304,9.164,9.0156,8.9101,8.8711,8.7929,8.75,8.75,8.6836,8.6406,8.6211,8.4844,8.4101,8.3906,8.3203,8.2812,8.2617,8.2617,8.25,8.2304,8.2304,8.2304,8.2304,8.2304,8.2304,8.2304,8.2304,8.2304,8.2304,8.2304,8.2304,8.2304,8.2304,8.2304,8.2304,8.2304,8.2304,8.2304,8.2304,8.1602,8.0827,8.0741,7.9934,7.9158,7.9158,7.8909,7.8463,7.7796,7.7659,7.7207,7.5644,7.5619,7.5563,7.4516,7.4063,7.3706,7.3316,7.1986,7.0868,7.0477,6.9903,6.9706,7.0208,7.1014,7.1783,7.2437,7.3129,7.3584,7.3776,7.3776,7.4123,7.4969,7.5007,7.5476,7.6553,7.7061,7.7792,7.8792,7.9477,7.9892,8.0123,8.0785,8.1093,8.1093,8.1093,8.1093,8.1093,8.1093,8.1093,8.1093,8.1093,8.1093,8.1093,8.1093,8.1093,8.1093,8.1093,8.1093,8.1093,9.7539,9.7461,9.7226,9.6523,9.5625,9.4765,9.4023,9.3164,9.2617,9.2617,9.2617,9.2617,9.2617,9.2617,9.2617,9.2617,9.2617,9.2578,9.25,9.164,9.039,8.8789,8.7929,8.75,8.75,8.7422,8.6992,8.6211,8.6054,8.5586,8.4804,8.4726,8.4297,8.3515,8.3515,8.3047,8.2304,8.2304,8.2304,8.2304,8.2304,8.2304,8.2304,8.2304,8.2304,8.2304,8.2304,8.2304,8.2304,8.2304,8.2304,8.2304,8.2304,8.2304,8.2304,8.2304,8.2226,8.2096,8.1702,8.0976,8.0267,8.0267,7.9715,7.907,7.8779,7.8673,7.8397,7.7326,7.7362,7.712,7.5482,7.532,7.4895,7.3291,7.2765,7.2205,7.1266,7.1758,7.2153,7.2023,7.2783,7.3315,7.3392,7.3469,7.3815,7.4546,7.4623,7.4976,7.5861,7.5899,7.663,7.8253,7.7676,7.8054,7.9708,7.9777,8.0208,8.1016,8.1054,8.1093,8.1093,8.1093,8.1093,8.1093,8.1093,8.1093,8.1093,8.1093,8.1093,8.1093,8.1093,8.1093,8.1093,8.1093,8.1093,8.1093,9.7695,9.7695,9.7617,9.7304,9.6406,9.5469,9.4804,9.3984,9.3203,9.2656,9.2617,9.2617,9.2617,9.2617,9.2617,9.2617,9.2617,9.2617,9.2617,9.1797,9.0742,8.957,8.9219,8.8789,8.8242,8.8242,8.7851,8.6992,8.6445,8.6015,8.5703,8.5156,8.4726,8.4414,8.4414,8.4219,8.3867,8.3359,8.3125,8.3047,8.2539,8.2304,8.2304,8.2304,8.2304,8.2304,8.2304,8.2304,8.2304,8.2304,8.2304,8.2304,8.2304,8.2304,8.2304,8.2304,8.2304,8.2264,8.2119,8.175,8.1379,8.1379,8.1075,8.0579,7.9951,7.9774,7.9557,7.8646,7.8151,7.7676,7.7014,7.6089,7.539,7.5234,7.4145,7.3379,7.3517,7.3299,7.3086,7.3028,7.3738,7.4238,7.4238,7.5207,7.5976,7.6284,7.6784,7.7215,7.7515,7.7561,7.8092,7.9285,7.9015,7.9438,8.0592,8.0592,8.0785,8.1093,8.1093,8.1093,8.1093,8.1093,8.1093,8.1093,8.1093,8.1093,8.1093,8.1093,8.1093,8.1093,8.1093,8.1093,8.1093,8.1093,8.1093,8.1093,9.7695,9.7695,9.7695,9.7695,9.6836,9.6015,9.5664,9.4648,9.3672,9.3086,9.2773,9.2617,9.2617,9.2617,9.2617,9.2617,9.2617,9.2617,9.2617,9.2031,9.1211,9.0039,9.0,8.9726,8.9101,8.8828,8.8437,8.789,8.7031,8.6601,8.6601,8.6015,8.5586,8.5312,8.5312,8.5156,8.4844,8.4258,8.4023,8.3945,8.3359,8.3125,8.3125,8.3125,8.3125,8.3125,8.3125,8.2929,8.2695,8.2695,8.2539,8.2304,8.2304,8.2304,8.2304,8.2304,8.2304,8.2304,8.2304,8.2217,8.2072,8.2072,8.1988,8.1719,8.1049,8.088,8.0634,7.9764,7.913,7.8621,7.8075,7.702,7.6297,7.6554,7.5191,7.4403,7.5202,7.4481,7.3969,7.4238,7.4776,7.5207,7.5476,7.6592,7.7407,7.7676,7.8176,7.8484,7.8484,7.8754,7.9169,7.9777,8.0092,8.0516,8.1093,8.1093,8.1093,8.1093,8.1093,8.1093,8.1093,8.1093,8.1093,8.1093,8.1093,8.1093,8.1093,8.1093,8.1093,8.1093,8.1093,8.1093,8.1093,8.1093,8.1093,8.1093,9.7695,9.7695,9.7695,9.7695,9.7031,9.6523,9.6484,9.5039,9.3906,9.3906,9.3164,9.2617,9.2617,9.2617,9.2617,9.2617,9.2617,9.2617,9.2617,9.2617,9.1836,9.0117,9.0039,9.0039,9.0,8.914,8.8711,8.8711,8.789,8.75,8.75,8.75,8.7031,8.6211,8.6211,8.5742,8.4922,8.4922,8.4922,8.4922,8.4883,8.4883,8.4883,8.4883,8.4883,8.4883,8.4883,8.4336,8.3594,8.3594,8.3047,8.2304,8.2304,8.2304,8.2304,8.2304,8.2304,8.2304,8.2304,8.2304,8.2304,8.2304,8.2304,8.2263,8.2053,8.1992,8.1689,8.0645,8.058,8.0195,7.8519,7.8208,7.7862,7.677,7.574,7.5264,7.5918,7.5284,7.5053,7.5938,7.6015,7.6361,7.7215,7.733,7.7638,7.8446,7.8523,7.8523,7.8523,7.9323,7.9815,7.9815,8.0669,8.1093,8.1093,8.1093,8.1093,8.1093,8.1093,8.1093,8.1093,8.1093,8.1093,8.1093,8.1093,8.1093,8.1093,8.1093,8.1093,8.1093,8.1093,8.1093,8.1093,8.1093,8.1093,8.1093,9.7695,9.7695,9.7695,9.7695,9.75,9.7148,9.6601,9.6054,9.5273,9.4062,9.3672,9.3281,9.2656,9.2617,9.2617,9.2617,9.2617,9.2617,9.2617,9.2617,9.2383,9.1836,9.1836,9.1523,9.0937,9.0078,8.9297,8.8711,8.789,8.75,8.75,8.75,8.7344,8.7109,8.7109,8.6953,8.6679,8.6054,8.582,8.5742,8.5156,8.4883,8.4883,8.4883,8.4883,8.4883,8.4883,8.4726,8.4492,8.4492,8.3945,8.3125,8.25,8.2304,8.2304,8.2304,8.2304,8.2304,8.2304,8.2304,8.2304,8.2304,8.2304,8.2265,8.2221,8.2219,8.2139,8.1813,8.1163,8.0552,8.0046,7.9396,7.8803,7.8472,7.8001,7.7744,7.7921,7.7617,7.7438,7.7715,7.7753,7.7869,7.8138,7.8707,7.9169,7.94,7.9977,8.0323,8.0323,8.0554,8.0708,8.0708,8.0977,8.1093,8.1093,8.1093,8.1093,8.1093,8.1093,8.1093,8.1093,8.1093,8.1093,8.1093,8.1093,8.1093,8.1093,8.1093,8.1093,8.1093,8.1093,8.1093,8.1093,8.1093,8.1093,8.1093,9.7695,9.7695,9.7695,9.7695,9.7695,9.7539,9.7031,9.6719,9.6133,9.5078,9.4648,9.4062,9.3203,9.3125,9.2969,9.2617,9.2617,9.2617,9.2617,9.2617,9.2617,9.2617,9.2617,9.2344,9.1836,9.0976,9.0078,8.9219,8.8398,8.7812,8.75,8.75,8.75,8.75,8.75,8.75,8.7461,8.6953,8.6719,8.6679,8.6133,8.5937,8.5937,8.5937,8.5937,8.5937,8.5937,8.5703,8.539,8.539,8.4844,8.4023,8.3476,8.3086,8.2812,8.2812,8.2578,8.2304,8.2304,8.2304,8.2304,8.2304,8.2304,8.2304,8.2304,8.2304,8.2304,8.2304,8.1789,8.1224,8.0874,8.033,7.9764,7.9358,7.9069,7.8874,7.8801,7.8611,7.8484,7.8484,7.8484,7.8638,7.8977,7.9477,7.9931,8.0277,8.0785,8.1093,8.1093,8.1093,8.1093,8.1093,8.1093,8.1093,8.1093,8.1093,8.1093,8.1093,8.1093,8.1093,8.1093,8.1093,8.1093,8.1093,8.1093,8.1093,8.1093,8.1093,8.1093,8.1093,8.1093,8.1093,8.1093,8.1093,8.1093,8.1093,9.7695,9.7695,9.7695,9.7695,9.7695,9.7695,9.7695,9.707,9.6562,9.6523,9.5742,9.4883,9.3984,9.3828,9.3515,9.2773,9.2734,9.2695,9.2617,9.2617,9.2617,9.2617,9.2617,9.2617,9.2617,9.1758,9.0898,9.0117,8.9258,8.8437,8.7734,8.7734,8.7734,8.7734,8.7656,8.7617,8.7617,8.7539,8.75,8.75,8.75,8.75,8.75,8.75,8.75,8.75,8.75,8.6992,8.6289,8.6211,8.5664,8.5,8.4922,8.4375,8.3711,8.3711,8.3164,8.2539,8.2422,8.2422,8.2383,8.2304,8.2304,8.2304,8.2304,8.2304,8.2304,8.2304,8.2304,8.207,8.125,8.1133,8.0778,7.9785,7.9466,7.9273,7.9056,7.8842,7.8715,7.8715,7.8715,7.9054,7.9862,7.9931,8.0246,8.1054,8.1093,8.1093,8.1093,8.1093,8.1093,8.1093,8.1093,8.1093,8.1093,8.1093,8.1093,8.1093,8.1093,8.1093,8.1093,8.1093,8.1093,8.1093,8.1093,8.1093,8.1093,8.1093,8.1093,8.1093,8.1093,8.1093,8.1093,8.1093,8.1093,8.1093,9.7695,9.7695,9.7695,9.7695,9.7695,9.7695,9.7695,9.7539,9.7226,9.6562,9.5742,9.4883,9.3984,9.3281,9.3086,9.3594,9.3633,9.332,9.2656,9.2617,9.2617,9.2617,9.2617,9.2617,9.2617,9.1758,9.1211,9.1015,9.0156,8.9648,8.9453,8.9453,8.9453,8.9414,8.875,8.8437,8.8398,8.7773,8.75,8.75,8.75,8.75,8.75,8.75,8.75,8.75,8.75,8.7383,8.7109,8.6445,8.6054,8.5781,8.5117,8.4765,8.4609,8.4609,8.4492,8.4179,8.3515,8.332,8.3164,8.2461,8.2304,8.2304,8.2304,8.2304,8.2304,8.2304,8.2304,8.2226,8.2031,8.2031,8.1871,8.1501,8.1259,8.1062,8.0871,8.0649,8.0554,8.0554,8.0554,8.0592,8.0785,8.0823,8.09,8.1093,8.1093,8.1093,8.1093,8.1093,8.1093,8.1093,8.1093,8.1093,8.1093,8.1093,8.1093,8.1093,8.1093,8.1093,8.1093,8.1093,8.1093,8.1093,8.1093,8.1093,8.1093,8.1093,8.1093,8.1093,8.1093,8.1093,8.1093,8.1093,8.1093,8.1093,9.7695,9.7695,9.7695,9.7695,9.7695,9.7695,9.7695,9.7695,9.7539,9.7148,9.6679,9.5898,9.4648,9.4492,9.4297,9.3945,9.3906,9.3515,9.2656,9.2617,9.2617,9.2617,9.2617,9.2617,9.2617,9.2148,9.1719,9.1289,9.0859,9.039,9.0,9.0,9.0,8.9961,8.9531,8.9336,8.9258,8.8437,8.832,8.8672,8.8242,8.832,8.8672,8.8672,8.8437,8.8086,8.8086,8.7812,8.7422,8.6953,8.6836,8.6758,8.6289,8.5859,8.5508,8.5508,8.5234,8.4804,8.4336,8.4219,8.4101,8.3633,8.3242,8.2812,8.2383,8.2221,8.217,8.217,8.217,8.217,8.217,8.2223,8.2222,8.2046,8.184,8.1645,8.1414,8.1228,8.1093,8.1093,8.1093,8.1093,8.1093,8.1093,8.1093,8.1093,8.1093,8.1093,8.1093,8.1093,8.1093,8.1093,8.1093,8.1093,8.1093,8.1093,8.1093,8.1093,8.1093,8.1093,8.1093,8.1093,8.1093,8.1093,8.1093,8.1093,8.1093,8.1093,8.1093,8.1093,8.1093,8.1093,8.1093,8.1093,8.1093,8.1093,9.7695,9.7695,9.7695,9.7695,9.7695,9.7695,9.7695,9.7695,9.7695,9.7695,9.7578,9.6953,9.5586,9.6054,9.5859,9.4258,9.4258,9.3906,9.289,9.2812,9.2773,9.2617,9.2617,9.2617,9.2617,9.2617,9.2265,9.1523,9.1523,9.1133,9.0429,9.0429,9.0429,9.0429,9.0273,9.0234,9.0156,8.9297,8.9336,8.9922,8.9219,8.9375,9.0,9.0,8.9531,8.8906,8.8906,8.8398,8.7695,8.7695,8.7617,8.75,8.75,8.6992,8.6406,8.6406,8.5898,8.5312,8.5156,8.5117,8.5078,8.4922,8.4375,8.3594,8.2693,8.2237,8.1992,8.1992,8.1976,8.1969,8.1988,8.2125,8.2176,8.1982,8.1825,8.1632,8.1377,8.1224,8.1093,8.1093,8.1093,8.1093,8.1093,8.1093,8.1093,8.1093,8.1093,8.1093,8.1093,8.1093,8.1093,8.1093,8.1093,8.1093,8.1093,8.1093,8.1093,8.1093,8.1093,8.1093,8.1093,8.1093,8.1093,8.1093,8.1093,8.1093,8.1093,8.1093,8.1093,8.1093,8.1093,8.1093,8.1093,8.1093,8.1093,8.1093,9.7695,9.7695,9.7695,9.7695,9.7695,9.7695,9.7695,9.7695,9.7695,9.7695,9.7109,9.6562,9.6367,9.6445,9.6094,9.5117,9.5703,9.5469,9.3828,9.3711,9.3398,9.2617,9.2617,9.2617,9.2617,9.2617,9.2539,9.2422,9.2422,9.2344,9.2265,9.2265,9.2265,9.2226,9.1445,9.1133,9.1054,9.0195,8.9883,9.0,8.9883,8.9883,9.0,9.0,8.9922,8.9804,8.9804,8.9258,8.8554,8.8554,8.8086,8.75,8.75,8.7422,8.7304,8.7304,8.7226,8.6992,8.6211,8.6015,8.5859,8.5078,8.4804,8.4451,8.3396,8.2548,8.1992,8.1992,8.1864,8.1773,8.1973,8.2003,8.1978,8.1753,8.1703,8.1572,8.1203,8.1131,8.1093,8.1093,8.1093,8.1093,8.1093,8.1093,8.1093,8.1093,8.1093,8.1093,8.1093,8.1093,8.1093,8.1093,8.1093,8.1093,8.1093,8.1093,8.1093,8.1093,8.1093,8.1093,8.1093,8.1093,8.1093,8.1093,8.1093,8.1093,8.1093,8.1093,8.1093,8.1093,8.1093,8.1093,8.1093,8.1093,8.1093,8.1093,9.7695,9.7695,9.7695,9.7695,9.7695,9.7695,9.7695,9.7695,9.7695,9.7695,9.7383,9.6992,9.6562,9.6484,9.6367,9.5976,9.6289,9.5976,9.4726,9.4179,9.3711,9.3359,9.2851,9.2617,9.2617,9.2617,9.2617,9.2617,9.2617,9.2617,9.2617,9.2617,9.2617,9.2578,9.2187,9.2031,9.1953,9.1094,9.1015,9.1406,9.0937,9.1015,9.1445,9.1445,9.1133,9.0664,9.0156,8.9765,8.9414,8.9414,8.8867,8.8164,8.8164,8.7851,8.75,8.75,8.75,8.7422,8.7031,8.6914,8.6836,8.6445,8.5976,8.5466,8.4824,8.3927,8.2942,8.1863,8.16,8.1558,8.1662,8.1775,8.1785,8.1568,8.1524,8.142,8.1138,8.1093,8.1093,8.1093,8.1093,8.1093,8.1093,8.1093,8.1093,8.1093,8.1186,8.1265,8.1265,8.1265,8.1265,8.1265,8.1176,8.1093,8.1093,8.1093,8.1093,8.1093,8.1093,8.1093,8.1093,8.1093,8.1093,8.1093,8.1093,8.1093,8.1093,8.1093,8.1093,8.1093,8.1093,8.1093,8.1093,8.1093,8.1093,8.1093]}]]